[[{"header":{"parameterUnit":"m.s-1","parameterCategory":1,"la1":31.0,"la2":29.5877,"lo1":-88.7671,"lo2":-86.6584,"dx":0.0162,"dy":0.0185,"nx":115,"ny":88,"refTime":"2022-11-20T06:00:00:Z","depth":0,"parameterNumber":2,"parameterNumberName":"U-component_of_WINDS"},"data":[0.0,0.0,0.0,0.0,0.0,0.0,0.0,0.0,0.0,0.0,0.0,0.0,0.0,0.0,0.0,0.0,0.0,0.0,0.0,0.0,0.0,0.0,0.0,0.0,0.0,0.0,0.0,0.0,0.0,0.0,0.0,0.0,0.0,0.0,0.0,0.0,0.0,0.0,0.0,0.0,0.0,0.0,0.0,0.0,0.0,0.0,0.0,0.0,0.0,0.0,0.0,0.0,0.0,0.0,0.0,0.0,0.0,0.0,0.0,0.0,0.0,0.0,0.0,0.0,0.0,0.0,0.0,0.0,0.0,0.0,0.0,0.0,0.0,0.0,0.0,0.0,0.0,0.0,0.0,0.0,0.0,0.0,0.0,0.0,0.0,0.0,0.0,0.0,0.0,0.0,0.0,0.0,0.0,0.0,0.0,0.0,0.0,0.0,0.0,0.0,0.0,0.0,0.0,0.0,0.0,0.0,0.0,0.0,0.0,0.0,0.0,0.0,0.0,0.0,0.0,0.0,0.0,0.0,0.0,0.0,0.0,0.0,0.0,0.0,0.0,0.0,0.0,0.0,0.0,0.0,0.0,0.0,0.0,0.0,0.0,0.0,0.0,0.0,0.0,0.0,0.0,0.0,0.0,0.0,0.0,0.0,0.0,0.0,0.0,0.0,0.0,0.0,0.0,0.0,0.0,0.0,0.0,0.0,0.0,0.0,0.0,0.0,0.0,0.0,0.0,0.0,0.0,0.0,0.0,0.0,0.0,0.0,0.0,0.0,0.0,0.0,0.0,0.0,0.0,0.0,0.0,0.0,0.0,0.0,0.0,0.0,0.0,0.0,0.0,0.0,0.0,0.0,0.0,0.0,0.0,0.0,0.0,0.0,0.0,0.0,0.0,0.0,0.0,0.0,0.0,0.0,0.0,0.0,0.0,0.0,0.0,0.0,0.0,0.0,0.0,0.0,0.0,0.0,0.0,0.0,0.0,0.0,0.0,0.0,0.0,0.0,0.0,0.0,0.0,0.0,0.0,0.0,0.0,0.0,0.0,0.0,0.0,0.0,0.0,0.0,0.0,0.0,0.0,0.0,0.0,0.0,0.0,0.0,0.0,0.0,0.0,0.0,0.0,0.0,0.0,0.0,0.0,0.0,0.0,0.0,0.0,0.0,0.0,0.0,0.0,0.0,0.0,0.0,0.0,0.0,0.0,0.0,0.0,0.0,0.0,0.0,0.0,0.0,0.0,0.0,0.0,0.0,0.0,0.0,0.0,0.0,0.0,0.0,0.0,0.0,0.0,0.0,0.0,0.0,0.0,0.0,0.0,0.0,0.0,0.0,0.0,0.0,0.0,0.0,0.0,0.0,0.0,0.0,0.0,0.0,0.0,0.0,0.0,0.0,0.0,0.0,0.0,0.0,0.0,0.0,0.0,0.0,0.0,0.0,0.0,0.0,0.0,0.0,0.0,0.0,0.0,0.0,0.0,0.0,0.0,0.0,0.0,0.0,0.0,0.0,0.0,0.0,0.0,0.0,0.0,0.0,0.0,0.0,0.0,0.0,0.0,0.0,0.0,0.0,0.0,0.0,0.0,0.0,0.0,0.0,0.0,0.0,0.0,0.0,0.0,0.0,0.0,0.0,0.0,0.0,0.0,0.0,0.0,0.0,0.0,0.0,0.0,0.0,0.0,0.0,0.0,0.0,0.0,0.0,0.0,0.0,0.0,0.0,0.0,0.0,0.0,0.0,0.0,0.0,0.0,0.0,0.0,0.0,0.0,0.0,0.0,0.0,0.0,0.0,0.0,0.0,0.0,0.0,0.0,0.0,0.0,0.0,0.0,0.0,0.0,0.0,0.0,0.0,0.0,0.0,0.0,0.0,0.0,0.0,0.0,0.0,0.0,0.0,0.0,0.0,0.0,0.0,0.0,0.0,0.0,0.0,0.0,0.0,0.0,0.0,0.0,0.0,0.0,0.0,0.0,0.0,0.0,0.0,0.0,0.0,0.0,0.0,0.0,0.0,0.0,0.0,0.0,0.0,0.0,0.0,0.0,0.0,0.0,0.0,0.0,0.0,0.0,0.0,0.0,0.0,0.0,0.0,0.0,0.0,0.0,0.0,0.0,0.0,0.0,0.0,0.0,0.0,0.0,0.0,0.0,0.0,0.0,0.0,0.0,0.0,0.0,0.0,0.0,0.0,0.0,0.0,0.0,0.0,0.0,0.0,0.0,0.0,0.0,0.0,0.0,0.0,0.0,0.0,0.0,0.0,0.0,0.0,0.0,0.0,0.0,0.0,0.0,0.0,0.0,0.0,0.0,0.0,0.0,0.0,0.0,0.0,0.0,0.0,0.0,0.0,0.0,0.0,0.0,0.0,0.0,0.0,0.0,0.0,0.0,0.0,0.0,0.0,0.0,0.0,0.0,0.0,0.0,0.0,0.0,0.0,0.0,0.0,0.0,0.0,0.0,0.0,0.0,0.0,0.0,0.0,0.0,0.0,0.0,0.0,0.0,0.0,0.0,0.0,0.0,0.0,0.0,0.0,0.0,0.0,0.0,0.0,0.0,0.0,0.0,0.0,0.0,0.0,0.0,0.0,0.0,0.0,0.0,0.0,0.0,0.0,0.0,0.0,0.0,0.0,0.0,0.0,0.0,0.0,0.0,0.0,0.0,0.0,0.0,0.0,0.0,0.0,0.0,0.0,0.0,0.0,0.0,0.0,0.0,0.0,0.0,0.0,0.0,0.0,0.0,0.0,0.0,0.0,0.0,0.0,0.0,0.0,0.0,0.0,0.0,0.0,0.0,0.0,0.0,0.0,0.0,0.0,0.0,0.0,0.0,0.0,0.0,0.0,0.0,0.0,0.0,0.0,0.0,0.0,0.0,0.0,0.0,0.0,0.0,0.0,0.0,0.0,0.0,0.0,0.0,0.0,0.0,0.0,0.0,0.0,0.0,0.0,0.0,0.0,0.0,0.0,0.0,0.0,0.0,0.0,0.0,0.0,0.0,0.0,0.0,0.0,0.0,0.0,0.0,0.0,0.0,0.0,0.0,0.0,0.0,0.0,0.0,0.0,0.0,0.0,0.0,0.0,0.0,0.0,0.0,0.0,0.0,0.0,0.0,0.0,0.0,0.0,0.0,0.0,0.0,0.0,0.0,0.0,0.0,0.0,0.0,0.0,0.0,0.0,0.0,0.0,0.0,0.0,0.0,0.0,0.0,0.0,0.0,0.0,0.0,0.0,0.0,0.0,0.0,0.0,0.0,0.0,0.0,0.0,0.0,0.0,0.0,0.0,0.0,0.0,0.0,0.0,0.0,0.0,0.0,0.0,0.0,0.0,0.0,0.0,0.0,0.0,0.0,0.0,0.0,0.0,0.0,0.0,0.0,0.0,0.0,0.0,0.0,0.0,0.0,0.0,0.0,0.0,0.0,0.0,0.0,0.0,0.0,0.0,0.0,0.0,0.0,0.0,0.0,0.0,0.0,0.0,0.0,0.0,0.0,0.0,0.0,0.0,0.0,0.0,0.0,0.0,0.0,0.0,0.0,0.0,0.0,0.0,0.0,0.0,0.0,0.0,0.0,0.0,0.0,0.0,0.0,0.0,0.0,0.0,0.0,0.0,0.0,0.0,0.0,0.0,0.0,0.0,0.0,0.0,0.0,0.0,0.0,0.0,0.0,0.0,0.0,0.0,0.0,0.0,0.0,0.0,0.0,0.0,0.0,0.0,0.0,0.0,0.0,0.0,0.0,0.0,0.0,0.0,0.0,0.0,0.0,0.0,0.0,0.0,0.0,0.0,0.0,0.0,0.0,0.0,0.0,0.0,0.0,0.0,0.0,0.0,0.0,0.0,0.0,0.0,0.0,0.0,0.0,0.0,0.0,0.0,0.0,0.0,0.0,0.0,0.0,0.0,0.0,0.0,0.0,0.0,0.0,0.0,0.0,0.0,0.0,0.0,0.0,0.0,0.0,0.0,0.0,0.0,0.0,0.0,0.0,0.0,0.0,0.0,0.0,0.0,0.0,0.0,0.0,0.0,0.0,0.0,0.0,0.0,0.0,0.0,0.0,0.0,0.0,0.0,0.0,0.0,0.0,0.0,0.0,0.0,0.0,0.0,0.0,0.0,0.0,0.0,0.0,0.0,0.0,0.0,0.0,0.0,0.0,0.0,0.0,0.0,0.0,0.0,0.0,0.0,0.0,0.0,0.0,0.0,0.0,0.0,0.0,0.0,0.0,0.0,0.0,0.0,0.0,0.0,0.0,0.0,3.8913,0.0,0.0,0.0,3.3246,0.0,0.0,0.0,0.0,0.0,0.0,0.0,0.0,0.0,0.0,0.0,0.0,0.0,0.0,0.0,0.0,0.0,0.0,0.0,0.0,0.0,0.0,0.0,0.0,0.0,0.0,0.0,0.0,0.0,0.0,0.0,0.0,0.0,0.0,0.0,0.0,0.0,0.0,0.0,0.0,0.0,0.0,0.0,0.0,0.0,0.0,0.0,0.0,0.0,0.0,0.0,0.0,0.0,0.0,0.0,0.0,0.0,0.0,0.0,0.0,0.0,0.0,0.0,0.0,0.0,0.0,0.0,0.0,0.0,0.0,0.0,0.0,0.0,0.0,0.0,0.0,0.0,0.0,0.0,0.0,0.0,0.0,0.0,0.0,0.0,0.0,0.0,0.0,0.0,0.0,0.0,0.0,0.0,0.0,0.0,0.0,0.0,0.0,0.0,0.0,0.0,0.0,0.0,0.0,0.0,0.0,0.0,0.0,0.0,0.0,3.9145,3.7606,4.0638,3.9236,3.2953,0.0,0.0,0.0,0.0,0.0,0.0,0.0,0.0,0.0,0.0,0.0,0.0,0.0,0.0,0.0,0.0,0.0,0.0,0.0,0.0,0.0,0.0,0.0,0.0,0.0,0.0,0.0,0.0,0.0,0.0,0.0,0.0,0.0,0.0,0.0,0.0,0.0,0.0,0.0,0.0,0.0,0.0,0.0,0.0,0.0,0.0,0.0,0.0,0.0,0.0,0.0,0.0,0.0,0.0,0.0,0.0,0.0,0.0,0.0,0.0,0.0,0.0,0.0,0.0,0.0,0.0,0.0,0.0,0.0,0.0,0.0,0.0,0.0,0.0,0.0,0.0,0.0,0.0,0.0,0.0,0.0,0.0,0.0,0.0,0.0,0.0,0.0,0.0,0.0,0.0,0.0,0.0,0.0,0.0,0.0,0.0,0.0,0.0,0.0,0.0,0.0,0.0,0.0,0.0,0.0,0.0,0.0,0.0,0.0,0.0,0.0,0.0,4.0569,3.9052,3.3426,0.0,0.0,0.0,0.0,0.0,0.0,0.0,0.0,0.0,0.0,0.0,0.0,0.0,0.0,0.0,0.0,0.0,0.0,0.0,0.0,0.0,0.0,0.0,0.0,0.0,0.0,0.0,0.0,0.0,0.0,0.0,0.0,0.0,0.0,0.0,0.0,0.0,0.0,0.0,0.0,0.0,0.0,0.0,0.0,0.0,0.0,0.0,0.0,0.0,0.0,0.0,0.0,0.0,0.0,0.0,0.0,0.0,0.0,0.0,0.0,0.0,0.0,0.0,0.0,0.0,0.0,0.0,0.0,0.0,0.0,0.0,0.0,0.0,0.0,0.0,0.0,0.0,0.0,0.0,0.0,0.0,0.0,0.0,0.0,0.0,0.0,0.0,0.0,0.0,0.0,0.0,0.0,0.0,0.0,0.0,0.0,0.0,0.0,0.0,0.0,0.0,0.0,0.0,0.0,0.0,0.0,0.0,0.0,0.0,0.0,3.7955,4.0659,4.0341,0.0,3.5004,0.0,0.0,0.0,0.0,0.0,0.0,0.0,0.0,0.0,0.0,0.0,0.0,0.0,0.0,0.0,0.0,0.0,0.0,0.0,0.0,0.0,0.0,0.0,0.0,0.0,0.0,0.0,0.0,0.0,0.0,0.0,0.0,0.0,0.0,0.0,0.0,0.0,0.0,0.0,0.0,0.0,0.0,0.0,0.0,0.0,0.0,0.0,0.0,0.0,0.0,0.0,0.0,0.0,0.0,0.0,0.0,0.0,0.0,0.0,0.0,0.0,0.0,0.0,0.0,0.0,0.0,0.0,0.0,0.0,0.0,0.0,0.0,0.0,0.0,0.0,0.0,0.0,0.0,0.0,0.0,0.0,0.0,0.0,0.0,0.0,0.0,0.0,0.0,0.0,0.0,0.0,0.0,0.0,0.0,0.0,0.0,0.0,0.0,0.0,0.0,0.0,0.0,0.0,0.0,0.0,0.0,0.0,0.0,0.0,0.0,3.8326,4.1026,3.8946,3.667,0.0,0.0,0.0,0.0,0.0,0.0,0.0,0.0,0.0,0.0,0.0,0.0,0.0,0.0,0.0,0.0,0.0,0.0,0.0,0.0,0.0,0.0,0.0,0.0,0.0,0.0,0.0,0.0,0.0,0.0,0.0,0.0,0.0,0.0,0.0,0.0,0.0,0.0,0.0,0.0,0.0,0.0,0.0,0.0,0.0,0.0,0.0,0.0,0.0,0.0,0.0,0.0,0.0,0.0,0.0,0.0,0.0,0.0,0.0,0.0,0.0,0.0,0.0,0.0,0.0,0.0,0.0,0.0,0.0,0.0,0.0,0.0,0.0,0.0,0.0,0.0,0.0,0.0,0.0,0.0,0.0,0.0,0.0,0.0,0.0,0.0,0.0,0.0,0.0,0.0,0.0,0.0,0.0,0.0,0.0,0.0,0.0,0.0,0.0,0.0,0.0,0.0,0.0,0.0,0.0,0.0,0.0,0.0,0.0,0.0,3.8583,3.9537,4.1474,3.9056,3.6523,3.4204,0.0,0.0,0.0,0.0,0.0,0.0,0.0,0.0,0.0,0.0,0.0,0.0,0.0,0.0,0.0,0.0,0.0,0.0,0.0,0.0,0.0,0.0,0.0,0.0,0.0,0.0,0.0,0.0,0.0,0.0,0.0,0.0,0.0,0.0,0.0,0.0,0.0,0.0,0.0,0.0,0.0,0.0,0.0,0.0,0.0,0.0,0.0,0.0,0.0,0.0,0.0,0.0,0.0,0.0,0.0,0.0,0.0,0.0,0.0,0.0,0.0,0.0,0.0,0.0,0.0,0.0,0.0,0.0,0.0,0.0,0.0,0.0,0.0,0.0,0.0,0.0,0.0,0.0,0.0,0.0,0.0,0.0,0.0,0.0,0.0,0.0,0.0,0.0,0.0,0.0,0.0,0.0,0.0,0.0,0.0,0.0,0.0,0.0,0.0,0.0,0.0,0.0,0.0,0.0,0.0,0.0,0.0,0.0,4.1735,4.1291,4.1735,4.3286,4.1768,3.9004,0.0,0.0,0.0,0.0,0.0,0.0,0.0,0.0,0.0,0.0,0.0,0.0,0.0,0.0,0.0,0.0,0.0,0.0,0.0,0.0,0.0,0.0,0.0,0.0,0.0,0.0,0.0,0.0,0.0,0.0,0.0,0.0,0.0,0.0,0.0,0.0,0.0,0.0,0.0,0.0,0.0,0.0,0.0,0.0,0.0,0.0,0.0,0.0,0.0,0.0,0.0,0.0,0.0,0.0,0.0,0.0,0.0,0.0,0.0,0.0,0.0,0.0,0.0,0.0,0.0,0.0,0.0,0.0,0.0,0.0,0.0,0.0,0.0,0.0,0.0,0.0,0.0,0.0,0.0,0.0,0.0,0.0,0.0,0.0,0.0,0.0,0.0,0.0,0.0,0.0,0.0,0.0,0.0,0.0,0.0,0.0,0.0,0.0,0.0,0.0,0.0,0.0,0.0,0.0,0.0,0.0,0.0,0.0,0.0,3.8395,4.1189,4.3167,4.4117,4.1213,3.8612,0.0,0.0,0.0,0.0,0.0,0.0,0.0,0.0,0.0,0.0,0.0,0.0,0.0,0.0,0.0,0.0,0.0,0.0,0.0,0.0,0.0,0.0,0.0,0.0,0.0,0.0,0.0,0.0,0.0,0.0,0.0,0.0,0.0,0.0,0.0,0.0,0.0,0.0,0.0,0.0,0.0,0.0,0.0,0.0,0.0,0.0,0.0,0.0,0.0,0.0,0.0,0.0,0.0,0.0,0.0,0.0,0.0,0.0,0.0,0.0,0.0,0.0,0.0,0.0,0.0,0.0,0.0,0.0,0.0,0.0,0.0,0.0,0.0,0.0,0.0,0.0,0.0,0.0,0.0,0.0,0.0,0.0,0.0,0.0,0.0,0.0,0.0,0.0,0.0,0.0,0.0,0.0,0.0,0.0,0.0,0.0,0.0,0.0,0.0,0.0,0.0,0.0,0.0,0.0,0.0,0.0,0.0,0.0,0.0,3.8982,4.3208,4.5484,4.536,4.1585,3.8501,0.0,0.0,0.0,0.0,0.0,0.0,0.0,0.0,0.0,0.0,0.0,0.0,0.0,0.0,0.0,0.0,0.0,0.0,0.0,0.0,0.0,0.0,0.0,0.0,0.0,0.0,0.0,0.0,0.0,0.0,0.0,0.0,0.0,0.0,0.0,0.0,0.0,0.0,0.0,0.0,0.0,0.0,0.0,0.0,0.0,0.0,0.0,0.0,0.0,0.0,0.0,0.0,0.0,0.0,0.0,0.0,0.0,0.0,0.0,0.0,0.0,0.0,0.0,0.0,0.0,0.0,0.0,0.0,0.0,0.0,0.0,0.0,0.0,0.0,0.0,0.0,0.0,0.0,0.0,0.0,0.0,0.0,0.0,0.0,0.0,0.0,0.0,0.0,0.0,0.0,0.0,0.0,0.0,0.0,0.0,0.0,0.0,0.0,0.0,0.0,0.0,0.0,0.0,0.0,0.0,0.0,0.0,0.0,3.8156,4.4296,4.7604,4.8526,4.7113,4.3154,3.8824,0.0,0.0,0.0,0.0,0.0,0.0,0.0,0.0,0.0,0.0,0.0,0.0,0.0,0.0,0.0,0.0,0.0,0.0,0.0,0.0,0.0,0.0,0.0,0.0,0.0,0.0,0.0,0.0,0.0,0.0,0.0,0.0,0.0,0.0,0.0,0.0,0.0,0.0,0.0,0.0,0.0,0.0,0.0,0.0,0.0,0.0,0.0,0.0,0.0,0.0,0.0,0.0,0.0,0.0,0.0,0.0,0.0,0.0,0.0,0.0,0.0,0.0,0.0,0.0,0.0,0.0,0.0,0.0,0.0,0.0,0.0,0.0,0.0,0.0,0.0,0.0,0.0,0.0,0.0,0.0,0.0,0.0,0.0,0.0,0.0,0.0,0.0,0.0,0.0,0.0,0.0,0.0,0.0,0.0,0.0,0.0,0.0,0.0,0.0,0.0,0.0,0.0,0.0,0.0,0.0,0.0,0.0,0.0,0.0,4.1442,4.614,4.871,4.8641,4.3823,3.9979,0.0,0.0,0.0,0.0,0.0,0.0,0.0,0.0,0.0,0.0,0.0,0.0,0.0,0.0,0.0,0.0,0.0,0.0,0.0,0.0,0.0,0.0,0.0,0.0,0.0,0.0,0.0,0.0,0.0,0.0,0.0,0.0,0.0,0.0,0.0,0.0,0.0,0.0,0.0,0.0,0.0,0.0,0.0,0.0,0.0,0.0,0.0,0.0,0.0,0.0,0.0,0.0,0.0,0.0,0.0,0.0,0.0,0.0,0.0,0.0,0.0,0.0,0.0,0.0,0.0,0.0,0.0,0.0,0.0,0.0,0.0,0.0,0.0,0.0,0.0,0.0,0.0,0.0,0.0,0.0,0.0,0.0,0.0,0.0,0.0,0.0,0.0,0.0,0.0,0.0,0.0,0.0,0.0,0.0,0.0,0.0,0.0,0.0,0.0,0.0,0.0,0.0,0.0,0.0,0.0,0.0,0.0,0.0,0.0,4.324,4.7677,5.0251,5.0487,4.4505,4.0531,3.8809,0.0,0.0,0.0,0.0,0.0,0.0,0.0,0.0,0.0,0.0,0.0,0.0,0.0,0.0,0.0,0.0,0.0,0.0,0.0,0.0,0.0,0.0,0.0,0.0,0.0,0.0,0.0,0.0,0.0,0.0,0.0,0.0,0.0,0.0,0.0,0.0,0.0,0.0,0.0,0.0,0.0,0.0,0.0,0.0,0.0,0.0,0.0,0.0,0.0,0.0,0.0,0.0,0.0,0.0,0.0,0.0,0.0,0.0,0.0,0.0,0.0,0.0,0.0,0.0,0.0,0.0,0.0,0.0,0.0,0.0,0.0,0.0,0.0,0.0,0.0,0.0,0.0,0.0,0.0,0.0,0.0,0.0,0.0,0.0,0.0,0.0,0.0,0.0,0.0,0.0,0.0,0.0,0.0,0.0,0.0,0.0,0.0,0.0,0.0,0.0,0.0,0.0,0.0,0.0,0.0,0.0,0.0,0.0,4.8338,5.1526,5.2821,5.1982,4.535,4.0641,0.0,0.0,0.0,0.0,0.0,0.0,0.0,0.0,0.0,0.0,0.0,0.0,0.0,0.0,0.0,0.0,0.0,0.0,0.0,0.0,0.0,0.0,0.0,0.0,0.0,0.0,0.0,0.0,0.0,0.0,0.0,0.0,0.0,0.0,0.0,0.0,0.0,0.0,0.0,0.0,0.0,0.0,0.0,0.0,0.0,0.0,0.0,0.0,0.0,0.0,0.0,0.0,0.0,0.0,0.0,0.0,0.0,0.0,0.0,0.0,0.0,0.0,0.0,0.0,0.0,0.0,0.0,0.0,0.0,0.0,0.0,0.0,0.0,0.0,0.0,0.0,0.0,0.0,0.0,0.0,0.0,0.0,0.0,0.0,0.0,0.0,0.0,0.0,0.0,0.0,0.0,0.0,0.0,0.0,0.0,0.0,0.0,0.0,0.0,0.0,0.0,0.0,0.0,0.0,0.0,0.0,0.0,0.0,0.0,4.9118,5.182,5.3104,5.2732,4.67,4.2424,0.0,0.0,0.0,0.0,0.0,0.0,0.0,0.0,0.0,0.0,0.0,0.0,0.0,0.0,0.0,0.0,0.0,0.0,0.0,0.0,0.0,0.0,0.0,0.0,0.0,0.0,0.0,0.0,0.0,0.0,0.0,0.0,0.0,0.0,0.0,0.0,0.0,0.0,0.0,0.0,0.0,0.0,0.0,0.0,0.0,0.0,0.0,0.0,0.0,0.0,0.0,0.0,0.0,0.0,0.0,0.0,0.0,0.0,0.0,0.0,0.0,0.0,0.0,0.0,0.0,0.0,0.0,0.0,0.0,0.0,0.0,0.0,0.0,0.0,0.0,0.0,0.0,0.0,0.0,0.0,0.0,0.0,0.0,0.0,0.0,0.0,0.0,0.0,0.0,0.0,0.0,0.0,0.0,0.0,0.0,0.0,0.0,0.0,0.0,0.0,0.0,0.0,0.0,0.0,0.0,0.0,0.0,0.0,4.7131,5.1468,5.2627,5.3108,5.2932,4.7984,4.3899,0.0,0.0,0.0,0.0,0.0,0.0,0.0,0.0,0.0,0.0,0.0,0.0,0.0,0.0,0.0,0.0,0.0,0.0,0.0,0.0,0.0,0.0,0.0,0.0,0.0,0.0,0.0,0.0,0.0,0.0,0.0,0.0,0.0,0.0,0.0,0.0,0.0,0.0,0.0,0.0,0.0,0.0,0.0,0.0,0.0,0.0,0.0,0.0,0.0,0.0,0.0,0.0,0.0,0.0,0.0,0.0,0.0,0.0,0.0,0.0,0.0,0.0,0.0,0.0,0.0,0.0,0.0,0.0,0.0,0.0,0.0,0.0,0.0,0.0,0.0,0.0,0.0,0.0,0.0,0.0,0.0,0.0,0.0,0.0,0.0,0.0,0.0,0.0,0.0,0.0,0.0,0.0,0.0,0.0,0.0,0.0,0.0,0.0,0.0,0.0,0.0,0.0,0.0,0.0,0.0,0.0,0.0,0.0,4.9434,5.4357,5.3628,5.2932,5.2472,4.9161,4.5257,0.0,0.0,0.0,0.0,0.0,0.0,0.0,0.0,0.0,0.0,0.0,0.0,0.0,0.0,0.0,0.0,0.0,0.0,0.0,0.0,0.0,0.0,0.0,0.0,0.0,0.0,0.0,0.0,0.0,0.0,0.0,0.0,0.0,0.0,0.0,0.0,0.0,0.0,0.0,0.0,0.0,0.0,0.0,0.0,0.0,0.0,0.0,0.0,0.0,0.0,0.0,0.0,0.0,0.0,0.0,0.0,0.0,0.0,0.0,0.0,0.0,0.0,0.0,0.0,0.0,0.0,0.0,0.0,0.0,0.0,0.0,0.0,0.0,0.0,0.0,0.0,0.0,0.0,0.0,0.0,0.0,0.0,0.0,0.0,0.0,0.0,0.0,0.0,0.0,0.0,0.0,0.0,0.0,0.0,0.0,0.0,0.0,0.0,0.0,0.0,0.0,0.0,0.0,0.0,0.0,0.0,0.0,0.0,4.915,5.5097,5.3624,5.2534,5.212,5.0025,4.681,0.0,0.0,0.0,0.0,0.0,0.0,0.0,0.0,0.0,0.0,0.0,0.0,0.0,0.0,0.0,0.0,0.0,0.0,0.0,0.0,0.0,0.0,0.0,0.0,0.0,0.0,0.0,0.0,0.0,0.0,0.0,0.0,0.0,0.0,0.0,0.0,0.0,0.0,0.0,0.0,0.0,0.0,0.0,0.0,0.0,0.0,0.0,0.0,4.1454,0.0,0.0,0.0,0.0,0.0,0.0,0.0,0.0,0.0,0.0,0.0,0.0,0.0,0.0,0.0,0.0,0.0,0.0,0.0,0.0,0.0,0.0,0.0,0.0,0.0,0.0,0.0,0.0,0.0,0.0,0.0,0.0,0.0,0.0,0.0,0.0,0.0,0.0,0.0,0.0,0.0,0.0,0.0,0.0,0.0,0.0,0.0,0.0,0.0,0.0,0.0,0.0,0.0,0.0,0.0,0.0,0.0,0.0,0.0,5.0624,5.5322,5.3625,5.2594,5.2539,5.1856,4.8611,0.0,0.0,0.0,0.0,0.0,0.0,0.0,0.0,0.0,0.0,0.0,0.0,0.0,0.0,0.0,0.0,0.0,0.0,0.0,0.0,0.0,0.0,0.0,0.0,0.0,0.0,0.0,0.0,0.0,0.0,0.0,0.0,0.0,0.0,0.0,0.0,0.0,0.0,0.0,0.0,0.0,0.0,0.0,0.0,0.0,0.0,0.0,0.0,0.0,0.0,0.0,0.0,0.0,0.0,0.0,0.0,0.0,0.0,0.0,0.0,0.0,0.0,0.0,0.0,0.0,0.0,0.0,0.0,0.0,0.0,0.0,0.0,0.0,0.0,0.0,0.0,0.0,0.0,0.0,0.0,0.0,0.0,0.0,0.0,0.0,0.0,0.0,0.0,0.0,0.0,0.0,0.0,0.0,0.0,0.0,0.0,0.0,0.0,0.0,0.0,0.0,0.0,0.0,0.0,0.0,0.0,0.0,4.9077,5.2061,5.5276,5.3801,5.2959,5.3032,5.3482,5.0139,4.2712,0.0,0.0,0.0,0.0,0.0,0.0,0.0,0.0,0.0,0.0,0.0,0.0,0.0,0.0,0.0,0.0,0.0,0.0,0.0,0.0,0.0,0.0,0.0,0.0,0.0,0.0,0.0,0.0,0.0,0.0,0.0,0.0,0.0,0.0,0.0,0.0,0.0,0.0,3.887,4.1075,0.0,0.0,0.0,0.0,0.0,0.0,0.0,0.0,4.2469,0.0,0.0,0.0,0.0,0.0,0.0,0.0,0.0,0.0,0.0,0.0,0.0,0.0,0.0,0.0,0.0,0.0,0.0,0.0,0.0,0.0,0.0,0.0,0.0,0.0,0.0,0.0,0.0,0.0,0.0,0.0,0.0,0.0,0.0,0.0,0.0,0.0,0.0,0.0,0.0,0.0,0.0,0.0,0.0,0.0,0.0,0.0,0.0,0.0,0.0,0.0,0.0,0.0,0.0,0.0,0.0,4.8871,4.8825,5.0806,5.4961,5.4454,5.3542,5.2364,5.3,5.0305,4.4052,0.0,0.0,0.0,0.0,0.0,0.0,0.0,0.0,0.0,0.0,0.0,0.0,0.0,0.0,0.0,0.0,0.0,0.0,0.0,0.0,0.0,0.0,0.0,0.0,0.0,0.0,0.0,0.0,0.0,0.0,0.0,0.0,0.0,0.0,0.0,0.0,0.0,0.0,0.0,4.3931,4.4235,0.0,0.0,0.0,0.0,0.0,0.0,0.0,0.0,4.2733,0.0,0.0,0.0,0.0,0.0,0.0,0.0,0.0,0.0,0.0,0.0,0.0,0.0,0.0,0.0,0.0,0.0,0.0,0.0,0.0,0.0,0.0,0.0,0.0,0.0,0.0,0.0,0.0,0.0,0.0,0.0,0.0,0.0,0.0,0.0,0.0,0.0,0.0,0.0,0.0,0.0,0.0,0.0,0.0,0.0,0.0,0.0,0.0,0.0,0.0,0.0,0.0,0.0,0.0,0.0,4.8815,5.159,5.4219,5.6673,5.5404,5.4431,5.3908,5.3674,5.069,0.0,0.0,0.0,0.0,0.0,0.0,0.0,0.0,0.0,0.0,0.0,0.0,0.0,0.0,0.0,0.0,0.0,0.0,0.0,0.0,0.0,0.0,0.0,0.0,0.0,0.0,0.0,0.0,0.0,0.0,0.0,0.0,0.0,0.0,0.0,0.0,0.0,0.0,0.0,0.0,4.4574,4.4878,4.5657,0.0,0.0,0.0,0.0,0.0,0.0,4.3037,4.2665,0.0,0.0,0.0,0.0,0.0,0.0,0.0,0.0,0.0,0.0,0.0,0.0,0.0,0.0,0.0,0.0,0.0,0.0,0.0,0.0,0.0,0.0,0.0,0.0,0.0,0.0,0.0,0.0,0.0,0.0,0.0,0.0,0.0,0.0,0.0,0.0,0.0,0.0,0.0,0.0,0.0,0.0,0.0,0.0,0.0,0.0,0.0,0.0,0.0,0.0,0.0,0.0,0.0,0.0,0.0,4.8536,5.3868,5.7199,5.8129,5.6473,5.5525,5.5591,5.4604,5.1277,0.0,0.0,0.0,0.0,0.0,0.0,0.0,0.0,0.0,0.0,0.0,0.0,0.0,0.0,0.0,0.0,0.0,0.0,0.0,0.0,0.0,0.0,0.0,0.0,0.0,0.0,0.0,0.0,0.0,0.0,0.0,0.0,0.0,0.0,0.0,0.0,0.0,0.0,0.0,0.0,0.0,4.5338,4.6225,4.5481,0.0,0.0,0.0,0.0,4.4194,4.3944,0.0,0.0,0.0,0.0,0.0,0.0,0.0,0.0,0.0,0.0,0.0,0.0,0.0,0.0,0.0,0.0,0.0,0.0,0.0,0.0,0.0,0.0,0.0,0.0,0.0,0.0,0.0,0.0,0.0,0.0,0.0,0.0,0.0,0.0,0.0,0.0,0.0,0.0,0.0,0.0,0.0,0.0,0.0,0.0,0.0,0.0,0.0,0.0,0.0,0.0,0.0,0.0,0.0,0.0,0.0,0.0,4.8768,5.26,5.5512,5.7341,5.7486,5.6926,5.5647,5.5156,5.202,0.0,0.0,0.0,0.0,0.0,0.0,0.0,0.0,0.0,0.0,0.0,0.0,0.0,0.0,0.0,0.0,0.0,0.0,0.0,0.0,0.0,0.0,0.0,0.0,0.0,0.0,0.0,0.0,0.0,0.0,0.0,0.0,0.0,0.0,0.0,0.0,0.0,0.0,0.0,0.0,0.0,4.6123,4.5007,4.527,4.5263,0.0,0.0,4.6515,4.7278,4.7861,0.0,0.0,0.0,0.0,0.0,0.0,0.0,0.0,0.0,0.0,0.0,0.0,0.0,0.0,0.0,0.0,0.0,0.0,0.0,0.0,0.0,0.0,0.0,0.0,0.0,0.0,0.0,0.0,0.0,0.0,0.0,0.0,0.0,0.0,0.0,0.0,0.0,0.0,0.0,0.0,0.0,0.0,0.0,0.0,0.0,0.0,0.0,0.0,0.0,0.0,0.0,0.0,0.0,0.0,0.0,4.6916,4.8959,5.4182,5.7472,5.8576,5.8163,5.749,5.6652,5.6029,5.2556,0.0,0.0,0.0,0.0,0.0,0.0,0.0,0.0,0.0,0.0,0.0,0.0,0.0,0.0,0.0,0.0,0.0,0.0,0.0,0.0,0.0,0.0,0.0,0.0,0.0,0.0,0.0,0.0,0.0,0.0,0.0,0.0,0.0,0.0,0.0,0.0,0.0,0.0,0.0,0.0,0.0,0.0,4.8214,4.7902,0.0,0.0,0.0,4.8485,4.7988,0.0,0.0,0.0,0.0,0.0,0.0,0.0,0.0,0.0,0.0,0.0,0.0,0.0,0.0,0.0,0.0,0.0,0.0,0.0,0.0,0.0,0.0,0.0,0.0,0.0,0.0,0.0,0.0,0.0,0.0,0.0,0.0,0.0,0.0,0.0,0.0,0.0,0.0,0.0,0.0,0.0,0.0,0.0,0.0,0.0,0.0,0.0,0.0,0.0,0.0,0.0,0.0,0.0,0.0,0.0,0.0,0.0,4.8991,5.5578,5.9174,5.9504,5.8579,5.7921,5.7653,5.6824,0.0,0.0,0.0,0.0,0.0,0.0,0.0,0.0,0.0,0.0,0.0,0.0,0.0,0.0,0.0,0.0,0.0,0.0,0.0,0.0,0.0,0.0,0.0,0.0,0.0,0.0,0.0,3.0731,0.0,0.0,0.0,0.0,0.0,0.0,0.0,0.0,0.0,0.0,0.0,0.0,0.0,0.0,4.7928,5.0322,4.9864,4.9357,0.0,0.0,5.0067,4.9146,4.9619,4.9789,0.0,0.0,0.0,0.0,0.0,0.0,0.0,0.0,0.0,0.0,0.0,0.0,0.0,0.0,0.0,0.0,0.0,0.0,0.0,0.0,0.0,0.0,0.0,0.0,0.0,0.0,0.0,0.0,0.0,0.0,0.0,0.0,0.0,0.0,0.0,0.0,0.0,0.0,0.0,0.0,0.0,0.0,0.0,0.0,0.0,0.0,0.0,0.0,0.0,0.0,0.0,0.0,0.0,0.0,0.0,4.9338,5.5657,5.9012,5.9038,5.8667,5.8457,5.8396,5.7361,5.361,0.0,0.0,0.0,0.0,0.0,0.0,0.0,0.0,0.0,0.0,0.0,0.0,0.0,0.0,0.0,0.0,0.0,0.0,0.0,0.0,0.0,0.0,0.0,0.0,0.0,0.0,0.0,0.0,0.0,0.0,0.0,0.0,0.0,0.0,0.0,0.0,0.0,0.0,0.0,0.0,0.0,4.8165,4.9011,4.9669,5.027,0.0,0.0,5.1311,5.1928,5.2664,5.2689,5.1201,0.0,0.0,0.0,0.0,0.0,0.0,0.0,0.0,0.0,0.0,0.0,0.0,0.0,0.0,0.0,0.0,0.0,0.0,0.0,0.0,0.0,0.0,0.0,0.0,0.0,0.0,0.0,0.0,0.0,0.0,0.0,0.0,0.0,0.0,0.0,0.0,0.0,0.0,0.0,0.0,0.0,0.0,0.0,0.0,0.0,0.0,0.0,0.0,0.0,0.0,0.0,0.0,0.0,4.7989,4.8484,5.5171,5.8562,5.8332,5.8189,5.8117,5.8126,5.7701,5.5184,0.0,0.0,0.0,0.0,0.0,0.0,0.0,0.0,0.0,0.0,0.0,0.0,0.0,0.0,0.0,0.0,0.0,0.0,0.0,0.0,0.0,0.0,0.0,0.0,0.0,0.0,0.0,0.0,3.9497,4.0309,4.0567,0.0,0.0,0.0,0.0,0.0,0.0,0.0,0.0,0.0,0.0,5.0533,5.2198,5.2672,0.0,0.0,5.4044,5.4008,5.3816,5.3673,5.3363,5.2785,5.2343,0.0,0.0,0.0,0.0,0.0,0.0,0.0,0.0,0.0,0.0,0.0,0.0,0.0,0.0,0.0,0.0,0.0,0.0,0.0,0.0,0.0,0.0,0.0,0.0,0.0,0.0,0.0,0.0,0.0,0.0,0.0,0.0,0.0,0.0,0.0,0.0,0.0,0.0,0.0,0.0,0.0,0.0,0.0,0.0,0.0,0.0,0.0,0.0,0.0,0.0,0.0,0.0,4.8086,4.8266,5.4873,5.8205,5.79,5.79,5.79,5.79,5.79,5.6131,0.0,0.0,0.0,0.0,0.0,0.0,0.0,0.0,0.0,0.0,0.0,0.0,0.0,0.0,0.0,0.0,0.0,0.0,0.0,0.0,0.0,0.0,0.0,0.0,0.0,0.0,0.0,0.0,4.1853,4.2259,4.2909,0.0,0.0,0.0,0.0,0.0,0.0,0.0,0.0,0.0,0.0,5.2866,5.4659,5.5116,5.5446,5.5969,5.6102,5.5971,5.5393,5.4528,5.386,5.3627,0.0,0.0,0.0,0.0,0.0,0.0,0.0,0.0,0.0,0.0,0.0,0.0,0.0,0.0,0.0,0.0,0.0,0.0,0.0,0.0,0.0,0.0,0.0,0.0,0.0,0.0,0.0,0.0,0.0,0.0,3.7441,0.0,0.0,0.0,0.0,0.0,0.0,0.0,0.0,0.0,0.0,0.0,0.0,0.0,0.0,0.0,0.0,0.0,0.0,0.0,0.0,0.0,0.0,4.8255,4.9052,5.493,5.7934,5.7924,5.79,5.7924,5.7967,5.7891,5.6131,5.2401,0.0,0.0,0.0,0.0,0.0,0.0,0.0,0.0,0.0,0.0,0.0,0.0,0.0,0.0,0.0,0.0,0.0,0.0,0.0,0.0,0.0,0.0,0.0,0.0,0.0,0.0,4.0244,4.0853,4.2191,0.0,0.0,0.0,0.0,0.0,0.0,0.0,0.0,0.0,0.0,5.4059,5.4803,5.5546,5.6308,5.6729,5.6788,5.677,5.677,5.6725,5.5567,5.4443,0.0,0.0,0.0,0.0,0.0,0.0,0.0,0.0,0.0,0.0,0.0,0.0,0.0,0.0,0.0,0.0,0.0,0.0,0.0,0.0,0.0,0.0,0.0,0.0,0.0,0.0,0.0,3.962,3.8574,0.0,0.0,0.0,0.0,0.0,0.0,0.0,0.0,0.0,0.0,0.0,5.2819,5.3455,0.0,0.0,0.0,0.0,0.0,0.0,0.0,0.0,0.0,0.0,0.0,0.0,4.9011,4.9965,5.6089,5.937,5.9379,5.937,5.937,5.937,5.8896,5.6621,5.2435,0.0,0.0,0.0,0.0,0.0,0.0,0.0,0.0,0.0,0.0,0.0,0.0,0.0,0.0,0.0,0.0,0.0,0.0,0.0,0.0,0.0,0.0,0.0,0.0,0.0,4.3362,0.0,0.0,0.0,0.0,0.0,0.0,0.0,0.0,0.0,0.0,0.0,5.3086,5.4101,5.4862,5.5625,5.6395,5.6698,5.7058,0.0,0.0,0.0,0.0,0.0,0.0,0.0,0.0,0.0,0.0,0.0,0.0,0.0,0.0,4.9457,4.8007,4.7643,4.7679,4.7908,0.0,0.0,0.0,0.0,0.0,0.0,0.0,0.0,0.0,0.0,0.0,0.0,0.0,0.0,4.3106,0.0,4.1935,0.0,0.0,0.0,0.0,0.0,0.0,0.0,0.0,5.2154,5.4107,5.529,5.5766,5.5766,0.0,5.5553,5.3474,0.0,0.0,0.0,0.0,0.0,0.0,0.0,0.0,5.0777,5.2198,5.734,6.008,6.008,6.008,6.008,6.008,5.9631,5.7863,5.4727,5.2934,5.0871,0.0,0.0,0.0,0.0,0.0,0.0,0.0,0.0,0.0,0.0,0.0,0.0,0.0,0.0,0.0,0.0,0.0,0.0,0.0,0.0,0.0,0.0,0.0,4.6299,0.0,0.0,0.0,0.0,0.0,0.0,0.0,0.0,0.0,5.0668,5.3154,5.5209,5.5699,5.6175,5.6795,5.7557,0.0,0.0,0.0,0.0,0.0,0.0,0.0,5.5803,5.6114,5.5153,5.4435,5.4668,5.4164,5.367,5.3607,0.0,0.0,5.1391,5.0954,5.0986,5.1235,5.1848,5.2315,5.2297,5.2564,5.2774,0.0,0.0,0.0,0.0,0.0,0.0,0.0,0.0,4.9389,4.8866,0.0,4.6016,0.0,0.0,0.0,0.0,0.0,4.8141,0.0,0.0,5.559,5.7137,5.7857,5.79,5.7934,5.8026,5.8626,5.822,5.6639,5.3196,0.0,0.0,0.0,0.0,0.0,0.0,5.3509,5.5656,5.8693,6.0182,6.0216,6.0216,6.0182,6.0148,6.0148,5.9766,5.8912,5.5606,5.2968,5.1277,4.4451,0.0,0.0,0.0,0.0,0.0,0.0,0.0,0.0,0.0,0.0,0.0,0.0,0.0,0.0,0.0,0.0,0.0,0.0,0.0,0.0,4.7567,0.0,0.0,0.0,0.0,0.0,0.0,0.0,0.0,0.0,0.0,5.3898,5.5015,5.6441,5.7775,0.0,0.0,0.0,0.0,5.9157,5.9127,5.9137,5.9116,5.9085,5.7904,5.6882,5.6478,0.0,0.0,5.5757,5.54,5.5085,5.4964,5.4994,5.4803,5.348,5.2719,5.266,5.3645,5.3513,5.3651,5.4588,5.4863,5.5075,5.4316,0.0,0.0,0.0,0.0,4.9406,4.9396,4.9797,4.9887,4.9408,4.8578,4.8474,0.0,0.0,0.0,0.0,0.0,0.0,5.13,5.3518,5.471,5.6427,5.865,5.8684,5.8964,5.9471,5.9674,5.9573,5.9133,5.8075,5.4964,5.0051,0.0,0.0,0.0,0.0,5.5843,5.6655,5.9945,6.1748,6.1748,6.1748,6.1501,6.095,6.095,6.0578,5.981,5.8761,5.6519,5.3002,5.027,0.0,0.0,0.0,0.0,0.0,0.0,0.0,0.0,0.0,0.0,0.0,0.0,0.0,0.0,0.0,0.0,0.0,0.0,0.0,4.8898,4.9886,5.0001,0.0,0.0,0.0,0.0,0.0,0.0,0.0,0.0,0.0,5.6686,5.7986,5.9028,0.0,0.0,5.8898,5.9128,5.8773,5.8364,5.8017,5.7998,0.0,5.7483,5.6695,5.6206,5.6555,5.6305,5.5902,5.5416,5.526,5.517,5.5123,5.5173,5.5059,5.4713,5.4473,5.4463,5.4755,5.471,5.472,5.5055,5.552,5.5923,5.6667,5.3514,5.2942,5.266,5.2572,5.1993,5.2256,5.3072,5.3159,5.286,5.2304,5.1893,5.1031,4.9857,4.9782,0.0,0.0,0.0,5.3687,5.6147,5.6571,5.7721,5.9351,5.9428,5.9665,6.0114,6.0419,6.0588,6.0578,6.0858,5.8896,5.4862,0.0,0.0,5.3103,5.608,5.8109,5.9066,6.125,6.2424,6.2424,6.2424,6.2188,6.1772,6.1748,6.1366,6.0622,6.0588,5.9201,5.6249,5.4262,5.2091,0.0,0.0,0.0,0.0,0.0,0.0,0.0,0.0,0.0,0.0,0.0,4.2694,4.386,0.0,0.0,0.0,4.7618,4.9417,5.1753,5.2177,0.0,0.0,0.0,0.0,0.0,0.0,0.0,5.689,5.7179,5.7421,5.8064,5.9321,6.0087,5.9797,5.92,5.8881,5.9209,0.0,5.8144,5.7855,5.7637,5.7401,5.7072,5.6493,5.6173,5.6347,5.5985,5.5671,5.564,5.5581,5.5671,5.588,5.597,5.5927,5.597,5.5957,5.588,5.5641,5.5581,5.5671,5.591,5.6256,5.6581,5.7992,5.7905,5.6648,5.5971,5.5632,5.5094,5.6005,5.7866,5.7866,5.79,5.7755,5.5827,5.4609,5.3915,5.1834,0.0,5.5082,5.5741,5.75,6.008,6.008,6.0114,6.0216,6.0182,6.0206,6.0283,6.1028,6.139,6.1434,6.2042,6.167,6.0283,5.893,5.8524,5.9056,5.9191,6.0317,6.2323,6.2391,6.2424,6.2424,6.2424,6.2424,6.2391,6.2424,6.2086,6.1434,6.139,6.1018,6.0148,5.6968,5.4794,5.3935,0.0,0.0,0.0,0.0,0.0,0.0,0.0,0.0,0.0,0.0,0.0,0.0,0.0,0.0,0.0,5.21,0.0,5.4692,5.4199,0.0,0.0,0.0,5.4052,5.4978,5.5628,5.6098,5.6293,0.0,0.0,5.8442,5.9361,5.9848,5.9217,5.8679,5.8596,5.9227,5.8751,5.83,5.8228,5.7848,5.754,5.7394,5.7007,5.658,5.6179,5.5656,5.5679,5.6162,5.6282,5.6509,5.6915,5.7094,5.7064,5.7094,5.7004,5.6958,5.6551,5.6342,5.6432,5.6898,5.7154,5.7334,5.8752,5.8746,5.8975,5.8393,5.7328,5.7159,5.7417,5.79,5.79,5.79,5.79,5.7949,5.8177,5.849,5.7983,5.8118,5.8795,5.8998,5.9438,6.008,6.008,6.0419,6.1028,6.1028,6.1298,6.1849,6.2052,6.2154,6.2154,6.2323,6.2221,6.1849,6.1511,6.0834,5.9902,6.0994,6.1849,6.2391,6.2424,6.2424,6.2424,6.2424,6.2424,6.2424,6.2424,6.2289,6.2154,6.212,6.1806,6.1061,6.0182,5.9121,5.78,5.2422,0.0,0.0,0.0,0.0,0.0,0.0,0.0,0.0,0.0,4.8677,4.9825,0.0,5.1592,0.0,5.477,5.5205,5.4838,5.4695,0.0,0.0,5.5004,5.5303,5.7236,5.7065,5.7461,5.9077,5.8848,5.8649,5.9018,5.8519,5.8303,5.8595,5.8892,5.9144,5.9395,5.8892,5.8337,5.8066,5.7897,5.7656,5.7278,5.7092,5.6959,5.6822,5.6706,5.6718,5.6868,5.6868,5.6928,5.7077,5.7094,5.7094,5.7184,5.7094,5.7513,5.8112,5.7616,5.6928,5.7077,5.7902,5.862,5.9496,5.953,5.9945,5.9235,5.7924,5.8601,5.8863,5.8872,5.8872,5.8872,5.8896,5.9327,5.9699,6.008,6.008,6.0283,6.0622,6.0655,6.0825,6.1139,6.1139,6.1376,6.1782,6.1806,6.2018,6.2391,6.2424,6.2424,6.2424,6.2729,6.2888,6.2888,6.3226,6.2956,6.2144,6.2279,6.2424,6.2424,6.2424,6.2424,6.2424,6.2424,6.2255,6.1941,6.2221,6.2255,6.1907,6.2221,6.2076,6.1366,6.096,6.0274,5.915,5.5496,5.3818,0.0,0.0,0.0,0.0,0.0,0.0,0.0,0.0,0.0,0.0,0.0,5.3104,5.4385,5.5092,5.5463,5.548,5.5559,5.5911,5.661,5.6498,5.6777,5.7835,5.7543,5.7731,5.8902,5.82,5.7711,5.8096,5.757,5.738,5.8062,5.8401,5.8719,5.9039,5.8804,5.8511,5.8285,5.8054,5.7721,5.7185,5.7094,5.7094,5.7094,5.7094,5.7274,5.7872,5.7992,5.8185,5.871,5.889,5.889,5.889,5.8876,5.9159,5.9594,5.9415,5.8949,5.889,5.9488,5.9983,6.025,6.025,6.0351,5.9684,5.8567,5.9853,6.008,5.9539,5.9539,5.9708,5.9979,6.0191,6.0317,6.0394,6.0394,6.0757,6.1434,6.1434,6.1782,6.2391,6.2424,6.2424,6.2424,6.2492,6.256,6.255,6.2637,6.2695,6.2729,6.3318,6.3646,6.369,6.4275,6.4613,6.4546,6.3294,6.2695,6.2695,6.2594,6.2526,6.2526,6.2458,6.2086,6.1492,6.2052,6.2086,6.1501,6.2052,6.2047,6.1351,6.0623,5.9893,5.9116,5.7704,5.6216,0.0,5.3036,0.0,0.0,0.0,0.0,0.0,0.0,0.0,0.0,5.4815,5.4938,5.4019,5.4507,5.5264,5.6266,5.6466,5.6766,5.7331,5.7813,5.7895,5.7441,5.7413,5.7444,5.7537,5.71,5.6841,5.7056,5.6885,5.7113,5.793,5.8065,5.8372,5.8909,5.8978,5.8917,5.8879,5.8562,5.8423,5.7978,5.7752,5.7752,5.7693,5.7812,5.8022,5.9175,5.9355,5.9714,6.0701,6.091,6.097,6.109,6.103,6.106,6.1134,6.109,6.103,6.094,6.103,6.1224,6.1086,6.1119,6.1714,6.1815,6.1579,6.1849,5.9877,5.6544,5.6544,5.7525,5.9284,6.0511,6.1409,6.1951,6.1985,6.2052,6.2188,6.2188,6.2255,6.2424,6.2424,6.2424,6.2458,6.3024,6.3284,6.3318,6.3893,6.4174,6.4174,6.4343,6.44,6.441,6.4546,6.4613,6.458,0.0,0.0,0.0,6.3589,6.3284,6.3284,6.2719,6.2323,6.2221,6.2323,0.0,6.2221,6.2323,6.2043,6.1354,6.1156,0.0,0.0,0.0,0.0,0.0,0.0,0.0,0.0,0.0,0.0,0.0,5.2547,5.2927,5.3683,5.5352,5.5651,5.3929,5.5251,5.6371,5.6586,5.6638,5.6721,5.6826,5.6952,5.6952,5.6856,5.6844,5.706,5.7604,5.758,5.7722,5.8158,5.7967,5.8128,5.9166,5.9116,5.9362,6.0445,6.0038,5.9724,5.9804,6.0076,6.0376,6.0356,6.0222,6.0073,6.0342,6.0342,6.0372,6.0581,6.0687,6.0701,6.115,6.109,6.115,6.115,6.109,6.1343,6.1792,6.1912,6.1762,6.1239,6.1539,6.1912,6.1839,6.1873,6.2255,6.1985,0.0,6.1274,5.9548,5.69,5.8346,5.9641,6.0723,6.1501,6.2052,6.2357,6.1603,6.1274,6.124,6.0496,6.08,6.1849,6.1849,6.2415,6.3497,6.3859,6.4062,6.4062,6.441,6.4613,6.4613,6.4962,6.5165,6.5165,6.5483,6.5686,6.5686,6.5686,6.5324,6.4613,6.4231,6.4028,6.4028,6.37,6.3304,6.299,6.3294,0.0,0.0,0.0,0.0,0.0,0.0,0.0,0.0,0.0,0.0,5.5507,5.4044,5.3169,5.3169,5.2948,5.3143,5.3905,5.3983,5.4183,5.4699,5.5718,5.5871,5.4857,5.5518,5.6029,5.6274,5.6311,5.6311,5.6323,5.6849,5.7095,5.688,5.7112,5.7557,5.8143,5.8062,5.8156,5.8824,5.8662,5.89,5.9804,5.9768,5.9967,6.0848,6.0756,6.0511,6.0577,6.0821,6.109,6.109,6.109,6.112,6.109,6.109,6.1239,6.1523,6.1613,6.1702,6.2002,6.2091,6.2091,6.2106,6.2091,6.2195,6.248,6.257,6.2525,6.2151,6.2375,6.2584,6.2424,6.2424,6.2424,6.167,6.052,6.0486,5.9877,5.9041,0.0,0.0,0.0,6.2289,6.2492,6.2492,6.1264,6.0757,6.0825,5.965,6.008,6.1873,6.1864,6.2854,6.458,6.4715,6.4783,6.4816,6.4908,6.4986,6.5019,6.573,6.6089,6.618,6.6836,6.7208,6.7208,6.7208,6.6633,6.5459,6.4986,6.4816,6.4783,6.4647,6.4309,6.3724,6.4275,6.3954,6.2652,6.3181,6.2548,6.0556,5.9832,5.9124,5.8309,5.7188,5.6809,5.7332,5.6494,5.6012,5.609,5.5761,5.5521,5.5551,5.5431,5.5501,5.5763,5.5769,5.5769,5.5769,5.5521,5.5548,5.5901,5.6072,5.6133,5.6133,5.7097,5.7568,5.7074,5.7651,5.8334,5.8766,5.8674,5.8697,5.9395,5.9499,5.9697,6.028,6.0533,6.0685,6.1239,6.1387,6.1311,6.1493,6.1613,6.1509,6.1479,6.1509,6.1449,6.1553,6.1509,6.1672,6.2106,6.2271,6.2495,6.2884,6.3108,6.3048,6.3063,6.3123,6.3243,6.3287,6.3363,6.3452,6.3452,6.3452,6.3422,6.2424,6.2424,6.2424,6.2289,6.2096,6.2086,6.2313,6.2574,6.1095,6.0419,6.052,6.1815,6.2753,6.3352,6.3105,6.3342,6.3937,6.3734,6.3835,6.414,6.414,6.4309,6.4613,6.5233,6.5537,6.5605,6.617,6.6497,6.6565,6.7218,6.759,6.7658,6.8368,6.8774,6.8764,6.8764,6.8673,6.8436,6.6552,6.5537,6.5547,6.4918,6.4546,6.4444,6.4536,6.4226,6.3385,6.3454,6.2801,6.1313,6.1126,6.0337,5.8732,5.7972,5.7457,5.7157,5.6535,5.6385,5.6882,5.6877,5.6825,5.6808,5.6359,5.5858,5.5352,5.5292,5.5305,5.5335,5.5781,5.6098,5.6188,5.6608,5.6908,5.6968,5.7607,5.7787,5.7251,5.8228,5.9037,5.9217,5.9556,6.0057,6.0671,6.0821,6.103,6.1613,6.1702,6.2016,6.2421,6.2315,6.2255,6.2674,6.2824,6.2824,6.2674,6.2808,6.2704,6.2794,6.2734,6.2704,6.2838,6.2884,6.2958,6.3108,6.3168,6.3153,6.3183,6.3528,6.3797,6.3917,6.4246,6.459,6.459,6.462,6.453,6.3609,6.3599,6.3599,6.3599,6.3609,6.3609,6.3768,6.3994,6.299,6.255,6.2618,6.3304,6.3778,6.3994,6.326,6.3091,6.3372,6.255,6.2811,6.3961,6.4005,6.4637,6.5797,6.6542,6.688,6.6958,6.7692,6.8053,6.8053,6.8402,6.8538,6.8571,6.8944,6.9079,6.9079,6.9079,6.9079,6.9079,6.7624,6.6891,6.6891,6.6159,6.5787,6.5777,6.5409,6.4858,6.4137,6.3715,6.2845,6.1455,6.109,6.0353,5.9216,5.8329,5.7745,5.7519,5.6993,5.6808,5.7064,5.7094,5.7094,5.7094,5.6838,5.6568,5.6256,5.591,5.588,5.6209,5.6509,5.6688,5.6688,5.7274,5.7513,5.7137,5.8321,5.889,5.8471,5.9368,6.0326,6.0685,6.0984,6.1447,6.2106,6.2195,6.2255,6.2614,6.2644,6.2808,6.3063,6.2854,6.2734,6.3048,6.3108,6.3108,6.3108,6.3108,6.3108,6.3108,6.3108,6.3108,6.3108,6.3108,6.3257,6.3512,6.3572,6.3737,6.3992,6.4321,6.45,6.456,6.474,6.4994,6.5024,6.5278,6.5278,6.4613,6.4613,6.4613,6.4613,6.4613,6.4613,6.4681,6.485,6.4816,6.4952,6.5043,6.4783,6.4681,6.4725,6.3642,6.3348,6.3439,6.2424,6.2912,6.4627,6.4772,6.5686,6.7242,6.7929,6.8166,6.8233,6.8808,6.9079,6.9113,6.9248,6.9417,6.9586,6.9575,6.9586,6.9609,6.9421,6.9344,6.9266,6.837,6.7889,6.7884,6.7334,6.6921,6.6537,6.6013,6.5282,6.441,6.3819,6.2851,6.1529,6.0995,6.0374,5.9613,5.869,5.8165,5.8131,5.7646,5.7483,5.7752,5.7932,5.7945,5.7796,5.7646,5.7543,5.7513,5.6987,5.6748,5.7077,5.7214,5.732,5.7453,5.8112,5.8338,5.7945,5.9412,6.0236,5.9774,6.0745,6.1642,6.2076,6.2211,6.251,6.2958,6.3108,6.3123,6.3243,6.3303,6.3333,6.3468,6.3528,6.3528,6.3452,6.3303,6.3108,6.3108,6.3243,6.3317,6.3303,6.3482,6.3632,6.3632,6.3572,6.3692,6.4126,6.4246,6.4395,6.4859,6.5114,6.5203,6.5248,6.5413,6.5547,6.5607,6.5906,6.6011,6.4613,6.4613,6.4681,6.4613,6.4681,6.4681,6.5053,6.5605,6.5615,6.6,6.6464,6.5212,6.5053,6.5537,6.5469,6.6045,6.7184,6.7218,6.7557,6.8335,6.8571,6.8707,6.8797,6.8944,6.9,6.8956,6.9069,6.9127,6.9117,6.9712,7.0399,7.103,7.1097,7.0974,7.0963,7.0315,6.9946,6.998,6.8548,6.7831,6.7901,6.7835,6.7174,6.5861,6.5747,6.5015,6.372,6.3526,6.2908,6.1721,6.1533,6.0983,5.9997,5.9262,5.8957,5.8951,5.8394,5.8517,5.9681,6.0372,6.0342,5.9847,5.9219,5.889,5.886,5.8308,5.7693,5.7483,5.7739,5.8068,5.8085,5.9159,5.9831,5.9727,6.0968,6.1672,6.115,6.2091,6.2704,6.2135,6.2644,6.3048,6.3138,6.3227,6.3393,6.3857,6.3947,6.4096,6.45,6.4605,6.465,6.453,6.3917,6.3287,6.3273,6.3588,6.3857,6.3991,6.4411,6.462,6.462,6.465,6.4859,6.48,6.4919,6.4979,6.5218,6.5443,6.5906,6.5966,6.6265,6.6729,6.6805,6.6789,6.658,6.5889,6.5899,6.5889,6.6159,6.6542,6.6542,6.6981,6.7692,6.7692,6.7895,6.8053,6.7512,6.7184,6.706,6.75,6.8064,6.8594,6.8594,6.8774,6.9079,6.9079,6.9079,6.9147,6.9563,6.9523,6.9144,6.9467,6.944,6.9114,6.9277,6.9587,6.9817,6.9568,6.9556,6.9815,6.9256,6.9054,6.9352,6.8767,6.8254,6.783,6.7403,6.6741,6.5854,6.5332,6.4698,6.3765,6.3299,6.2775,6.2261,6.1963,6.1565,6.1109,6.0529,6.0243,6.0266,6.0043,6.0103,6.0655,6.094,6.0821,6.0146,6.0236,6.0146,5.9727,5.9774,5.9744,5.9534,5.9355,5.9428,5.9863,6.0715,6.1134,6.0954,6.1882,6.2435,6.1792,6.2525,6.2974,6.2764,6.3243,6.3632,6.3692,6.3977,6.4291,6.456,6.459,6.477,6.4994,6.4994,6.4994,6.4934,6.453,6.4306,6.4201,6.4366,6.456,6.465,6.48,6.4994,6.5054,6.4994,6.5084,6.5488,6.5577,6.5787,6.6221,6.6311,6.658,6.661,6.667,6.6999,6.6999,6.6999,6.6849,6.7434,6.7411,6.7444,6.7749,6.8233,6.8233,6.8571,6.9045,6.9079,6.9079,6.9113,6.9316,6.9079,6.8639,6.8944,6.9214,6.9383,6.9383,6.9519,6.9655,6.9489,6.9379,6.9435,6.9636,6.9563,6.9132,6.9481,6.94,6.8712,6.8502,6.842,6.8371,6.8229,6.8197,6.8346,6.7971,6.7858,6.8034,6.7896,6.751,6.6951,6.6452,6.596,6.5481,6.4824,6.4151,6.3516,6.2999,6.263,6.2482,6.2106,6.1819,6.1671,6.1313,6.109,6.112,6.1299,6.1359,6.1359,6.1553,6.1373,6.0789,6.1134,6.109,6.0625,6.0835,6.118,6.1269,6.0938,6.0835,6.106,6.1688,6.1852,6.1523,6.2435,6.2884,6.269,6.3093,6.3452,6.3617,6.4022,6.4276,6.4321,6.465,6.4994,6.5218,6.5278,6.5383,6.5518,6.5607,6.5607,6.5547,6.5547,6.5368,6.5114,6.5188,6.5248,6.5338,6.5428,6.5667,6.5547,6.5577,6.5607,6.6221,6.6251,6.634,6.661,6.6849,6.6984,6.6969,6.6999,6.7089,6.7328,6.7148,6.7208,6.9011,6.8977,6.8977,6.8977,6.9045,6.9045,6.9068,6.9248,6.918,6.9147,6.9282,6.9868,7.0139,7.0037,6.9485,6.9519,7.0071,7.0139,7.05,7.0963,7.0371,7.0056,7.0031,6.931,6.8936,6.874,6.8875,6.8613,6.8079,6.7535,6.7286,6.7286,6.7656,6.7712,6.7273,6.6963,6.6669,6.623,6.562,6.5081,6.5043,6.4978,6.4874,6.4715,6.4172,6.3553,6.2891,6.2741,6.2472,6.1973,6.1965,6.1717,6.1276,6.1178,6.118,6.1239,6.1732,6.2061,6.2135,6.2584,6.2614,6.2091,6.1972,6.1762,6.115,6.1224,6.1539,6.2032,6.2061,6.1822,6.1509,6.2032,6.2241,6.2225,6.2734,6.3363,6.3857,6.3887,6.4276,6.4665,6.4874,6.5009,6.5009,6.4964,6.5383,6.5787,6.5936,6.6116,6.658,6.6789,6.6759,6.6729,6.667,6.646,6.5383,6.5577,6.5906,6.5996,6.6281,6.6729,6.6894,6.6924,6.6894,6.6849,6.6789,6.6819,6.6939,6.6999,6.6999,6.6999,6.6999,6.7119,6.7373,6.7224,6.7284,6.9079,6.9079,6.9079,6.935,6.9789,6.98,7.006,7.0522,7.0522,7.0522,7.0556,7.0804,7.0906,7.0894,7.0624,7.0624,7.0894,7.0906,7.103,7.121,7.0469,6.9888,6.9478,6.9098,6.8391,6.7751,6.8018,6.7606,6.6583,6.5969,6.5656,6.5602,6.5498,6.5454,6.5535,6.52,6.5039,6.5173,6.4916,6.4809,6.4726,6.4421,6.4187,6.4184,6.3973,6.3603,6.2982,6.2954,6.2855,6.2688,6.2688,6.2588,6.2403,6.2361,6.2361,6.2391,6.2614,6.2734,6.2764,6.2958,6.2824,6.2225,6.2525,6.245,6.1972,6.2121,6.2644,6.3139,6.3318,6.3304,6.3543,6.3468,6.3333,6.3393,6.3887,6.4351,6.456,6.4635,6.474,6.4994,6.5353,6.5787,6.6086,6.6281,6.637,6.658,6.664,6.6745,6.6879,6.6999,6.6999,6.6999,6.6969,6.6849,6.646,6.643,6.664,6.667,6.6849,6.6879,6.6969,6.6999,6.6939,6.6909,6.6969,6.6999,6.6999,6.6999,6.6999,6.6999,6.6999,6.7089,6.7284,6.7025,6.7176,6.9823,6.9812,6.9823,7.0094,7.0534,7.0567,7.0838,7.13,7.1289,7.1289,7.1289,7.1289,7.1289,7.1289,7.1289,7.1143,7.0939,7.0905,7.0916,7.0813,6.9872,6.9147,6.8691,6.8142,6.7395,6.6609,6.6509,6.6018,6.5153,6.4549,6.4239,6.4197,6.3989,6.4003,6.4186,6.4003,6.4043,6.427,6.4225,6.4225,6.4214,6.3862,6.3665,6.3635,6.3635,6.348,6.3122,6.3108,6.3108,6.3108,6.3108,6.3108,6.3108,6.3108,6.3108,6.3108,6.3108,6.3108,6.3108,6.3108,6.2914,6.2495,6.2824,6.2914,6.275,6.3123,6.3662,6.4156,6.4321,6.456,6.4815,6.477,6.4575,6.4411,6.4725,6.5084,6.5308,6.5308,6.5458,6.5697,6.6056,6.652,6.6879,6.6939,6.6969,6.6999,6.6999,6.6999,6.6999,6.6999,6.6999,6.6999,6.6999,6.6999,6.6789,6.6789,6.6849,6.6909,6.6909,6.6969,6.6999,6.6999,6.6999,6.6999,6.6999,6.6999,6.6999,6.6999,6.6999,6.6999,6.7029,6.7104,6.701,6.6794,6.6831,7.1233,7.1165,7.1255,7.1154,7.1199,7.1199,7.1255,7.13,7.1289,7.1289,7.1289,7.1289,7.1289,7.1278,7.1109,7.0768,7.0191,6.9876,6.9853,6.9862,6.8518,6.779,6.7612,6.6496,6.5987,6.578,6.4652,6.415,6.4228,6.3762,6.3461,6.3371,6.383,6.3818,6.321,6.3699,6.3652,6.3351,6.3295,6.3193,6.3122,6.3194,6.3194,6.318,6.318,6.3151,6.3108,6.3108,6.3108,6.3108,6.3108,6.3108,6.3108,6.3108,6.3108,6.3108,6.3108,6.3108,6.3108,6.3138,6.3213,6.3123,6.3153,6.3482,6.3857,6.3977,6.4306,6.4859,6.4994,6.5084,6.5203,6.5607,6.5637,6.5144,6.5174,6.5473,6.5847,6.5996,6.6251,6.67,6.6879,6.6969,6.6999,6.6999,6.6999,6.6999,6.6999,6.6999,6.6999,6.6999,6.6999,6.6999,6.6999,6.6999,6.6999,6.6999,6.6969,6.6999,6.6969,6.6999,6.6999,6.6999,6.6999,6.6999,6.6999,6.6999,6.6999,6.6999,6.6999,6.6999,6.7074,6.6889,6.6609,6.6355,6.6161,7.1289,7.1289,7.1289,7.1289,7.1289,7.1289,7.1289,7.1289,7.1289,7.1289,7.1289,7.1289,7.1289,7.1041,7.0333,6.9704,6.937,6.8089,6.7808,6.8341,6.7221,6.6349,6.5929,6.5367,6.5318,6.5659,6.5458,6.5269,6.5109,6.4645,6.4411,6.447,6.4572,6.4332,6.3766,6.3852,6.3687,6.3166,6.3108,6.3108,6.3108,6.3108,6.3108,6.3108,6.3108,6.3108,6.3108,6.3108,6.3108,6.3108,6.3108,6.3108,6.3108,6.3108,6.3108,6.3108,6.3108,6.3108,6.3168,6.3482,6.3707,6.3797,6.4126,6.4441,6.4635,6.471,6.4979,6.5577,6.5697,6.5847,6.6311,6.655,6.637,6.5787,6.6101,6.637,6.655,6.664,6.6775,6.6909,6.6999,6.6999,6.6999,6.6999,6.6999,6.6999,6.6999,6.6999,6.6999,6.6999,6.6999,6.6999,6.6999,6.6999,6.6999,6.6999,6.6999,6.6999,6.6999,6.6999,6.6999,6.6999,6.6999,6.6999,6.6999,6.6999,6.6999,6.6846,6.6769,6.66,6.6352,6.6207,6.6106,6.5701,6.5203,7.1289,7.1289,7.1289,7.1289,7.1289,7.1289,7.1289,7.1289,7.1289,7.1165,7.1018,7.0984,7.0927,7.0515,6.9475,6.8781,6.8313,6.6483,6.5959,6.6441,6.5991,6.5318,6.4967,6.4612,6.4676,6.5045,6.5155,6.5343,6.5541,6.5202,6.4994,6.4994,6.4994,6.48,6.4381,6.4351,6.4156,6.3827,6.3602,6.3422,6.3393,6.3227,6.3108,6.3108,6.3108,6.3213,6.3393,6.3213,6.3108,6.3108,6.3108,6.3108,6.3108,6.3108,6.3183,6.3393,6.3452,6.3542,6.3797,6.4186,6.4366,6.4441,6.4755,6.5114,6.5263,6.5353,6.5667,6.6251,6.637,6.655,6.6879,6.6999,6.6789,6.643,6.67,6.6969,6.6999,6.6999,6.6969,6.6999,6.6999,6.6999,6.6999,6.6999,6.6999,6.6999,6.6999,6.6999,6.6999,6.6999,6.6999,6.6999,6.6999,6.6999,6.6999,6.6999,6.6999,6.6999,6.6999,6.6999,6.6999,6.6999,6.6999,6.6999,6.6999,6.6999,6.6983,6.6429,6.6151,6.5917,6.559,6.5174,6.4846,6.4062,6.3527,7.1289,7.1289,7.1289,7.1289,7.1289,7.1289,7.1289,7.1289,7.1289,7.0961,7.0515,7.0399,7.0108,6.9517,6.8457,6.7706,6.6989,6.5598,6.4582,6.4421,6.4421,6.4602,6.449,6.4164,6.4132,6.4166,6.4304,6.4589,6.5098,6.5263,6.5084,6.5144,6.5233,6.5129,6.5084,6.5069,6.4964,6.477,6.4306,6.4066,6.4036,6.3558,6.3317,6.3347,6.3377,6.3572,6.3917,6.3662,6.3303,6.3197,6.3317,6.3393,6.3287,6.3227,6.3572,6.4036,6.4066,6.4366,6.48,6.4964,6.5069,6.5054,6.5218,6.5368,6.5936,6.6056,6.6251,6.6789,6.6879,6.6939,6.6969,6.6999,6.6984,6.6969,6.6969,6.6999,6.6999,6.6999,6.6999,6.6999,6.6999,6.6999,6.6999,6.6999,6.6999,6.6999,6.6999,6.6999,6.6999,6.6999,6.6999,6.6999,6.6999,6.6999,6.6999,6.6999,6.6999,6.6999,6.6999,6.6999,6.6999,6.6999,6.6999,6.6999,6.6922,6.6937,6.6661,6.6058,6.5511,6.5179,6.4701,6.4102,6.3467,6.2813,6.2315,7.1289,7.1289,7.1289,7.1289,7.1289,7.1289,7.1289,7.1289,7.1267,7.0551,6.9749,6.9549,6.8879,6.7826,6.6619,6.5866,6.5485,6.4368,6.3564,6.3365,6.3437,6.3537,6.3657,6.3875,6.3972,6.4111,6.4814,6.5308,6.5114,6.5877,6.6131,6.5787,6.6146,6.6146,6.5817,6.5757,6.5458,6.5054,6.4874,6.474,6.471,6.456,6.45,6.45,6.447,6.453,6.4725,6.459,6.4246,6.3857,6.4276,6.45,6.4411,6.4425,6.4515,6.468,6.474,6.48,6.5069,6.5488,6.5727,6.5787,6.6101,6.655,6.6715,6.6729,6.6819,6.6999,6.6999,6.6999,6.6999,6.6999,6.6999,6.6999,6.6999,6.6999,6.6999,6.6999,6.6999,6.6999,6.6999,6.6999,6.6999,6.6999,6.6999,6.6999,6.6999,6.6999,6.6999,6.6999,6.6999,6.6999,6.6999,6.6999,6.6999,6.6999,6.6999,6.6999,6.6999,6.6999,6.6999,6.6999,6.6999,6.6999,6.6708,6.6646,6.6105,6.5495,6.502,6.4332,6.3537,6.2825,6.2476,6.1957,6.1529,7.1289,7.1289,7.1289,7.1289,7.1289,7.1289,7.112,7.079,7.0493,6.9666,6.856,6.8094,6.7464,6.6449,6.5598,6.5189,6.507,6.4287,6.3961,6.3931,6.399,6.3661,6.3362,6.3512,6.3752,6.4066,6.4784,6.5039,6.5174,6.6086,6.6295,6.6176,6.667,6.6775,6.646,6.643,6.6251,6.5877,6.5607,6.5428,6.5413,6.5114,6.4994,6.4994,6.4994,6.4994,6.5024,6.5518,6.5398,6.474,6.48,6.4994,6.4994,6.4994,6.5129,6.5353,6.5413,6.5518,6.5862,6.6221,6.64,6.646,6.6819,6.6939,6.6969,6.6999,6.6999,6.6999,6.6999,6.6999,6.6999,6.6999,6.6999,6.6999,6.6999,6.6999,6.6999,6.6999,6.6999,6.6999,6.6999,6.6999,6.6999,6.6999,6.6999,6.6999,6.6999,6.6999,6.6999,6.6999,6.6999,6.6999,6.6999,6.6999,6.6999,6.6999,6.6999,6.6999,6.6754,6.68,6.68,6.6785,6.6646,6.6553,6.6445,6.6058,6.5274,6.4509,6.3753,6.3011,6.2198,6.1772,6.1502,6.1468,6.1012,7.1289,7.1289,7.1289,7.1267,7.1188,7.1176,7.0706,7.0042,6.9535,6.8576,6.7489,6.676,6.6359,6.5534,6.5351,6.5236,6.5254,6.4914,6.4918,6.4829,6.477,6.4351,6.3588,6.3602,6.3827,6.4216,6.4186,6.4605,6.5159,6.5787,6.6056,6.6176,6.667,6.6969,6.6879,6.6939,6.6969,6.6759,6.634,6.6131,6.6026,6.5697,6.5473,6.5458,6.5458,6.5428,6.5637,6.6191,6.637,6.5278,6.5218,6.5338,6.5308,6.5278,6.5518,6.5966,6.6131,6.634,6.6805,6.6849,6.6954,6.6939,6.6939,6.6999,6.6999,6.6999,6.6999,6.6999,6.6999,6.6999,6.6999,6.6999,6.6999,6.6999,6.6999,6.6999,6.6999,6.6999,6.6999,6.6999,6.6999,6.6999,6.6999,6.6999,6.6999,6.6999,6.6999,6.6999,6.6999,6.6999,6.6999,6.6999,6.6999,6.6999,6.6999,6.6999,6.6999,6.6968,6.6569,6.6431,6.6415,6.6353,6.612,6.5933,6.5635,6.4925,6.3993,6.3225,6.2614,6.2047,6.1546,6.1166,6.0858,6.1029,6.079,7.1289,7.1289,7.1289,7.1041,7.0685,7.0488,7.0131,6.9574,6.9265,6.8277,6.7297,6.6969,6.62,6.5131,6.5136,6.5051,6.5184,6.5098,6.4994,6.4994,6.4994,6.4904,6.459,6.459,6.465,6.4859,6.5323,6.5353,6.5368,6.5996,6.649,6.6146,6.664,6.6999,6.6999,6.6999,6.6999,6.6969,6.6819,6.6729,6.67,6.658,6.6415,6.646,6.646,6.652,6.658,6.6835,6.6864,6.664,6.652,6.64,6.643,6.646,6.652,6.664,6.6729,6.6819,6.6984,6.6999,6.6999,6.6999,6.6999,6.6999,6.6999,6.6999,6.6999,6.6999,6.6999,6.6999,6.6999,6.6999,6.6999,6.6999,6.6999,6.6999,6.6999,6.6999,6.6999,6.6999,6.6999,6.6999,6.6999,6.6999,6.6999,6.6999,6.6999,6.6999,6.6999,6.6999,6.6999,6.6999,6.6999,6.6983,6.6892,6.6785,6.6584,6.6414,6.6042,6.5761,6.5761,6.548,6.5084,6.4877,6.4717,6.3863,6.2891,6.2564,6.208,6.1495,6.1012,6.0892,6.079,6.079,6.0817,7.1289,7.1267,7.0931,7.0623,7.0319,6.99,6.9343,6.8775,6.8328,6.7558,6.6635,6.6264,6.5687,6.5084,6.5338,6.5503,6.5577,6.5817,6.5936,6.5966,6.5981,6.5966,6.5936,6.5847,6.5697,6.5203,6.5293,6.5263,6.5368,6.5936,6.6311,6.6086,6.667,6.6969,6.6999,6.6999,6.6999,6.6999,6.6999,6.6999,6.6999,6.6999,6.6999,6.6999,6.6999,6.6999,6.6969,6.6969,6.6999,6.6999,6.6999,6.6999,6.6999,6.6999,6.6999,6.6999,6.6999,6.6999,6.6999,6.6999,6.6999,6.6999,6.6999,6.6999,6.6999,6.6999,6.6999,6.6999,6.6999,6.6999,6.6999,6.6999,6.6999,6.6999,6.6999,6.6999,6.6999,6.6999,6.6999,6.6999,6.6999,6.6999,6.6999,6.6999,6.6999,6.6999,6.6999,6.6999,6.6999,6.6999,6.6999,6.6999,6.6999,6.6968,6.6846,6.6584,6.6089,6.5713,6.5179,6.4877,6.4714,6.43,6.3834,6.3733,6.3586,6.2808,6.194,6.1721,6.1603,6.1173,6.0875,6.0807,6.079,6.079,6.079,7.1424,7.1446,7.059,7.0223,7.0023,6.9287,6.8567,6.7874,6.7339,6.6898,6.6122,6.5487,6.5622,6.5488,6.5906,6.6131,6.6281,6.658,6.6759,6.6759,6.6759,6.6759,6.6789,6.67,6.637,6.5353,6.5518,6.5458,6.5607,6.5847,6.634,6.6281,6.667,6.6969,6.6999,6.6999,6.6999,6.6999,6.6999,6.6999,6.6999,6.6999,6.6999,6.6999,6.6999,6.6999,6.6999,6.6999,6.6999,6.6999,6.6999,6.6999,6.6999,6.6999,6.6999,6.6999,6.6999,6.6999,6.6999,6.6999,6.6999,6.6999,6.6999,6.6999,6.6999,6.6999,6.6999,6.6999,6.6999,6.6999,6.6999,6.6999,6.6999,6.6999,6.6999,6.6999,6.6999,6.6999,6.6999,6.6999,6.6999,6.6999,6.6999,6.6999,6.6999,6.6999,6.6999,6.6999,6.6999,6.6983,6.6983,6.6723,6.6631,6.5948,6.5761,6.5651,6.5227,6.4877,6.4316,6.3912,6.3582,6.2962,6.2548,6.2581,6.2264,6.1637,6.1309,6.119,6.1046,6.079,6.079,6.079,6.079,6.079,6.0817,7.1915,7.2357,7.1008,7.024,6.9735,6.8703,6.7938,6.7432,6.7153,6.6944,6.6762,6.6701,6.655,6.664,6.67,6.6819,6.6789,6.6939,6.6999,6.6999,6.6999,6.6999,6.6999,6.6969,6.6805,6.6775,6.655,6.649,6.655,6.6789,6.67,6.6819,6.6909,6.6999,6.6999,6.6999,6.6999,6.6999,6.6999,6.6999,6.6999,6.6999,6.6999,6.6999,6.6999,6.6999,6.6999,6.6999,6.6999,6.6999,6.6999,6.6999,6.6999,6.6999,6.6999,6.6999,6.6999,6.6999,6.6999,6.6999,6.6999,6.6999,6.6999,6.6999,6.6999,6.6999,6.6999,6.6999,6.6999,6.6999,6.6999,6.6999,6.6999,6.6999,6.6999,6.6999,6.6999,6.6999,6.6999,6.6999,6.6999,6.6999,6.6999,6.6999,6.6999,6.6999,6.6999,6.6999,6.6999,6.6983,6.6953,6.6584,6.6136,6.5256,6.4425,6.4345,6.4106,6.3863,6.3373,6.278,6.2326,6.1614,6.1292,6.1654,6.1586,6.1156,6.0892,6.079,6.079,6.079,6.079,6.079,6.079,6.0817,6.0898,7.2345,7.1885,7.0817,6.9817,6.8847,6.7924,6.7378,6.7155,6.7048,6.6999,6.6999,6.6999,6.6999,6.6999,6.6999,6.6999,6.6999,6.6999,6.6999,6.6999,6.6999,6.6999,6.6999,6.6999,6.6999,6.6969,6.6969,6.6999,6.6999,6.6969,6.6999,6.6999,6.6999,6.6999,6.6999,6.6999,6.6999,6.6999,6.6999,6.6999,6.6999,6.6999,6.6999,6.6999,6.6999,6.6999,6.6999,6.6999,6.6999,6.6999,6.6999,6.6999,6.6999,6.6999,6.6999,6.6999,6.6999,6.6999,6.6999,6.6999,6.6999,6.6999,6.6999,6.6999,6.6999,6.6999,6.6999,6.6999,6.6999,6.6999,6.6999,6.6999,6.6999,6.6999,6.6999,6.6999,6.6999,6.6999,6.6999,6.6999,6.6999,6.6999,6.6999,6.6999,6.6999,6.6999,6.6999,6.6953,6.6922,6.68,6.6692,6.5776,6.5179,6.4461,6.3549,6.3221,6.3106,6.2858,6.2526,6.194,6.1552,6.1098,6.1029,6.1224,6.0995,6.079,6.079,6.079,6.079,6.079,6.079,6.079,6.079,6.0817,6.0925,7.2325,7.1094,7.0278,6.9228,6.8161,6.7321,6.7,6.6999,6.6984,6.6999,6.6999,6.6999,6.6999,6.6999,6.6999,6.6999,6.6999,6.6999,6.6999,6.6999,6.6999,6.6999,6.6999,6.6999,6.6999,6.6999,6.6999,6.6999,6.6999,6.6999,6.6999,6.6999,6.6999,6.6999,6.6999,6.6999,6.6999,6.6999,6.6999,6.6999,6.6999,6.6999,6.6999,6.6999,6.6999,6.6999,6.6999,6.6999,6.6999,6.6999,6.6999,6.6999,6.6999,6.6999,6.6999,6.6999,6.6999,6.6999,6.6999,6.6999,6.6999,6.6999,6.6999,6.6999,6.6999,6.6999,6.6999,6.6999,6.6999,6.6999,6.6999,6.6999,6.6999,6.6999,6.6999,6.6999,6.6999,6.6999,6.6999,6.6999,6.6999,6.6999,6.6999,6.6999,6.6999,6.6999,6.6983,6.6538,6.6462,6.6384,6.6027,6.4845,6.4057,6.3504,6.2841,6.2225,6.2091,6.1968,6.1681,6.1241,6.1063,6.0841,6.091,6.1012,6.0927,6.079,6.079,6.079,6.079,6.079,6.079,6.079,6.079,6.0854,6.0962,7.1367,7.0569,6.9193,6.8515,6.822,6.7366,6.6999,6.6999,6.6999,6.6999,6.6999,6.6999,6.6999,6.6999,6.6999,6.6999,6.6999,6.6999,6.6999,6.6999,6.6999,6.6999,6.6999,6.6999,6.6999,6.6999,6.6999,6.6999,6.6999,6.6999,6.6999,6.6999,6.6999,6.6999,6.6999,6.6999,6.6999,6.6999,6.6999,6.6999,6.6999,6.6999,6.6999,6.6999,6.6999,6.6999,6.6999,6.6999,6.6999,6.6999,6.6999,6.6999,6.6999,6.6999,6.6999,6.6999,6.6999,6.6999,6.6999,6.6999,6.6999,6.6999,6.6999,6.6999,6.6999,6.6999,6.6999,6.6999,6.6999,6.6999,6.6999,6.6999,6.6999,6.6999,6.6999,6.6999,6.6999,6.6999,6.6999,6.6999,6.6999,6.6999,6.6999,6.6999,6.6999,6.6999,6.6877,6.6446,6.6011,6.5886,6.5432,6.43,6.3044,6.2442,6.2192,6.158,6.1428,6.1251,6.1046,6.079,6.079,6.079,6.079,6.0841,6.079,6.079,6.079,6.079,6.079,6.079,6.079,6.079,6.079,6.0908,6.1098,7.0547,6.9748,6.9102,6.8356,6.7608,6.7137,6.6999,6.6999,6.6999,6.6999,6.6999,6.6999,6.6999,6.6999,6.6999,6.6999,6.6999,6.6999,6.6999,6.6999,6.6999,6.6999,6.6999,6.6999,6.6999,6.6999,6.6999,6.6999,6.6999,6.6999,6.6999,6.6999,6.6999,6.6999,6.6999,6.6999,6.6999,6.6999,6.6999,6.6999,6.6999,6.6999,6.6999,6.6999,6.6999,6.6999,6.6999,6.6999,6.6999,6.6999,6.6999,6.6999,6.6999,6.6999,6.6999,6.6999,6.6999,6.6999,6.6999,6.6999,6.6999,6.6999,6.6999,6.6999,6.6999,6.6999,6.6999,6.6999,6.6999,6.6999,6.6999,6.6999,6.6999,6.6999,6.6999,6.6999,6.6999,6.6999,6.6999,6.6999,6.6999,6.6999,6.6999,6.6999,6.6999,6.6999,6.6937,6.6661,6.5933,6.5243,6.4653,6.3814,6.2542,6.136,6.1275,6.1012,6.1098,6.0978,6.0978,6.079,6.079,6.079,6.079,6.079,6.079,6.079,6.079,6.079,6.079,6.079,6.079,6.079,6.0827,6.1244,6.1597,6.929,6.8649,6.8649,6.8013,6.7029,6.6999,6.6999,6.6999,6.6999,6.6999,6.6999,6.6999,6.6999,6.6999,6.6999,6.6999,6.6999,6.6999,6.6999,6.6999,6.6999,6.6999,6.6999,6.6999,6.6999,6.6999,6.6999,6.6999,6.6999,6.6999,6.6999,6.6999,6.6999,6.6999,6.6999,6.6999,6.6999,6.6999,6.6999,6.6999,6.6999,6.6999,6.6999,6.6999,6.6999,6.6999,6.6999,6.6999,6.6999,6.6999,6.6999,6.6999,6.6999,6.6999,6.6999,6.6999,6.6999,6.6999,6.6999,6.6999,6.6999,6.6999,6.6999,6.6999,6.6999,6.6999,6.6999,6.6999,6.6999,6.6999,6.6999,6.6999,6.6999,6.6999,6.6999,6.6999,6.6999,6.6999,6.6999,6.6999,6.6999,6.6999,6.6999,6.6999,6.6999,6.6999,6.6922,6.6723,6.5745,6.4557,6.3553,6.2709,6.2041,6.0978,6.0892,6.079,6.079,6.079,6.079,6.079,6.079,6.079,6.079,6.079,6.079,6.079,6.079,6.079,6.079,6.079,6.079,6.079,6.0935,6.1407,6.1986,6.7213,6.7137,6.7168,6.7137,6.6999,6.6999,6.6999,6.6999,6.6999,6.6999,6.6999,6.6999,6.6999,6.6999,6.6999,6.6999,6.6999,6.6999,6.6999,6.6999,6.6999,6.6999,6.6999,6.6999,6.6999,6.6999,6.6999,6.6999,6.6999,6.6999,6.6999,6.6999,6.6999,6.6999,6.6999,6.6999,6.6999,6.6999,6.6999,6.6999,6.6999,6.6999,6.6999,6.6999,6.6999,6.6999,6.6999,6.6999,6.6999,6.6999,6.6999,6.6999,6.6999,6.6999,6.6999,6.6999,6.6999,6.6999,6.6999,6.6999,6.6999,6.6999,6.6999,6.6999,6.6999,6.6999,6.6999,6.6999,6.6999,6.6999,6.6999,6.6999,6.6999,6.6999,6.6999,6.6999,6.6999,6.6999,6.6999,6.6999,6.6846,6.6646,6.6398,6.6274,6.6414,6.6414,6.6011,6.5823,6.457,6.3385,6.2242,6.1444,6.1241,6.0841,6.0824,6.079,6.079,6.079,6.079,6.079,6.079,6.079,6.079,6.079,6.079,6.079,6.079,6.079,6.079,6.079,6.0817,6.0844,6.118,6.1705,6.2312,6.7517,6.7014,6.6999,6.6999,6.6999,6.6999,6.6999,6.6999,6.6999,6.6999,6.6999,6.6999,6.6999,6.6999,6.6999,6.6999,6.6999,6.6999,6.6999,6.6999,6.6999,6.6999,6.6999,6.6999,6.6999,6.6999,6.6999,6.6999,6.6999,6.6999,6.6999,6.6999,6.6999,6.6999,6.6999,6.6999,6.6999,6.6999,6.6999,6.6999,6.6999,6.6999,6.6999,6.6999,6.6999,6.6999,6.6999,6.6999,6.6999,6.6999,6.6999,6.6999,6.6999,6.6999,6.6999,6.6999,6.6999,6.6999,6.6999,6.6999,6.6999,6.6999,6.6999,6.6999,6.6999,6.6999,6.6999,6.6999,6.6999,6.6999,6.6999,6.6999,6.6999,6.6999,6.6999,6.6999,6.6999,6.6999,6.6785,6.6708,6.6276,6.5902,6.5635,6.5367,6.5588,6.5761,6.5335,6.4762,6.3598,6.2609,6.1681,6.1098,6.0944,6.0807,6.079,6.079,6.079,6.079,6.079,6.079,6.079,6.079,6.079,6.079,6.08,6.0827,6.0827,6.08,6.079,6.0817,6.0871,6.098,6.1424,6.204,6.261,6.7593,6.7029,6.6999,6.6999,6.6999,6.6999,6.6999,6.6999,6.6999,6.6999,6.6999,6.6999,6.6999,6.6999,6.6999,6.6999,6.6999,6.6999,6.6999,6.6999,6.6999,6.6999,6.6999,6.6999,6.6999,6.6999,6.6999,6.6999,6.6999,6.6999,6.6999,6.6999,6.6999,6.6999,6.6999,6.6999,6.6999,6.6999,6.6999,6.6999,6.6999,6.6999,6.6999,6.6999,6.6999,6.6999,6.6999,6.6999,6.6999,6.6999,6.6999,6.6999,6.6999,6.6999,6.6999,6.6999,6.6999,6.6999,6.6999,6.6999,6.6999,6.6999,6.6999,6.6999,6.6999,6.6999,6.6999,6.6999,6.6999,6.6999,6.6999,6.6999,6.6999,6.6999,6.6999,6.6999,6.6999,6.6983,6.6646,6.6369,6.5902,6.5401,6.4605,6.4316,6.4364,6.4461,6.4074,6.3684,6.3143,6.2292,6.1648,6.1207,6.1046,6.091,6.079,6.079,6.079,6.079,6.079,6.079,6.079,6.08,6.08,6.079,6.08,6.0881,6.1017,6.1152,6.1017,6.0817,6.1017,6.1288,6.2112,6.2746,6.2963,6.7045,6.6999,6.6999,6.6999,6.6999,6.6999,6.6999,6.6999,6.6999,6.6999,6.6999,6.6999,6.6999,6.6999,6.6999,6.6999,6.6999,6.6999,6.6999,6.6999,6.6999,6.6999,6.6999,6.6999,6.6999,6.6999,6.6999,6.6999,6.6999,6.6999,6.6999,6.6999,6.6999,6.6999,6.6999,6.6999,6.6999,6.6999,6.6999,6.6999,6.6999,6.6999,6.6999,6.6999,6.6999,6.6999,6.6999,6.6999,6.6999,6.6999,6.6999,6.6999,6.6999,6.6999,6.6999,6.6999,6.6999,6.6999,6.6999,6.6999,6.6999,6.6999,6.6999,6.6999,6.6999,6.6999,6.6999,6.6999,6.6999,6.6999,6.6999,6.6999,6.6999,6.6999,6.6999,6.6999,6.6999,6.6983,6.6692,6.6414,6.5761,6.5036,6.3976,6.3258,6.3176,6.3061,6.2747,6.2465,6.2264,6.1923,6.1326,6.1156,6.0978,6.091,6.079,6.079,6.079,6.079,6.0817,6.0854,6.0908,6.099,6.0962,6.0881,6.1125,6.1407,6.1515,6.1597,6.1569,6.1569,6.1515,6.185,6.2746,6.3261,6.3288,6.6999,6.6999,6.6999,6.6999,6.6999,6.6999,6.6999,6.6999,6.6999,6.6999,6.6999,6.6999,6.6999,6.6999,6.6999,6.6999,6.6999,6.6999,6.6999,6.6999,6.6999,6.6999,6.6999,6.6999,6.6999,6.6999,6.6999,6.6999,6.6999,6.6999,6.6999,6.6999,6.6999,6.6999,6.6999,6.6999,6.6999,6.6999,6.6999,6.6999,6.6999,6.6999,6.6999,6.6999,6.6999,6.6999,6.6999,6.6999,6.6999,6.6999,6.6999,6.6999,6.6999,6.6999,6.6999,6.6999,6.6999,6.6999,6.6999,6.6999,6.6999,6.6999,6.6999,6.6999,6.6999,6.6999,6.6999,6.6999,6.6999,6.6999,6.6999,6.6999,6.6999,6.6999,6.6999,6.6999,6.6999,6.6999,6.6831,6.6553,6.6042,6.4429,6.3143,6.2376,6.2158,6.2024,6.1772,6.1631,6.1428,6.1309,6.0944,6.0927,6.0841,6.0807,6.0817,6.0881,6.0908,6.0935,6.0962,6.099,6.1071,6.1298,6.1515,6.1661,6.1823,6.2013,6.2122,6.2284,6.2447,6.2474,6.2279,6.2162,6.2649,6.3027,6.3162,6.6999,6.6999,6.6999,6.6999,6.6999,6.6999,6.6999,6.6999,6.6999,6.6999,6.6999,6.6999,6.6999,6.6999,6.6999,6.6999,6.6999,6.6999,6.6999,6.6999,6.6999,6.6999,6.6999,6.7029,6.6999,6.6999,6.6999,6.6999,6.6999,6.6999,6.6999,6.6999,6.6999,6.6999,6.6999,6.6999,6.6999,6.6999,6.6999,6.6999,6.6999,6.6999,6.6999,6.6999,6.6999,6.6999,6.6999,6.6999,6.6999,6.6999,6.6999,6.6999,6.6999,6.6999,6.6999,6.6999,6.6999,6.6999,6.6999,6.6999,6.6999,6.6999,6.6999,6.6999,6.6999,6.6999,6.6999,6.6999,6.7029,6.7029,6.7029,6.7029,6.6999,6.6999,6.6999,6.6999,6.6983,6.6983,6.6428,6.621,6.5473,6.3826,6.2398,6.1671,6.1149,6.1012,6.0841,6.0817,6.0817,6.0817,6.0827,6.0854,6.0854,6.0854,6.0935,6.1071,6.1098,6.1071,6.1234,6.1407,6.1651,6.1932,6.2185,6.2375,6.2348,6.242,6.2773,6.2972,6.3064,6.2975,6.2803,6.2741,6.2714,6.2732,6.2821,6.6999,6.6999,6.6999,6.6999,6.6999,6.6999,6.6999,6.6999,6.6999,6.6999,6.6999,6.6999,6.6999,6.6999,6.6999,6.6999,6.6999,6.6999,6.6999,6.7059,6.7164,6.7104,6.7089,6.7178,6.7298,6.7194,6.7254,6.7508,6.7148,6.7388,6.7358,6.7238,6.7403,6.7418,6.7388,6.7388,6.7328,6.7284,6.7208,6.7298,6.7448,6.7343,6.7418,6.7388,6.7298,6.7224,6.7164,6.7074,6.6999,6.6999,6.6999,6.6999,6.6999,6.6999,6.6999,6.7059,6.7089,6.7119,6.7178,6.7208,6.7178,6.7268,6.7238,6.7119,6.7029,6.7119,6.7254,6.7254,6.7254,6.7164,6.7134,6.7059,6.6999,6.6999,6.6999,6.6983,6.6968,6.6599,6.5896,6.5277,6.4488,6.3247,6.1934,6.108,6.0844,6.079,6.0827,6.0935,6.0935,6.0817,6.0854,6.1017,6.099,6.0962,6.1125,6.1461,6.1569,6.1651,6.1932,6.2176,6.2375,6.2565,6.2782,6.2863,6.2701,6.2836,6.3315,6.3497,6.3567,6.3402,6.282,6.2573,6.2324,6.2199,6.2183,6.6999,6.6999,6.6999,6.6999,6.6999,6.6999,6.6999,6.6999,6.6999,6.6999,6.6999,6.6999,6.7089,6.6999,6.6999,6.7029,6.7029,6.6999,6.6999,6.7148,6.7553,6.7343,6.7493,6.7837,6.7972,6.8002,6.8092,6.8256,6.8375,6.8375,6.8345,6.8465,6.8226,6.8301,6.8331,6.8405,6.8092,6.7852,6.7762,6.7912,6.8166,6.8271,6.8256,6.8196,6.7852,6.7762,6.7673,6.7313,6.7178,6.7089,6.7044,6.7014,6.6999,6.6999,6.7089,6.7673,6.7703,6.7732,6.7792,6.8136,6.8196,6.7897,6.8046,6.7717,6.7508,6.7433,6.7703,6.7703,6.7703,6.7703,6.7613,6.7523,6.7418,6.7358,6.7297,6.7206,6.7083,6.639,6.5648,6.4765,6.396,6.2889,6.1565,6.1138,6.0953,6.0844,6.0881,6.1098,6.1125,6.1044,6.1152,6.1298,6.1407,6.1434,6.1796,6.2176,6.2185,6.2267,6.2592,6.2863,6.3044,6.3207,6.3397,6.3451,6.3397,6.3614,6.3966,6.3901,6.348,6.2815,6.2264,6.2112,6.1939,6.1658,6.1545,6.6999,6.6999,6.6999,6.6999,6.6999,6.6999,6.6999,6.6999,6.6999,6.7104,6.7373,6.7419,6.7553,6.7852,6.7882,6.7882,6.7867,6.7926,6.7926,6.8046,6.8166,6.8122,6.8286,6.8525,6.8585,6.869,6.875,6.8824,6.9064,6.9034,6.8944,6.8914,6.9004,6.9004,6.8944,6.8854,6.8914,6.872,6.866,6.872,6.89,6.9064,6.9004,6.8974,6.8571,6.8451,6.8361,6.7867,6.7822,6.7792,6.7792,6.7792,6.7807,6.7837,6.7867,6.8391,6.8391,6.8391,6.8451,6.8675,6.8675,6.8615,6.8764,6.8495,6.8315,6.8241,6.8361,6.8391,6.8391,6.8391,6.8241,6.8092,6.7956,6.7837,6.7684,6.7501,6.6915,6.6235,6.5392,6.4467,6.3496,6.2474,6.1726,6.1339,6.1261,6.1542,6.1705,6.1786,6.1705,6.1461,6.1633,6.1905,6.1986,6.204,6.2457,6.2782,6.2836,6.2963,6.3315,6.3532,6.3695,6.3695,6.3722,6.3939,6.4174,6.4092,6.3737,6.3453,6.3019,6.2295,6.1563,6.1224,6.0939,6.0654,6.0616,6.7089,6.7089,6.7119,6.7268,6.7164,6.7148,6.7119,6.7074,6.7029,6.7373,6.7852,6.8047,6.8345,6.8615,6.8704,6.8734,6.8675,6.8675,6.8645,6.9004,6.9004,6.8914,6.8824,6.9123,6.9273,6.9183,6.9243,6.9542,6.9303,6.9393,6.9482,6.9153,6.9303,6.9423,6.9482,6.9453,6.9602,6.9782,6.9512,6.9393,6.9303,6.9243,6.9153,6.9213,6.9153,6.9064,6.9064,6.9004,6.9004,6.8974,6.8944,6.8854,6.8824,6.8794,6.8854,6.9064,6.9064,6.9064,6.9139,6.9333,6.9243,6.9183,6.9123,6.9243,6.9273,6.9049,6.9079,6.9064,6.9079,6.9079,6.896,6.869,6.8495,6.8465,6.8358,6.7683,6.6713,6.5763,6.4523,6.3678,6.2918,6.2037,6.206,6.1705,6.1759,6.2213,6.2321,6.2321,6.2393,6.2095,6.215,6.2476,6.2538,6.2674,6.2999,6.327,6.3424,6.3641,6.3813,6.3758,6.3576,6.3739,6.401,6.3763,6.3406,6.3351,6.3111,6.2686,6.2127,6.1431,6.0794,6.0316,5.9984,5.9869,5.9888,6.7762,6.7808,6.8301,6.8525,6.8435,6.7972,6.7732,6.7718,6.7194,6.7479,6.8017,6.8511,6.884,6.9034,6.9093,6.9093,6.9123,6.9273,6.9034,6.9273,6.9512,6.9542,6.9363,6.9871,7.0021,6.9975,7.0095,7.029,7.0231,7.032,7.041,7.041,7.0304,7.026,7.026,7.026,7.038,7.053,7.041,7.0231,7.0231,7.038,7.044,7.026,7.0127,6.9798,6.9632,6.9303,6.9123,6.9004,6.9004,6.8974,6.8974,6.9034,6.9303,6.9648,6.9768,6.9768,6.9842,6.9991,7.0051,6.9991,7.0051,7.032,7.032,6.9977,6.9768,6.9768,6.9752,6.9768,6.9678,6.9333,6.9123,6.9123,6.9046,6.7873,6.6654,6.513,6.3734,6.2977,6.2283,6.2192,6.2248,6.2294,6.2375,6.243,6.2457,6.2565,6.3017,6.2972,6.282,6.301,6.3144,6.3297,6.3569,6.3722,6.3831,6.3659,6.3684,6.3591,6.3406,6.3204,6.3019,6.2611,6.2313,6.2407,6.2239,6.1582,6.1022,6.0565,6.0259,5.9913,5.9778,5.9637,5.9579,6.8451,6.8451,6.8511,6.8571,6.8481,6.8151,6.8002,6.8047,6.8211,6.8556,6.872,6.875,6.887,6.9319,6.9439,6.9632,6.9722,6.9855,6.9961,7.0051,7.0021,7.0141,7.035,7.053,7.0514,7.0514,7.0663,7.0843,7.0903,7.0873,7.0813,7.0903,7.0903,7.0903,7.0903,7.0903,7.0903,7.0873,7.0903,7.0903,7.0903,7.0889,7.0889,7.0739,7.062,7.0396,7.0336,6.9991,6.9931,6.9871,6.9931,6.9931,6.9961,6.9961,7.0081,7.029,7.038,7.0426,7.05,7.059,7.0739,7.062,7.059,7.0709,7.0739,7.0426,7.038,7.038,7.038,7.038,7.035,7.0141,7.0081,7.0081,6.9799,6.9034,6.6818,6.4601,6.3512,6.2756,6.2401,6.2564,6.2674,6.2891,6.3026,6.3424,6.3342,6.3234,6.3587,6.3614,6.3542,6.3415,6.3416,6.3704,6.3966,6.4075,6.4174,6.3928,6.3516,6.3037,6.2648,6.2276,6.1939,6.177,6.1676,6.1695,6.142,6.087,6.0431,6.0067,5.9817,5.9585,5.9527,5.9527,5.9527,6.8974,6.8914,6.8481,6.8287,6.8287,6.8287,6.8317,6.8466,6.9349,6.9768,6.9558,6.86,6.899,6.9738,7.0143,7.0516,7.0649,7.0514,7.0693,7.0753,7.0783,7.0633,7.0663,7.0843,7.0813,7.0783,7.0873,7.0903,7.0903,7.0903,7.0903,7.0903,7.0903,7.0903,7.0903,7.0903,7.0903,7.0903,7.0903,7.0903,7.0903,7.0903,7.0903,7.0903,7.0903,7.0903,7.0889,7.0889,7.0873,7.0813,7.0679,7.0649,7.0633,7.059,7.0679,7.0769,7.0769,7.0769,7.0813,7.0829,7.0873,7.0873,7.0903,7.0873,7.0889,7.0889,7.0859,7.0859,7.0859,7.0859,7.0829,7.0829,7.0799,7.0254,6.9903,6.94,6.6702,6.4225,6.3371,6.2619,6.2836,6.3017,6.3234,6.3433,6.3722,6.4147,6.431,6.431,6.4219,6.3948,6.3785,6.3576,6.3403,6.3756,6.4074,6.4019,6.3882,6.3645,6.313,6.2481,6.1827,6.128,6.1053,6.1261,6.1205,6.0996,6.0787,6.0412,5.999,5.9701,5.9624,5.9527,5.9527,5.9527,5.9527,6.9004,6.9034,6.9439,6.9588,6.9588,6.9588,6.9634,6.9528,6.9289,6.9183,6.9273,6.9183,6.9512,7.0709,7.0709,7.0859,7.0829,7.0903,7.0903,7.0873,7.0903,7.0903,7.0903,7.0903,7.0903,7.0903,7.0903,7.0903,7.0903,7.0903,7.0903,7.0903,7.0903,7.0903,7.0903,7.0903,7.0903,7.0903,7.0903,7.0903,7.0903,7.0903,7.0903,7.0903,7.0903,7.0903,7.0903,7.0903,7.0873,7.0903,7.0903,7.0903,7.0903,7.0903,7.0903,7.0903,7.0903,7.0903,7.0903,7.0903,7.0903,7.0903,7.0903,7.0903,7.0889,7.0889,7.0873,7.0873,7.0873,7.0873,7.0873,7.0873,7.0762,6.924,6.8421,6.7564,6.5835,6.431,6.3185,6.318,6.3478,6.3668,6.3885,6.3993,6.3993,6.431,6.431,6.431,6.431,6.4165,6.4019,6.358,6.3222,6.324,6.3296,6.3296,6.3204,6.3019,6.2611,6.1733,6.0882,6.0099,5.9984,6.0425,6.0291,6.0003,5.9836,5.999,5.9817,5.9585,5.9566,5.9527,5.9527,5.9527,5.9527]},{"header":{"parameterUnit":"m.s-1","parameterCategory":1,"la1":31.0,"la2":29.5877,"lo1":-88.7671,"lo2":-86.6584,"dx":0.0162,"dy":0.0185,"nx":115,"ny":88,"refTime":"2022-11-20T06:00:00:Z","depth":0,"parameterNumber":3,"parameterNumberName":"V-component_of_WINDS"},"data":[0.0,0.0,0.0,0.0,0.0,0.0,0.0,0.0,0.0,0.0,0.0,0.0,0.0,0.0,0.0,0.0,0.0,0.0,0.0,0.0,0.0,0.0,0.0,0.0,0.0,0.0,0.0,0.0,0.0,0.0,0.0,0.0,0.0,0.0,0.0,0.0,0.0,0.0,0.0,0.0,0.0,0.0,0.0,0.0,0.0,0.0,0.0,0.0,0.0,0.0,0.0,0.0,0.0,0.0,0.0,0.0,0.0,0.0,0.0,0.0,0.0,0.0,0.0,0.0,0.0,0.0,0.0,0.0,0.0,0.0,0.0,0.0,0.0,0.0,0.0,0.0,0.0,0.0,0.0,0.0,0.0,0.0,0.0,0.0,0.0,0.0,0.0,0.0,0.0,0.0,0.0,0.0,0.0,0.0,0.0,0.0,0.0,0.0,0.0,0.0,0.0,0.0,0.0,0.0,0.0,0.0,0.0,0.0,0.0,0.0,0.0,0.0,0.0,0.0,0.0,0.0,0.0,0.0,0.0,0.0,0.0,0.0,0.0,0.0,0.0,0.0,0.0,0.0,0.0,0.0,0.0,0.0,0.0,0.0,0.0,0.0,0.0,0.0,0.0,0.0,0.0,0.0,0.0,0.0,0.0,0.0,0.0,0.0,0.0,0.0,0.0,0.0,0.0,0.0,0.0,0.0,0.0,0.0,0.0,0.0,0.0,0.0,0.0,0.0,0.0,0.0,0.0,0.0,0.0,0.0,0.0,0.0,0.0,0.0,0.0,0.0,0.0,0.0,0.0,0.0,0.0,0.0,0.0,0.0,0.0,0.0,0.0,0.0,0.0,0.0,0.0,0.0,0.0,0.0,0.0,0.0,0.0,0.0,0.0,0.0,0.0,0.0,0.0,0.0,0.0,0.0,0.0,0.0,0.0,0.0,0.0,0.0,0.0,0.0,0.0,0.0,0.0,0.0,0.0,0.0,0.0,0.0,0.0,0.0,0.0,0.0,0.0,0.0,0.0,0.0,0.0,0.0,0.0,0.0,0.0,0.0,0.0,0.0,0.0,0.0,0.0,0.0,0.0,0.0,0.0,0.0,0.0,0.0,0.0,0.0,0.0,0.0,0.0,0.0,0.0,0.0,0.0,0.0,0.0,0.0,0.0,0.0,0.0,0.0,0.0,0.0,0.0,0.0,0.0,0.0,0.0,0.0,0.0,0.0,0.0,0.0,0.0,0.0,0.0,0.0,0.0,0.0,0.0,0.0,0.0,0.0,0.0,0.0,0.0,0.0,0.0,0.0,0.0,0.0,0.0,0.0,0.0,0.0,0.0,0.0,0.0,0.0,0.0,0.0,0.0,0.0,0.0,0.0,0.0,0.0,0.0,0.0,0.0,0.0,0.0,0.0,0.0,0.0,0.0,0.0,0.0,0.0,0.0,0.0,0.0,0.0,0.0,0.0,0.0,0.0,0.0,0.0,0.0,0.0,0.0,0.0,0.0,0.0,0.0,0.0,0.0,0.0,0.0,0.0,0.0,0.0,0.0,0.0,0.0,0.0,0.0,0.0,0.0,0.0,0.0,0.0,0.0,0.0,0.0,0.0,0.0,0.0,0.0,0.0,0.0,0.0,0.0,0.0,0.0,0.0,0.0,0.0,0.0,0.0,0.0,0.0,0.0,0.0,0.0,0.0,0.0,0.0,0.0,0.0,0.0,0.0,0.0,0.0,0.0,0.0,0.0,0.0,0.0,0.0,0.0,0.0,0.0,0.0,0.0,0.0,0.0,0.0,0.0,0.0,0.0,0.0,0.0,0.0,0.0,0.0,0.0,0.0,0.0,0.0,0.0,0.0,0.0,0.0,0.0,0.0,0.0,0.0,0.0,0.0,0.0,0.0,0.0,0.0,0.0,0.0,0.0,0.0,0.0,0.0,0.0,0.0,0.0,0.0,0.0,0.0,0.0,0.0,0.0,0.0,0.0,0.0,0.0,0.0,0.0,0.0,0.0,0.0,0.0,0.0,0.0,0.0,0.0,0.0,0.0,0.0,0.0,0.0,0.0,0.0,0.0,0.0,0.0,0.0,0.0,0.0,0.0,0.0,0.0,0.0,0.0,0.0,0.0,0.0,0.0,0.0,0.0,0.0,0.0,0.0,0.0,0.0,0.0,0.0,0.0,0.0,0.0,0.0,0.0,0.0,0.0,0.0,0.0,0.0,0.0,0.0,0.0,0.0,0.0,0.0,0.0,0.0,0.0,0.0,0.0,0.0,0.0,0.0,0.0,0.0,0.0,0.0,0.0,0.0,0.0,0.0,0.0,0.0,0.0,0.0,0.0,0.0,0.0,0.0,0.0,0.0,0.0,0.0,0.0,0.0,0.0,0.0,0.0,0.0,0.0,0.0,0.0,0.0,0.0,0.0,0.0,0.0,0.0,0.0,0.0,0.0,0.0,0.0,0.0,0.0,0.0,0.0,0.0,0.0,0.0,0.0,0.0,0.0,0.0,0.0,0.0,0.0,0.0,0.0,0.0,0.0,0.0,0.0,0.0,0.0,0.0,0.0,0.0,0.0,0.0,0.0,0.0,0.0,0.0,0.0,0.0,0.0,0.0,0.0,0.0,0.0,0.0,0.0,0.0,0.0,0.0,0.0,0.0,0.0,0.0,0.0,0.0,0.0,0.0,0.0,0.0,0.0,0.0,0.0,0.0,0.0,0.0,0.0,0.0,0.0,0.0,0.0,0.0,0.0,0.0,0.0,0.0,0.0,0.0,0.0,0.0,0.0,0.0,0.0,0.0,0.0,0.0,0.0,0.0,0.0,0.0,0.0,0.0,0.0,0.0,0.0,0.0,0.0,0.0,0.0,0.0,0.0,0.0,0.0,0.0,0.0,0.0,0.0,0.0,0.0,0.0,0.0,0.0,0.0,0.0,0.0,0.0,0.0,0.0,0.0,0.0,0.0,0.0,0.0,0.0,0.0,0.0,0.0,0.0,0.0,0.0,0.0,0.0,0.0,0.0,0.0,0.0,0.0,0.0,0.0,0.0,0.0,0.0,0.0,0.0,0.0,0.0,0.0,0.0,0.0,0.0,0.0,0.0,0.0,0.0,0.0,0.0,0.0,0.0,0.0,0.0,0.0,0.0,0.0,0.0,0.0,0.0,0.0,0.0,0.0,0.0,0.0,0.0,0.0,0.0,0.0,0.0,0.0,0.0,0.0,0.0,0.0,0.0,0.0,0.0,0.0,0.0,0.0,0.0,0.0,0.0,0.0,0.0,0.0,0.0,0.0,0.0,0.0,0.0,0.0,0.0,0.0,0.0,0.0,0.0,0.0,0.0,0.0,0.0,0.0,0.0,0.0,0.0,0.0,0.0,0.0,0.0,0.0,0.0,0.0,0.0,0.0,0.0,0.0,0.0,0.0,0.0,0.0,0.0,0.0,0.0,0.0,0.0,0.0,0.0,0.0,0.0,0.0,0.0,0.0,0.0,0.0,0.0,0.0,0.0,0.0,0.0,0.0,0.0,0.0,0.0,0.0,0.0,0.0,0.0,0.0,0.0,0.0,0.0,0.0,0.0,0.0,0.0,0.0,0.0,0.0,0.0,0.0,0.0,0.0,0.0,0.0,0.0,0.0,0.0,0.0,0.0,0.0,0.0,0.0,0.0,0.0,0.0,0.0,0.0,0.0,0.0,0.0,0.0,0.0,0.0,0.0,0.0,0.0,0.0,0.0,0.0,0.0,0.0,0.0,0.0,0.0,0.0,0.0,0.0,0.0,0.0,0.0,0.0,0.0,0.0,0.0,0.0,0.0,0.0,0.0,0.0,0.0,0.0,0.0,0.0,0.0,0.0,0.0,0.0,0.0,0.0,0.0,0.0,0.0,0.0,0.0,0.0,0.0,0.0,0.0,0.0,0.0,0.0,0.0,0.0,0.0,0.0,0.0,0.0,0.0,0.0,0.0,0.0,0.0,0.0,0.0,0.0,0.0,0.0,0.0,0.0,0.0,0.0,0.0,0.0,0.0,0.0,0.0,0.0,0.0,0.0,0.0,0.0,0.0,0.0,0.0,0.0,0.0,0.0,0.0,0.0,0.0,0.0,0.0,0.0,0.0,0.0,0.0,0.0,0.0,0.0,0.0,0.0,0.0,0.0,0.0,0.0,0.0,0.0,0.0,0.0,0.0,0.0,0.0,0.0,0.0,0.0,0.0,0.0,0.0,0.0,0.0,0.0,0.0,0.0,0.0,0.0,0.0,0.0,0.0,0.0,0.0,1.4151,0.0,0.0,0.0,1.2131,0.0,0.0,0.0,0.0,0.0,0.0,0.0,0.0,0.0,0.0,0.0,0.0,0.0,0.0,0.0,0.0,0.0,0.0,0.0,0.0,0.0,0.0,0.0,0.0,0.0,0.0,0.0,0.0,0.0,0.0,0.0,0.0,0.0,0.0,0.0,0.0,0.0,0.0,0.0,0.0,0.0,0.0,0.0,0.0,0.0,0.0,0.0,0.0,0.0,0.0,0.0,0.0,0.0,0.0,0.0,0.0,0.0,0.0,0.0,0.0,0.0,0.0,0.0,0.0,0.0,0.0,0.0,0.0,0.0,0.0,0.0,0.0,0.0,0.0,0.0,0.0,0.0,0.0,0.0,0.0,0.0,0.0,0.0,0.0,0.0,0.0,0.0,0.0,0.0,0.0,0.0,0.0,0.0,0.0,0.0,0.0,0.0,0.0,0.0,0.0,0.0,0.0,0.0,0.0,0.0,0.0,0.0,0.0,0.0,0.0,1.4199,1.363,1.4779,1.4293,1.2024,0.0,0.0,0.0,0.0,0.0,0.0,0.0,0.0,0.0,0.0,0.0,0.0,0.0,0.0,0.0,0.0,0.0,0.0,0.0,0.0,0.0,0.0,0.0,0.0,0.0,0.0,0.0,0.0,0.0,0.0,0.0,0.0,0.0,0.0,0.0,0.0,0.0,0.0,0.0,0.0,0.0,0.0,0.0,0.0,0.0,0.0,0.0,0.0,0.0,0.0,0.0,0.0,0.0,0.0,0.0,0.0,0.0,0.0,0.0,0.0,0.0,0.0,0.0,0.0,0.0,0.0,0.0,0.0,0.0,0.0,0.0,0.0,0.0,0.0,0.0,0.0,0.0,0.0,0.0,0.0,0.0,0.0,0.0,0.0,0.0,0.0,0.0,0.0,0.0,0.0,0.0,0.0,0.0,0.0,0.0,0.0,0.0,0.0,0.0,0.0,0.0,0.0,0.0,0.0,0.0,0.0,0.0,0.0,0.0,0.0,0.0,0.0,1.4741,1.4226,1.2208,0.0,0.0,0.0,0.0,0.0,0.0,0.0,0.0,0.0,0.0,0.0,0.0,0.0,0.0,0.0,0.0,0.0,0.0,0.0,0.0,0.0,0.0,0.0,0.0,0.0,0.0,0.0,0.0,0.0,0.0,0.0,0.0,0.0,0.0,0.0,0.0,0.0,0.0,0.0,0.0,0.0,0.0,0.0,0.0,0.0,0.0,0.0,0.0,0.0,0.0,0.0,0.0,0.0,0.0,0.0,0.0,0.0,0.0,0.0,0.0,0.0,0.0,0.0,0.0,0.0,0.0,0.0,0.0,0.0,0.0,0.0,0.0,0.0,0.0,0.0,0.0,0.0,0.0,0.0,0.0,0.0,0.0,0.0,0.0,0.0,0.0,0.0,0.0,0.0,0.0,0.0,0.0,0.0,0.0,0.0,0.0,0.0,0.0,0.0,0.0,0.0,0.0,0.0,0.0,0.0,0.0,0.0,0.0,0.0,0.0,1.3814,1.4836,1.4683,0.0,1.2784,0.0,0.0,0.0,0.0,0.0,0.0,0.0,0.0,0.0,0.0,0.0,0.0,0.0,0.0,0.0,0.0,0.0,0.0,0.0,0.0,0.0,0.0,0.0,0.0,0.0,0.0,0.0,0.0,0.0,0.0,0.0,0.0,0.0,0.0,0.0,0.0,0.0,0.0,0.0,0.0,0.0,0.0,0.0,0.0,0.0,0.0,0.0,0.0,0.0,0.0,0.0,0.0,0.0,0.0,0.0,0.0,0.0,0.0,0.0,0.0,0.0,0.0,0.0,0.0,0.0,0.0,0.0,0.0,0.0,0.0,0.0,0.0,0.0,0.0,0.0,0.0,0.0,0.0,0.0,0.0,0.0,0.0,0.0,0.0,0.0,0.0,0.0,0.0,0.0,0.0,0.0,0.0,0.0,0.0,0.0,0.0,0.0,0.0,0.0,0.0,0.0,0.0,0.0,0.0,0.0,0.0,0.0,0.0,0.0,0.0,1.3938,1.497,1.4175,1.3347,0.0,0.0,0.0,0.0,0.0,0.0,0.0,0.0,0.0,0.0,0.0,0.0,0.0,0.0,0.0,0.0,0.0,0.0,0.0,0.0,0.0,0.0,0.0,0.0,0.0,0.0,0.0,0.0,0.0,0.0,0.0,0.0,0.0,0.0,0.0,0.0,0.0,0.0,0.0,0.0,0.0,0.0,0.0,0.0,0.0,0.0,0.0,0.0,0.0,0.0,0.0,0.0,0.0,0.0,0.0,0.0,0.0,0.0,0.0,0.0,0.0,0.0,0.0,0.0,0.0,0.0,0.0,0.0,0.0,0.0,0.0,0.0,0.0,0.0,0.0,0.0,0.0,0.0,0.0,0.0,0.0,0.0,0.0,0.0,0.0,0.0,0.0,0.0,0.0,0.0,0.0,0.0,0.0,0.0,0.0,0.0,0.0,0.0,0.0,0.0,0.0,0.0,0.0,0.0,0.0,0.0,0.0,0.0,0.0,0.0,1.4031,1.4378,1.5108,1.4215,1.3293,1.247,0.0,0.0,0.0,0.0,0.0,0.0,0.0,0.0,0.0,0.0,0.0,0.0,0.0,0.0,0.0,0.0,0.0,0.0,0.0,0.0,0.0,0.0,0.0,0.0,0.0,0.0,0.0,0.0,0.0,0.0,0.0,0.0,0.0,0.0,0.0,0.0,0.0,0.0,0.0,0.0,0.0,0.0,0.0,0.0,0.0,0.0,0.0,0.0,0.0,0.0,0.0,0.0,0.0,0.0,0.0,0.0,0.0,0.0,0.0,0.0,0.0,0.0,0.0,0.0,0.0,0.0,0.0,0.0,0.0,0.0,0.0,0.0,0.0,0.0,0.0,0.0,0.0,0.0,0.0,0.0,0.0,0.0,0.0,0.0,0.0,0.0,0.0,0.0,0.0,0.0,0.0,0.0,0.0,0.0,0.0,0.0,0.0,0.0,0.0,0.0,0.0,0.0,0.0,0.0,0.0,0.0,0.0,0.0,1.519,1.5041,1.519,1.5728,1.5215,1.4244,0.0,0.0,0.0,0.0,0.0,0.0,0.0,0.0,0.0,0.0,0.0,0.0,0.0,0.0,0.0,0.0,0.0,0.0,0.0,0.0,0.0,0.0,0.0,0.0,0.0,0.0,0.0,0.0,0.0,0.0,0.0,0.0,0.0,0.0,0.0,0.0,0.0,0.0,0.0,0.0,0.0,0.0,0.0,0.0,0.0,0.0,0.0,0.0,0.0,0.0,0.0,0.0,0.0,0.0,0.0,0.0,0.0,0.0,0.0,0.0,0.0,0.0,0.0,0.0,0.0,0.0,0.0,0.0,0.0,0.0,0.0,0.0,0.0,0.0,0.0,0.0,0.0,0.0,0.0,0.0,0.0,0.0,0.0,0.0,0.0,0.0,0.0,0.0,0.0,0.0,0.0,0.0,0.0,0.0,0.0,0.0,0.0,0.0,0.0,0.0,0.0,0.0,0.0,0.0,0.0,0.0,0.0,0.0,0.0,1.3975,1.4979,1.5712,1.6071,1.5026,1.4065,0.0,0.0,0.0,0.0,0.0,0.0,0.0,0.0,0.0,0.0,0.0,0.0,0.0,0.0,0.0,0.0,0.0,0.0,0.0,0.0,0.0,0.0,0.0,0.0,0.0,0.0,0.0,0.0,0.0,0.0,0.0,0.0,0.0,0.0,0.0,0.0,0.0,0.0,0.0,0.0,0.0,0.0,0.0,0.0,0.0,0.0,0.0,0.0,0.0,0.0,0.0,0.0,0.0,0.0,0.0,0.0,0.0,0.0,0.0,0.0,0.0,0.0,0.0,0.0,0.0,0.0,0.0,0.0,0.0,0.0,0.0,0.0,0.0,0.0,0.0,0.0,0.0,0.0,0.0,0.0,0.0,0.0,0.0,0.0,0.0,0.0,0.0,0.0,0.0,0.0,0.0,0.0,0.0,0.0,0.0,0.0,0.0,0.0,0.0,0.0,0.0,0.0,0.0,0.0,0.0,0.0,0.0,0.0,0.0,1.4188,1.5713,1.6541,1.6538,1.5148,1.4025,0.0,0.0,0.0,0.0,0.0,0.0,0.0,0.0,0.0,0.0,0.0,0.0,0.0,0.0,0.0,0.0,0.0,0.0,0.0,0.0,0.0,0.0,0.0,0.0,0.0,0.0,0.0,0.0,0.0,0.0,0.0,0.0,0.0,0.0,0.0,0.0,0.0,0.0,0.0,0.0,0.0,0.0,0.0,0.0,0.0,0.0,0.0,0.0,0.0,0.0,0.0,0.0,0.0,0.0,0.0,0.0,0.0,0.0,0.0,0.0,0.0,0.0,0.0,0.0,0.0,0.0,0.0,0.0,0.0,0.0,0.0,0.0,0.0,0.0,0.0,0.0,0.0,0.0,0.0,0.0,0.0,0.0,0.0,0.0,0.0,0.0,0.0,0.0,0.0,0.0,0.0,0.0,0.0,0.0,0.0,0.0,0.0,0.0,0.0,0.0,0.0,0.0,0.0,0.0,0.0,0.0,0.0,0.0,1.3947,1.615,1.7341,1.7662,1.7206,1.5747,1.4167,0.0,0.0,0.0,0.0,0.0,0.0,0.0,0.0,0.0,0.0,0.0,0.0,0.0,0.0,0.0,0.0,0.0,0.0,0.0,0.0,0.0,0.0,0.0,0.0,0.0,0.0,0.0,0.0,0.0,0.0,0.0,0.0,0.0,0.0,0.0,0.0,0.0,0.0,0.0,0.0,0.0,0.0,0.0,0.0,0.0,0.0,0.0,0.0,0.0,0.0,0.0,0.0,0.0,0.0,0.0,0.0,0.0,0.0,0.0,0.0,0.0,0.0,0.0,0.0,0.0,0.0,0.0,0.0,0.0,0.0,0.0,0.0,0.0,0.0,0.0,0.0,0.0,0.0,0.0,0.0,0.0,0.0,0.0,0.0,0.0,0.0,0.0,0.0,0.0,0.0,0.0,0.0,0.0,0.0,0.0,0.0,0.0,0.0,0.0,0.0,0.0,0.0,0.0,0.0,0.0,0.0,0.0,0.0,0.0,1.5084,1.6794,1.7729,1.7689,1.5964,1.4873,0.0,0.0,0.0,0.0,0.0,0.0,0.0,0.0,0.0,0.0,0.0,0.0,0.0,0.0,0.0,0.0,0.0,0.0,0.0,0.0,0.0,0.0,0.0,0.0,0.0,0.0,0.0,0.0,0.0,0.0,0.0,0.0,0.0,0.0,0.0,0.0,0.0,0.0,0.0,0.0,0.0,0.0,0.0,0.0,0.0,0.0,0.0,0.0,0.0,0.0,0.0,0.0,0.0,0.0,0.0,0.0,0.0,0.0,0.0,0.0,0.0,0.0,0.0,0.0,0.0,0.0,0.0,0.0,0.0,0.0,0.0,0.0,0.0,0.0,0.0,0.0,0.0,0.0,0.0,0.0,0.0,0.0,0.0,0.0,0.0,0.0,0.0,0.0,0.0,0.0,0.0,0.0,0.0,0.0,0.0,0.0,0.0,0.0,0.0,0.0,0.0,0.0,0.0,0.0,0.0,0.0,0.0,0.0,0.0,1.5738,1.7368,1.829,1.8329,1.6598,1.5622,1.552,0.0,0.0,0.0,0.0,0.0,0.0,0.0,0.0,0.0,0.0,0.0,0.0,0.0,0.0,0.0,0.0,0.0,0.0,0.0,0.0,0.0,0.0,0.0,0.0,0.0,0.0,0.0,0.0,0.0,0.0,0.0,0.0,0.0,0.0,0.0,0.0,0.0,0.0,0.0,0.0,0.0,0.0,0.0,0.0,0.0,0.0,0.0,0.0,0.0,0.0,0.0,0.0,0.0,0.0,0.0,0.0,0.0,0.0,0.0,0.0,0.0,0.0,0.0,0.0,0.0,0.0,0.0,0.0,0.0,0.0,0.0,0.0,0.0,0.0,0.0,0.0,0.0,0.0,0.0,0.0,0.0,0.0,0.0,0.0,0.0,0.0,0.0,0.0,0.0,0.0,0.0,0.0,0.0,0.0,0.0,0.0,0.0,0.0,0.0,0.0,0.0,0.0,0.0,0.0,0.0,0.0,0.0,0.0,1.7608,1.8786,1.9225,1.8904,1.7565,1.6407,0.0,0.0,0.0,0.0,0.0,0.0,0.0,0.0,0.0,0.0,0.0,0.0,0.0,0.0,0.0,0.0,0.0,0.0,0.0,0.0,0.0,0.0,0.0,0.0,0.0,0.0,0.0,0.0,0.0,0.0,0.0,0.0,0.0,0.0,0.0,0.0,0.0,0.0,0.0,0.0,0.0,0.0,0.0,0.0,0.0,0.0,0.0,0.0,0.0,0.0,0.0,0.0,0.0,0.0,0.0,0.0,0.0,0.0,0.0,0.0,0.0,0.0,0.0,0.0,0.0,0.0,0.0,0.0,0.0,0.0,0.0,0.0,0.0,0.0,0.0,0.0,0.0,0.0,0.0,0.0,0.0,0.0,0.0,0.0,0.0,0.0,0.0,0.0,0.0,0.0,0.0,0.0,0.0,0.0,0.0,0.0,0.0,0.0,0.0,0.0,0.0,0.0,0.0,0.0,0.0,0.0,0.0,0.0,0.0,1.7862,1.8893,1.9361,1.9242,1.819,1.7518,0.0,0.0,0.0,0.0,0.0,0.0,0.0,0.0,0.0,0.0,0.0,0.0,0.0,0.0,0.0,0.0,0.0,0.0,0.0,0.0,0.0,0.0,0.0,0.0,0.0,0.0,0.0,0.0,0.0,0.0,0.0,0.0,0.0,0.0,0.0,0.0,0.0,0.0,0.0,0.0,0.0,0.0,0.0,0.0,0.0,0.0,0.0,0.0,0.0,0.0,0.0,0.0,0.0,0.0,0.0,0.0,0.0,0.0,0.0,0.0,0.0,0.0,0.0,0.0,0.0,0.0,0.0,0.0,0.0,0.0,0.0,0.0,0.0,0.0,0.0,0.0,0.0,0.0,0.0,0.0,0.0,0.0,0.0,0.0,0.0,0.0,0.0,0.0,0.0,0.0,0.0,0.0,0.0,0.0,0.0,0.0,0.0,0.0,0.0,0.0,0.0,0.0,0.0,0.0,0.0,0.0,0.0,0.0,1.7154,1.8717,1.9187,1.9576,1.9939,1.9296,1.8846,0.0,0.0,0.0,0.0,0.0,0.0,0.0,0.0,0.0,0.0,0.0,0.0,0.0,0.0,0.0,0.0,0.0,0.0,0.0,0.0,0.0,0.0,0.0,0.0,0.0,0.0,0.0,0.0,0.0,0.0,0.0,0.0,0.0,0.0,0.0,0.0,0.0,0.0,0.0,0.0,0.0,0.0,0.0,0.0,0.0,0.0,0.0,0.0,0.0,0.0,0.0,0.0,0.0,0.0,0.0,0.0,0.0,0.0,0.0,0.0,0.0,0.0,0.0,0.0,0.0,0.0,0.0,0.0,0.0,0.0,0.0,0.0,0.0,0.0,0.0,0.0,0.0,0.0,0.0,0.0,0.0,0.0,0.0,0.0,0.0,0.0,0.0,0.0,0.0,0.0,0.0,0.0,0.0,0.0,0.0,0.0,0.0,0.0,0.0,0.0,0.0,0.0,0.0,0.0,0.0,0.0,0.0,0.0,1.8023,1.9801,1.9635,1.9939,2.0802,2.0646,2.0224,0.0,0.0,0.0,0.0,0.0,0.0,0.0,0.0,0.0,0.0,0.0,0.0,0.0,0.0,0.0,0.0,0.0,0.0,0.0,0.0,0.0,0.0,0.0,0.0,0.0,0.0,0.0,0.0,0.0,0.0,0.0,0.0,0.0,0.0,0.0,0.0,0.0,0.0,0.0,0.0,0.0,0.0,0.0,0.0,0.0,0.0,0.0,0.0,0.0,0.0,0.0,0.0,0.0,0.0,0.0,0.0,0.0,0.0,0.0,0.0,0.0,0.0,0.0,0.0,0.0,0.0,0.0,0.0,0.0,0.0,0.0,0.0,0.0,0.0,0.0,0.0,0.0,0.0,0.0,0.0,0.0,0.0,0.0,0.0,0.0,0.0,0.0,0.0,0.0,0.0,0.0,0.0,0.0,0.0,0.0,0.0,0.0,0.0,0.0,0.0,0.0,0.0,0.0,0.0,0.0,0.0,0.0,0.0,1.7889,2.0054,2.0316,2.0859,2.1772,2.1509,2.1056,0.0,0.0,0.0,0.0,0.0,0.0,0.0,0.0,0.0,0.0,0.0,0.0,0.0,0.0,0.0,0.0,0.0,0.0,0.0,0.0,0.0,0.0,0.0,0.0,0.0,0.0,0.0,0.0,0.0,0.0,0.0,0.0,0.0,0.0,0.0,0.0,0.0,0.0,0.0,0.0,0.0,0.0,0.0,0.0,0.0,0.0,0.0,0.0,2.3903,0.0,0.0,0.0,0.0,0.0,0.0,0.0,0.0,0.0,0.0,0.0,0.0,0.0,0.0,0.0,0.0,0.0,0.0,0.0,0.0,0.0,0.0,0.0,0.0,0.0,0.0,0.0,0.0,0.0,0.0,0.0,0.0,0.0,0.0,0.0,0.0,0.0,0.0,0.0,0.0,0.0,0.0,0.0,0.0,0.0,0.0,0.0,0.0,0.0,0.0,0.0,0.0,0.0,0.0,0.0,0.0,0.0,0.0,0.0,1.841,2.0119,2.0534,2.1233,2.2285,2.2783,2.2474,0.0,0.0,0.0,0.0,0.0,0.0,0.0,0.0,0.0,0.0,0.0,0.0,0.0,0.0,0.0,0.0,0.0,0.0,0.0,0.0,0.0,0.0,0.0,0.0,0.0,0.0,0.0,0.0,0.0,0.0,0.0,0.0,0.0,0.0,0.0,0.0,0.0,0.0,0.0,0.0,0.0,0.0,0.0,0.0,0.0,0.0,0.0,0.0,0.0,0.0,0.0,0.0,0.0,0.0,0.0,0.0,0.0,0.0,0.0,0.0,0.0,0.0,0.0,0.0,0.0,0.0,0.0,0.0,0.0,0.0,0.0,0.0,0.0,0.0,0.0,0.0,0.0,0.0,0.0,0.0,0.0,0.0,0.0,0.0,0.0,0.0,0.0,0.0,0.0,0.0,0.0,0.0,0.0,0.0,0.0,0.0,0.0,0.0,0.0,0.0,0.0,0.0,0.0,0.0,0.0,0.0,0.0,1.7862,1.9029,2.0358,2.0838,2.1683,2.2921,2.4409,2.4268,2.2427,0.0,0.0,0.0,0.0,0.0,0.0,0.0,0.0,0.0,0.0,0.0,0.0,0.0,0.0,0.0,0.0,0.0,0.0,0.0,0.0,0.0,0.0,0.0,0.0,0.0,0.0,0.0,0.0,0.0,0.0,0.0,0.0,0.0,0.0,0.0,0.0,0.0,0.0,2.2441,2.37,0.0,0.0,0.0,0.0,0.0,0.0,0.0,0.0,2.4489,0.0,0.0,0.0,0.0,0.0,0.0,0.0,0.0,0.0,0.0,0.0,0.0,0.0,0.0,0.0,0.0,0.0,0.0,0.0,0.0,0.0,0.0,0.0,0.0,0.0,0.0,0.0,0.0,0.0,0.0,0.0,0.0,0.0,0.0,0.0,0.0,0.0,0.0,0.0,0.0,0.0,0.0,0.0,0.0,0.0,0.0,0.0,0.0,0.0,0.0,0.0,0.0,0.0,0.0,0.0,0.0,1.7742,1.7756,1.8932,2.1304,2.226,2.3315,2.4592,2.6678,2.6537,2.3981,0.0,0.0,0.0,0.0,0.0,0.0,0.0,0.0,0.0,0.0,0.0,0.0,0.0,0.0,0.0,0.0,0.0,0.0,0.0,0.0,0.0,0.0,0.0,0.0,0.0,0.0,0.0,0.0,0.0,0.0,0.0,0.0,0.0,0.0,0.0,0.0,0.0,0.0,0.0,2.5316,2.5491,0.0,0.0,0.0,0.0,0.0,0.0,0.0,0.0,2.4656,0.0,0.0,0.0,0.0,0.0,0.0,0.0,0.0,0.0,0.0,0.0,0.0,0.0,0.0,0.0,0.0,0.0,0.0,0.0,0.0,0.0,0.0,0.0,0.0,0.0,0.0,0.0,0.0,0.0,0.0,0.0,0.0,0.0,0.0,0.0,0.0,0.0,0.0,0.0,0.0,0.0,0.0,0.0,0.0,0.0,0.0,0.0,0.0,0.0,0.0,0.0,0.0,0.0,0.0,0.0,1.7782,1.9401,2.0948,2.2395,2.3535,2.468,2.5803,2.7164,2.6811,0.0,0.0,0.0,0.0,0.0,0.0,0.0,0.0,0.0,0.0,0.0,0.0,0.0,0.0,0.0,0.0,0.0,0.0,0.0,0.0,0.0,0.0,0.0,0.0,0.0,0.0,0.0,0.0,0.0,0.0,0.0,0.0,0.0,0.0,0.0,0.0,0.0,0.0,0.0,0.0,2.5686,2.5862,2.631,0.0,0.0,0.0,0.0,0.0,0.0,2.4832,2.4617,0.0,0.0,0.0,0.0,0.0,0.0,0.0,0.0,0.0,0.0,0.0,0.0,0.0,0.0,0.0,0.0,0.0,0.0,0.0,0.0,0.0,0.0,0.0,0.0,0.0,0.0,0.0,0.0,0.0,0.0,0.0,0.0,0.0,0.0,0.0,0.0,0.0,0.0,0.0,0.0,0.0,0.0,0.0,0.0,0.0,0.0,0.0,0.0,0.0,0.0,0.0,0.0,0.0,0.0,0.0,1.8087,2.1202,2.3183,2.38,2.4996,2.6132,2.717,2.7747,2.7121,0.0,0.0,0.0,0.0,0.0,0.0,0.0,0.0,0.0,0.0,0.0,0.0,0.0,0.0,0.0,0.0,0.0,0.0,0.0,0.0,0.0,0.0,0.0,0.0,0.0,0.0,0.0,0.0,0.0,0.0,0.0,0.0,0.0,0.0,0.0,0.0,0.0,0.0,0.0,0.0,0.0,2.6159,2.6654,2.6225,0.0,0.0,0.0,0.0,2.5563,2.5371,0.0,0.0,0.0,0.0,0.0,0.0,0.0,0.0,0.0,0.0,0.0,0.0,0.0,0.0,0.0,0.0,0.0,0.0,0.0,0.0,0.0,0.0,0.0,0.0,0.0,0.0,0.0,0.0,0.0,0.0,0.0,0.0,0.0,0.0,0.0,0.0,0.0,0.0,0.0,0.0,0.0,0.0,0.0,0.0,0.0,0.0,0.0,0.0,0.0,0.0,0.0,0.0,0.0,0.0,0.0,0.0,1.9441,2.204,2.4173,2.5736,2.6825,2.7996,2.9219,2.9889,2.8946,0.0,0.0,0.0,0.0,0.0,0.0,0.0,0.0,0.0,0.0,0.0,0.0,0.0,0.0,0.0,0.0,0.0,0.0,0.0,0.0,0.0,0.0,0.0,0.0,0.0,0.0,0.0,0.0,0.0,0.0,0.0,0.0,0.0,0.0,0.0,0.0,0.0,0.0,0.0,0.0,0.0,2.6596,2.5952,2.612,2.6133,0.0,0.0,2.6855,2.733,2.765,0.0,0.0,0.0,0.0,0.0,0.0,0.0,0.0,0.0,0.0,0.0,0.0,0.0,0.0,0.0,0.0,0.0,0.0,0.0,0.0,0.0,0.0,0.0,0.0,0.0,0.0,0.0,0.0,0.0,0.0,0.0,0.0,0.0,0.0,0.0,0.0,0.0,0.0,0.0,0.0,0.0,0.0,0.0,0.0,0.0,0.0,0.0,0.0,0.0,0.0,0.0,0.0,0.0,0.0,0.0,2.0036,2.1415,2.4568,2.6857,2.8175,2.9019,2.9908,3.0819,3.0898,2.9508,0.0,0.0,0.0,0.0,0.0,0.0,0.0,0.0,0.0,0.0,0.0,0.0,0.0,0.0,0.0,0.0,0.0,0.0,0.0,0.0,0.0,0.0,0.0,0.0,0.0,0.0,0.0,0.0,0.0,0.0,0.0,0.0,0.0,0.0,0.0,0.0,0.0,0.0,0.0,0.0,0.0,0.0,2.7819,2.7656,0.0,0.0,0.0,2.7975,2.7741,0.0,0.0,0.0,0.0,0.0,0.0,0.0,0.0,0.0,0.0,0.0,0.0,0.0,0.0,0.0,0.0,0.0,0.0,0.0,0.0,0.0,0.0,0.0,0.0,0.0,0.0,0.0,0.0,0.0,0.0,0.0,0.0,0.0,0.0,0.0,0.0,0.0,0.0,0.0,0.0,0.0,0.0,0.0,0.0,0.0,0.0,0.0,0.0,0.0,0.0,0.0,0.0,0.0,0.0,0.0,0.0,0.0,2.3318,2.7107,2.9442,3.0176,3.0861,3.1428,3.1917,3.1721,0.0,0.0,0.0,0.0,0.0,0.0,0.0,0.0,0.0,0.0,0.0,0.0,0.0,0.0,0.0,0.0,0.0,0.0,0.0,0.0,0.0,0.0,0.0,0.0,0.0,0.0,0.0,1.7709,0.0,0.0,0.0,0.0,0.0,0.0,0.0,0.0,0.0,0.0,0.0,0.0,0.0,0.0,2.7689,2.909,2.8789,2.8496,0.0,0.0,2.8906,2.8392,2.8666,2.8764,0.0,0.0,0.0,0.0,0.0,0.0,0.0,0.0,0.0,0.0,0.0,0.0,0.0,0.0,0.0,0.0,0.0,0.0,0.0,0.0,0.0,0.0,0.0,0.0,0.0,0.0,0.0,0.0,0.0,0.0,0.0,0.0,0.0,0.0,0.0,0.0,0.0,0.0,0.0,0.0,0.0,0.0,0.0,0.0,0.0,0.0,0.0,0.0,0.0,0.0,0.0,0.0,0.0,0.0,0.0,2.5004,2.9031,3.1212,3.1329,3.1937,3.232,3.2349,3.2598,3.0894,0.0,0.0,0.0,0.0,0.0,0.0,0.0,0.0,0.0,0.0,0.0,0.0,0.0,0.0,0.0,0.0,0.0,0.0,0.0,0.0,0.0,0.0,0.0,0.0,0.0,0.0,0.0,0.0,0.0,0.0,0.0,0.0,0.0,0.0,0.0,0.0,0.0,0.0,0.0,0.0,0.0,2.7826,2.8314,2.8658,2.9023,0.0,0.0,2.9643,2.998,3.0424,3.0458,2.9598,0.0,0.0,0.0,0.0,0.0,0.0,0.0,0.0,0.0,0.0,0.0,0.0,0.0,0.0,0.0,0.0,0.0,0.0,0.0,0.0,0.0,0.0,0.0,0.0,0.0,0.0,0.0,0.0,0.0,0.0,0.0,0.0,0.0,0.0,0.0,0.0,0.0,0.0,0.0,0.0,0.0,0.0,0.0,0.0,0.0,0.0,0.0,0.0,0.0,0.0,0.0,0.0,0.0,2.5567,2.6703,3.0189,3.2211,3.2626,3.288,3.3007,3.2991,3.3104,3.184,0.0,0.0,0.0,0.0,0.0,0.0,0.0,0.0,0.0,0.0,0.0,0.0,0.0,0.0,0.0,0.0,0.0,0.0,0.0,0.0,0.0,0.0,0.0,0.0,0.0,0.0,0.0,0.0,2.2761,2.3229,2.3407,0.0,0.0,0.0,0.0,0.0,0.0,0.0,0.0,0.0,0.0,2.9193,3.0137,3.041,0.0,0.0,3.1934,3.2451,3.2316,3.225,3.2084,3.1756,3.1431,0.0,0.0,0.0,0.0,0.0,0.0,0.0,0.0,0.0,0.0,0.0,0.0,0.0,0.0,0.0,0.0,0.0,0.0,0.0,0.0,0.0,0.0,0.0,0.0,0.0,0.0,0.0,0.0,0.0,0.0,0.0,0.0,0.0,0.0,0.0,0.0,0.0,0.0,0.0,0.0,0.0,0.0,0.0,0.0,0.0,0.0,0.0,0.0,0.0,0.0,0.0,0.0,2.6211,2.7884,3.1046,3.2931,3.3386,3.3386,3.3386,3.3386,3.3386,3.2387,0.0,0.0,0.0,0.0,0.0,0.0,0.0,0.0,0.0,0.0,0.0,0.0,0.0,0.0,0.0,0.0,0.0,0.0,0.0,0.0,0.0,0.0,0.0,0.0,0.0,0.0,0.0,0.0,2.4149,2.4383,2.4742,0.0,0.0,0.0,0.0,0.0,0.0,0.0,0.0,0.0,0.0,3.0542,3.1577,3.1801,3.2012,3.2355,3.3212,3.3735,3.3407,3.3252,3.3147,3.3003,0.0,0.0,0.0,0.0,0.0,0.0,0.0,0.0,0.0,0.0,0.0,0.0,0.0,0.0,0.0,0.0,0.0,0.0,0.0,0.0,0.0,0.0,0.0,0.0,0.0,0.0,0.0,0.0,0.0,0.0,1.3627,0.0,0.0,0.0,0.0,0.0,0.0,0.0,0.0,0.0,0.0,0.0,0.0,0.0,0.0,0.0,0.0,0.0,0.0,0.0,0.0,0.0,0.0,2.7825,2.832,3.1654,3.3406,3.3422,3.3386,3.3422,3.3425,3.3402,3.2387,3.0254,0.0,0.0,0.0,0.0,0.0,0.0,0.0,0.0,0.0,0.0,0.0,0.0,0.0,0.0,0.0,0.0,0.0,0.0,0.0,0.0,0.0,0.0,0.0,0.0,0.0,0.0,2.3264,2.3616,2.4344,0.0,0.0,0.0,0.0,0.0,0.0,0.0,0.0,0.0,0.0,3.1211,3.1641,3.215,3.255,3.2835,3.289,3.2921,3.2921,3.2998,3.3347,3.3465,0.0,0.0,0.0,0.0,0.0,0.0,0.0,0.0,0.0,0.0,0.0,0.0,0.0,0.0,0.0,0.0,0.0,0.0,0.0,0.0,0.0,0.0,0.0,0.0,0.0,0.0,0.0,1.6831,1.5475,0.0,0.0,0.0,0.0,0.0,0.0,0.0,0.0,0.0,0.0,0.0,2.8214,2.8929,0.0,0.0,0.0,0.0,0.0,0.0,0.0,0.0,0.0,0.0,0.0,0.0,2.8314,2.8848,3.2383,3.4277,3.4261,3.4277,3.4277,3.4277,3.4004,3.2711,3.0273,0.0,0.0,0.0,0.0,0.0,0.0,0.0,0.0,0.0,0.0,0.0,0.0,0.0,0.0,0.0,0.0,0.0,0.0,0.0,0.0,0.0,0.0,0.0,0.0,0.0,2.5051,0.0,0.0,0.0,0.0,0.0,0.0,0.0,0.0,0.0,0.0,0.0,3.063,3.1216,3.1695,3.248,3.3864,3.4194,3.473,0.0,0.0,0.0,0.0,0.0,0.0,0.0,0.0,0.0,0.0,0.0,0.0,0.0,0.0,4.127,3.953,3.9602,3.9742,3.9034,0.0,0.0,0.0,0.0,0.0,0.0,0.0,0.0,0.0,0.0,0.0,0.0,0.0,0.0,2.023,0.0,1.8753,0.0,0.0,0.0,0.0,0.0,0.0,0.0,0.0,2.8947,3.0496,3.1182,3.1451,3.1451,0.0,3.1351,2.9947,0.0,0.0,0.0,0.0,0.0,0.0,0.0,0.0,2.9316,3.0137,3.3105,3.4687,3.4687,3.4687,3.4687,3.4687,3.445,3.3449,3.1616,3.0581,2.9389,0.0,0.0,0.0,0.0,0.0,0.0,0.0,0.0,0.0,0.0,0.0,0.0,0.0,0.0,0.0,0.0,0.0,0.0,0.0,0.0,0.0,0.0,0.0,2.6916,0.0,0.0,0.0,0.0,0.0,0.0,0.0,0.0,0.0,2.9272,3.1135,3.2419,3.2198,3.3317,3.4485,3.5336,0.0,0.0,0.0,0.0,0.0,0.0,0.0,3.8667,3.9178,3.9522,3.9913,4.0453,4.2532,4.4021,4.3604,0.0,0.0,4.2364,4.2402,4.2546,4.1815,4.2362,4.2839,4.2491,4.2471,4.2522,0.0,0.0,0.0,0.0,0.0,0.0,0.0,0.0,2.4289,2.4115,0.0,2.2474,0.0,0.0,0.0,0.0,0.0,2.5614,0.0,0.0,3.2075,3.2988,3.3383,3.3386,3.3406,3.348,3.3848,3.3613,3.268,3.0752,0.0,0.0,0.0,0.0,0.0,0.0,3.0913,3.2194,3.3887,3.4746,3.4766,3.4766,3.4746,3.4726,3.4726,3.4528,3.4055,3.2124,3.06,2.9623,2.5664,0.0,0.0,0.0,0.0,0.0,0.0,0.0,0.0,0.0,0.0,0.0,0.0,0.0,0.0,0.0,0.0,0.0,0.0,0.0,0.0,2.7532,0.0,0.0,0.0,0.0,0.0,0.0,0.0,0.0,0.0,0.0,3.1255,3.2975,3.4165,3.3524,0.0,0.0,0.0,0.0,3.8578,3.8696,3.868,3.8712,3.8761,3.9195,3.9783,4.0355,0.0,0.0,4.3538,4.5113,4.5865,4.4783,4.5485,4.5959,4.4801,4.4188,4.3894,4.3805,4.4211,4.4596,4.4625,4.5276,4.606,2.4272,0.0,0.0,0.0,0.0,2.4869,2.5577,2.5906,2.7069,2.6722,2.5372,2.5318,0.0,0.0,0.0,0.0,0.0,0.0,2.919,3.0898,3.1567,3.2578,3.3883,3.3903,3.4043,3.4336,3.4453,3.4394,3.4141,3.3551,3.1753,2.8933,0.0,0.0,0.0,0.0,3.2261,3.273,3.4609,3.5628,3.5628,3.5628,3.5508,3.5212,3.5212,3.4997,3.4531,3.3926,3.2652,3.062,2.9023,0.0,0.0,0.0,0.0,0.0,0.0,0.0,0.0,0.0,0.0,0.0,0.0,0.0,0.0,0.0,0.0,0.0,0.0,0.0,2.8196,2.9679,3.0472,0.0,0.0,0.0,0.0,0.0,0.0,0.0,0.0,0.0,3.444,3.4476,3.4554,0.0,0.0,3.7027,3.7759,3.8878,4.0183,4.1694,4.1921,0.0,4.2559,4.2505,4.2571,4.3079,4.3916,4.4741,4.5403,4.596,4.619,4.582,4.6065,4.62,4.5884,4.5683,4.5574,4.559,4.5704,4.5814,4.584,4.6381,4.6873,2.9205,2.7987,2.6794,2.6399,2.666,2.7937,2.8761,2.9305,3.0267,3.0002,2.8918,2.8691,2.8232,2.753,2.6522,0.0,0.0,0.0,3.0996,3.2437,3.2641,3.3304,3.431,3.4333,3.4469,3.4707,3.4883,3.498,3.4997,3.5137,3.4004,3.1695,0.0,0.0,3.0678,3.2398,3.357,3.4101,3.5318,3.6018,3.6018,3.6018,3.5881,3.5664,3.5628,3.543,3.5,3.498,3.418,3.2496,3.1328,3.0322,0.0,0.0,0.0,0.0,0.0,0.0,0.0,0.0,0.0,0.0,0.0,2.6323,2.6208,0.0,0.0,0.0,2.9575,3.0153,3.1501,3.2525,0.0,0.0,0.0,0.0,0.0,0.0,0.0,3.5376,3.6602,3.7379,3.7393,3.6866,3.644,3.6241,3.7646,3.8857,3.9352,0.0,4.145,4.2713,4.3137,4.3451,4.3818,4.3865,4.4085,4.462,4.526,4.5892,4.6481,4.6612,4.6687,4.6863,4.6938,4.6928,4.6938,4.6954,4.6863,4.6662,4.6612,4.6687,4.6888,4.7205,4.7425,3.3461,3.3221,3.0498,2.9526,2.9912,3.1131,3.2294,3.3367,3.3367,3.3386,3.3324,3.2211,3.1508,3.1147,2.9908,0.0,3.1782,3.2203,3.3219,3.4687,3.4687,3.4707,3.4766,3.4746,3.4782,3.4805,3.5234,3.5466,3.5469,3.582,3.5605,3.4805,3.4023,3.3789,3.4118,3.4196,3.4824,3.5959,3.5999,3.6018,3.6018,3.6018,3.6018,3.5999,3.6018,3.5823,3.5469,3.5466,3.5251,3.4726,3.2891,3.2276,3.3173,0.0,0.0,0.0,0.0,0.0,0.0,0.0,0.0,0.0,0.0,0.0,0.0,0.0,0.0,0.0,3.4382,0.0,3.5772,3.5598,0.0,0.0,0.0,3.5607,3.626,3.6623,3.7329,3.8576,0.0,0.0,3.9932,3.9758,3.9378,3.8986,4.0826,4.1893,4.1064,4.181,4.2503,4.2866,4.3246,4.3655,4.404,4.4413,4.4955,4.5518,4.6033,4.6617,4.7074,4.7174,4.739,4.7757,4.7908,4.7883,4.7908,4.7832,4.7767,4.74,4.7224,4.7299,4.7716,4.7958,4.8109,3.3942,3.3874,3.3473,3.2995,3.2497,3.2793,3.3129,3.3386,3.3386,3.3386,3.3386,3.3457,3.361,3.3769,3.3476,3.3555,3.3945,3.4062,3.4316,3.4687,3.4687,3.4883,3.5234,3.5234,3.5391,3.5686,3.5803,3.5862,3.5862,3.5959,3.5901,3.5686,3.5491,3.5101,3.4606,3.5215,3.5686,3.5999,3.6018,3.6018,3.6018,3.6018,3.6018,3.6018,3.6018,3.594,3.5862,3.5842,3.5684,3.5254,3.4746,3.4782,3.5463,3.2203,0.0,0.0,0.0,0.0,0.0,0.0,0.0,0.0,0.0,3.2333,3.2222,0.0,3.3445,0.0,3.8373,3.8364,3.6189,3.6827,0.0,0.0,3.6927,3.6691,3.8788,3.89,3.8872,3.9056,4.0445,4.121,4.068,4.1597,4.2432,4.2694,4.1814,4.1389,4.2049,4.3083,4.4285,4.5468,4.5873,4.63,4.6642,4.6932,4.7032,4.7258,4.7398,4.7566,4.7691,4.7691,4.7741,4.7867,4.7908,4.7908,4.7983,4.7908,4.8259,4.8761,4.8319,4.7741,4.7867,4.8586,4.9188,3.4372,3.4391,3.4609,3.4199,3.3422,3.3812,3.3984,3.3968,3.3968,3.3968,3.4004,3.4274,3.4489,3.4687,3.4687,3.4805,3.5,3.5019,3.5117,3.5276,3.5276,3.5413,3.5647,3.5684,3.5784,3.5999,3.6018,3.6018,3.6018,3.6194,3.6309,3.6309,3.6504,3.6348,3.5879,3.5957,3.6018,3.6018,3.6018,3.6018,3.6018,3.6018,3.592,3.5762,3.5901,3.592,3.5742,3.5901,3.584,3.543,3.5195,3.5748,3.7141,3.4952,3.4534,0.0,0.0,0.0,0.0,0.0,0.0,0.0,0.0,0.0,0.0,0.0,3.5693,3.7421,4.0073,4.0691,3.8242,3.9288,4.0274,4.0707,3.9583,3.9525,4.1277,4.1283,4.1155,4.1052,4.2309,4.2973,4.2451,4.3161,4.393,4.4452,4.3486,4.3055,4.3936,4.464,4.5406,4.6388,4.6802,4.7212,4.7799,4.7908,4.7908,4.7908,4.7908,4.8058,4.856,4.8661,4.8796,4.9264,4.9414,4.9414,4.9414,4.943,4.964,5.0033,4.9882,4.9464,4.9414,4.9916,5.036,3.4785,3.4785,3.4844,3.4437,3.3793,3.4534,3.4687,3.4375,3.4375,3.4473,3.4629,3.473,3.4824,3.4847,3.4847,3.5078,3.5469,3.5469,3.5647,3.5999,3.6018,3.6018,3.6018,3.6057,3.6096,3.6113,3.6118,3.6174,3.6194,3.658,3.6792,3.6795,3.7109,3.7305,3.7266,3.6543,3.6174,3.6174,3.6116,3.6077,3.6077,3.6038,3.5823,3.5525,3.5803,3.5823,3.5508,3.5803,3.5891,3.5689,3.531,3.6232,3.8712,3.7945,3.7785,0.0,3.9244,0.0,0.0,0.0,0.0,0.0,0.0,0.0,0.0,3.8852,3.8201,3.7606,4.0865,4.2453,4.1115,4.2094,4.2995,4.3349,4.2901,4.2791,4.3334,4.3436,4.3459,4.353,4.4038,4.4434,4.4477,4.4569,4.4848,4.5515,4.5723,4.5965,4.6545,4.6521,4.6472,4.652,4.7106,4.808,4.8434,4.846,4.846,4.841,4.851,4.8686,4.9681,4.9832,5.0134,5.0962,5.1138,5.1188,5.1289,5.1239,5.1264,5.1297,5.1289,5.1239,5.1163,5.1239,5.1373,3.529,3.531,3.5608,3.5667,3.553,3.5686,3.457,3.2687,3.2687,3.3254,3.4271,3.4958,3.5432,3.5745,3.5764,3.5803,3.5881,3.5881,3.592,3.6018,3.6018,3.6018,3.6038,3.6387,3.656,3.658,3.6912,3.7051,3.7051,3.7148,3.7205,3.7187,3.7266,3.7305,3.7285,0.0,0.0,0.0,3.6736,3.656,3.656,3.6211,3.5959,3.5901,3.5959,0.0,3.5901,3.5959,3.6364,3.7139,3.7088,0.0,0.0,0.0,0.0,0.0,0.0,0.0,0.0,0.0,0.0,0.0,4.1868,4.1514,4.1496,4.2401,4.2462,4.1241,4.2853,4.3894,4.3617,4.3805,4.4017,4.4073,4.3973,4.3973,4.4097,4.4113,4.4281,4.4727,4.4885,4.5148,4.5668,4.6161,4.6835,4.7725,4.8407,4.9152,5.0049,4.8944,4.8526,4.9353,4.9882,5.0438,5.0645,5.0561,5.0435,5.0661,5.0661,5.0686,5.0862,5.0979,5.0962,5.1339,5.1289,5.1339,5.1339,5.1289,5.1473,5.185,5.195,5.1825,5.1414,5.1666,5.195,3.5703,3.5723,3.592,3.5764,0.0,3.5354,3.4359,3.2851,3.3707,3.4434,3.5059,3.5508,3.5803,3.5979,3.5566,3.5354,3.5335,3.4905,3.5081,3.5686,3.5686,3.6035,3.666,3.6892,3.701,3.701,3.7187,3.7305,3.7305,3.7482,3.7599,3.7599,3.783,3.7948,3.7948,3.7948,3.7715,3.7305,3.7107,3.699,3.699,3.6777,3.6526,3.6367,3.6543,0.0,0.0,0.0,0.0,0.0,0.0,0.0,0.0,0.0,0.0,4.252,4.2557,4.253,4.253,4.2804,4.3492,4.4535,4.4624,4.4319,4.368,4.4345,4.4467,4.3733,4.4658,4.5144,4.4838,4.4792,4.4792,4.4776,4.4741,4.4808,4.5143,4.5479,4.586,4.6379,4.673,4.7173,4.7714,4.8036,4.8608,4.9353,4.9764,5.0318,5.103,5.0531,5.0215,5.0746,5.1063,5.1289,5.1289,5.1289,5.1314,5.1289,5.1289,5.1414,5.1624,5.1699,5.1774,5.2026,5.2101,5.2101,5.2084,5.2101,5.2159,5.2427,5.2503,5.2435,5.2151,5.231,5.2485,3.6018,3.6018,3.6018,3.5605,3.4941,3.4922,3.457,3.4066,0.0,0.0,0.0,3.594,3.6057,3.6057,3.5371,3.5078,3.5117,3.4417,3.4687,3.5723,3.5739,3.6289,3.7285,3.7363,3.7402,3.7422,3.7498,3.7519,3.7539,3.7949,3.8108,3.8185,3.8612,3.8827,3.8827,3.8827,3.8495,3.7793,3.7519,3.7422,3.7402,3.7324,3.7129,3.6814,3.7109,3.704,3.656,3.6893,3.7351,3.7839,3.7523,3.8487,4.0947,4.1241,4.2156,4.3992,4.5063,4.5662,4.5751,4.6273,4.6562,4.6587,4.6486,4.6159,4.5535,4.5464,4.5464,4.5464,4.6074,4.6225,4.5673,4.5711,4.576,4.576,4.5748,4.5972,4.6398,4.7051,4.7635,4.8094,4.8636,4.928,4.9784,4.9843,5.0092,5.0553,5.0737,5.0921,5.1414,5.1481,5.1389,5.1599,5.1699,5.1641,5.1615,5.1641,5.159,5.1649,5.1641,5.1749,5.2084,5.2251,5.241,5.2737,5.2895,5.2845,5.2887,5.2937,5.3038,5.3046,5.3138,5.3213,5.3213,5.3213,5.3188,3.6018,3.6018,3.6018,3.594,3.5806,3.5823,3.5976,3.615,3.5273,3.4883,3.4941,3.5667,3.623,3.6599,3.648,3.6616,3.6914,3.6797,3.6855,3.7031,3.7031,3.7129,3.7305,3.7638,3.7814,3.7853,3.8203,3.8416,3.8456,3.8809,3.9023,3.9062,3.9473,3.9707,3.9726,3.9726,3.9648,3.9512,3.84,3.7814,3.7796,3.748,3.7266,3.7207,3.7283,3.7738,3.8534,3.8647,3.9553,4.1405,4.1473,4.2544,4.4863,4.4634,4.5295,4.7038,4.6993,4.7051,4.7492,4.762,4.7682,4.7641,4.7265,4.6767,4.6215,4.6165,4.615,4.6175,4.6677,4.6968,4.6861,4.7211,4.7461,4.7511,4.7964,4.8114,4.7721,4.8562,4.9237,4.9387,4.9835,5.0393,5.0937,5.1063,5.1239,5.1699,5.1774,5.2009,5.2377,5.226,5.2209,5.2561,5.2686,5.2686,5.2561,5.2644,5.2586,5.2661,5.2611,5.2586,5.2669,5.2737,5.277,5.2895,5.2945,5.2962,5.2988,5.3306,5.3532,5.3632,5.3909,5.4228,5.4228,5.4253,5.4177,3.6701,3.6719,3.6719,3.6719,3.6701,3.6701,3.6816,3.697,3.6367,3.6113,3.6152,3.6526,3.6799,3.697,3.6523,3.6426,3.6565,3.6113,3.6287,3.6951,3.6953,3.7342,3.7988,3.8418,3.8613,3.8634,3.9082,3.9315,3.9315,3.9492,3.957,3.959,3.9805,3.9883,3.9883,3.9883,3.9883,3.9883,3.9043,3.8595,3.8595,3.8221,3.8006,3.8024,3.8577,3.9043,3.9327,3.9934,4.0861,4.2237,4.2627,4.3598,4.5259,4.5829,4.6501,4.7336,4.748,4.7641,4.7883,4.7908,4.7908,4.7908,4.7666,4.744,4.7205,4.6888,4.6863,4.7139,4.739,4.7541,4.7541,4.8058,4.8259,4.7917,4.8937,4.9414,4.9063,4.9816,5.0619,5.0921,5.1172,5.1532,5.2084,5.2159,5.2209,5.2511,5.2536,5.2644,5.2887,5.2711,5.2611,5.2845,5.2895,5.2895,5.2895,5.2895,5.2895,5.2895,5.2895,5.2895,5.2895,5.2895,5.302,5.3264,5.3314,5.3482,5.3725,5.4002,5.4152,5.4202,5.4353,5.4597,5.4622,5.4805,5.4805,3.7305,3.7305,3.7305,3.7305,3.7305,3.7305,3.7344,3.7441,3.7422,3.75,3.7576,3.7402,3.7344,3.7346,3.6721,3.6528,3.6604,3.6018,3.6345,3.7359,3.742,3.7948,3.8846,3.9219,3.9355,3.9394,3.9726,3.9883,3.9902,3.998,4.0078,4.0176,4.0195,4.0176,4.0214,4.046,4.0592,4.0572,4.0399,4.0139,3.9762,3.9465,3.9395,3.9585,4.0378,4.0743,4.059,4.137,4.2269,4.3158,4.3708,4.4496,4.564,4.6632,4.7285,4.7575,4.7917,4.8234,4.846,4.8611,4.8595,4.8469,4.8344,4.8284,4.8259,4.7792,4.7591,4.7867,4.8008,4.8124,4.8209,4.8761,4.8978,4.8595,4.9825,5.0544,5.0184,5.0971,5.1724,5.2059,5.2201,5.2452,5.277,5.2895,5.2937,5.3038,5.3088,5.3113,5.3256,5.3306,5.3306,5.3213,5.3088,5.2895,5.2895,5.3038,5.3071,5.3088,5.3239,5.3364,5.3364,5.3314,5.3414,5.3808,5.3909,5.4034,5.4454,5.4697,5.4773,5.478,5.4949,5.5031,5.5082,5.5333,5.539,3.7305,3.7305,3.7344,3.7305,3.7344,3.7344,3.7559,3.7853,3.7835,3.8105,3.8397,3.7674,3.7559,3.7814,3.7775,3.8107,3.8789,3.8809,3.9004,3.9453,3.959,3.9668,3.9745,3.9805,3.9862,3.9862,3.9978,4.0112,4.0207,4.0426,4.0722,4.1035,4.1074,4.1132,4.1229,4.2171,4.2706,4.2726,4.3329,4.2928,4.1559,4.1442,4.1695,4.2312,4.2417,4.2753,4.3284,4.3431,4.4253,4.5828,4.608,4.6741,4.7938,4.7856,4.817,4.9219,4.8971,4.9129,5.0051,5.0686,5.0661,5.0218,4.969,4.9414,4.9389,4.8953,4.841,4.8234,4.8476,4.8752,4.8793,4.964,5.0176,5.0117,5.113,5.1749,5.1339,5.2101,5.2586,5.2109,5.2536,5.2845,5.292,5.2995,5.3163,5.3582,5.3658,5.3783,5.4152,5.427,5.4278,5.4177,5.3632,5.3046,5.3063,5.3356,5.3582,5.3665,5.4077,5.4253,5.4253,5.4278,5.4454,5.4403,5.4504,5.4554,5.4755,5.4974,5.5333,5.5383,5.5634,5.5993,5.6025,5.6043,5.5867,3.8065,3.8047,3.8065,3.8221,3.8418,3.8418,3.8672,3.9082,3.9082,3.9199,3.9315,3.9003,3.8789,3.8693,3.8946,3.9297,3.9628,3.9628,3.9707,3.9883,3.9883,3.9883,3.9922,4.0137,4.0596,4.1315,4.1611,4.2111,4.2717,4.2974,4.3141,4.3362,4.3762,4.378,4.344,4.4254,4.4497,4.4102,4.4365,4.451,4.4445,4.3381,4.3109,4.3821,4.4457,4.517,4.5878,4.6519,4.7224,4.7964,4.8411,4.8916,4.9485,4.9702,5.0048,5.0569,5.041,5.046,5.0896,5.1163,5.1063,5.0469,5.0544,5.0469,5.0117,5.0184,5.0159,4.9983,4.9832,4.9866,5.0259,5.0946,5.1297,5.1147,5.1925,5.236,5.185,5.2435,5.2812,5.2636,5.3038,5.3364,5.3414,5.3683,5.3976,5.4202,5.4228,5.4378,5.4597,5.4597,5.4597,5.4547,5.4177,5.3959,5.3901,5.4069,5.4202,5.4278,5.4403,5.4597,5.4647,5.4597,5.4672,5.4981,5.5056,5.5232,5.5566,5.5641,5.5867,5.5892,5.5942,5.6219,5.6219,5.6219,5.6093,3.8982,3.8944,3.8964,3.9139,3.9394,3.9394,3.959,3.9863,3.9883,3.9883,3.9902,4.0019,3.9883,3.9629,3.9805,3.9961,4.0059,4.0059,4.0137,4.0291,4.0576,4.0765,4.0824,4.1404,4.2134,4.2911,4.3311,4.4027,4.5023,4.5341,4.5394,4.5468,4.5751,4.5729,4.5506,4.6063,4.623,4.5971,4.6174,4.6806,4.7399,4.6207,4.5545,4.5823,4.6747,4.747,4.7863,4.8669,4.9207,4.9395,4.9929,5.0284,5.0527,5.1022,5.1289,5.1314,5.1465,5.1515,5.1515,5.1649,5.1498,5.0979,5.1297,5.1289,5.087,5.1046,5.1364,5.144,5.1105,5.1046,5.1264,5.1791,5.19,5.1624,5.236,5.2737,5.2603,5.2912,5.3213,5.3381,5.375,5.3934,5.4002,5.4278,5.4597,5.4755,5.4805,5.4924,5.5006,5.5082,5.5082,5.5031,5.5031,5.4881,5.4697,5.473,5.478,5.4856,5.4931,5.5132,5.5031,5.5056,5.5082,5.5566,5.5591,5.5666,5.5892,5.6093,5.6175,5.6194,5.6219,5.6294,5.6495,5.6344,5.6394,3.9844,3.9824,3.9824,3.9824,3.9863,3.9863,3.9902,3.998,3.9941,3.9922,4.0,4.0313,4.0469,4.041,4.0117,4.0137,4.043,4.0469,4.0703,4.1151,4.2231,4.2826,4.2941,4.4023,4.4607,4.4694,4.4701,4.5172,4.5974,4.6632,4.6923,4.6923,4.6526,4.6374,4.6941,4.7517,4.7995,4.8534,4.942,5.0192,5.0305,5.0198,4.9499,4.8739,4.9324,4.9486,4.9191,4.9129,4.947,5.0157,5.029,5.0594,5.1189,5.1306,5.1364,5.1414,5.18,5.2076,5.2109,5.2485,5.2511,5.2101,5.2,5.1825,5.1339,5.1373,5.1666,5.2051,5.2076,5.1875,5.1641,5.2051,5.2226,5.2184,5.2611,5.3138,5.3582,5.3607,5.3934,5.4321,5.4496,5.4579,5.4579,5.4572,5.4924,5.5232,5.5358,5.5509,5.5867,5.6043,5.6018,5.5993,5.5942,5.5767,5.4924,5.5056,5.5333,5.5408,5.5616,5.5993,5.61,5.6125,5.61,5.6093,5.6043,5.6068,5.6168,5.6219,5.6219,5.6219,5.6219,5.6319,5.6502,5.6376,5.6426,3.9883,3.9883,3.9883,4.0039,4.0293,4.0274,4.0449,4.0742,4.0742,4.0742,4.0761,4.0879,4.0937,4.0957,4.08,4.08,4.0957,4.0937,4.1035,4.1347,4.2447,4.3248,4.3758,4.4499,4.5509,4.6455,4.6203,4.6736,4.8181,4.8954,4.9307,4.9379,4.9581,4.9575,4.9468,4.9973,5.0246,5.0009,5.0405,5.0606,5.0712,5.1099,5.1142,5.0769,5.0972,5.1247,5.1516,5.155,5.167,5.1935,5.1935,5.2054,5.2276,5.2327,5.2327,5.2352,5.2511,5.2611,5.2636,5.277,5.2686,5.2184,5.2435,5.2402,5.2,5.2126,5.2536,5.298,5.313,5.3148,5.3348,5.3256,5.3113,5.3163,5.3607,5.4027,5.4202,5.4295,5.4353,5.4597,5.4898,5.5232,5.5483,5.5616,5.5691,5.5867,5.5917,5.5974,5.6118,5.6219,5.6219,5.6219,5.6194,5.6093,5.5767,5.5742,5.5917,5.5942,5.6093,5.6118,5.6194,5.6219,5.6168,5.6143,5.6194,5.6219,5.6219,5.6219,5.6219,5.6219,5.6219,5.6294,5.6426,5.6491,5.6555,4.0312,4.0331,4.0312,4.0469,4.0723,4.0742,4.0898,4.1191,4.1211,4.1211,4.1211,4.1211,4.1211,4.1211,4.1211,4.1463,4.1734,4.1792,4.1773,4.1947,4.3423,4.4424,4.4982,4.5881,4.6971,4.8145,4.835,4.9018,5.0163,5.1,5.1327,5.138,5.1702,5.1684,5.1457,5.1684,5.1572,5.1352,5.1345,5.1345,5.1422,5.1858,5.2161,5.2137,5.2137,5.2387,5.2878,5.2895,5.2895,5.2895,5.2895,5.2895,5.2895,5.2895,5.2895,5.2895,5.2895,5.2895,5.2895,5.2895,5.2762,5.241,5.2686,5.2762,5.2653,5.2937,5.3389,5.3833,5.4002,5.4202,5.4446,5.4378,5.4185,5.4077,5.4371,5.4672,5.483,5.483,5.4956,5.5157,5.5458,5.5817,5.6118,5.6168,5.6194,5.6219,5.6219,5.6219,5.6219,5.6219,5.6219,5.6219,5.6219,5.6219,5.6043,5.6043,5.6093,5.6143,5.6143,5.6194,5.6219,5.6219,5.6219,5.6219,5.6219,5.6219,5.6219,5.6219,5.6219,5.6219,5.6244,5.6276,5.6509,5.6764,5.7142,4.1152,4.1113,4.1191,4.1132,4.1133,4.1133,4.1191,4.1191,4.1211,4.1211,4.1211,4.1211,4.1211,4.123,4.1443,4.1946,4.2829,4.3267,4.3305,4.3364,4.5459,4.6537,4.6795,4.8368,4.9191,4.9597,5.0996,5.1688,5.1779,5.2474,5.2838,5.2763,5.2268,5.2345,5.2834,5.2305,5.2238,5.2542,5.2671,5.2732,5.2878,5.2792,5.2792,5.2809,5.2809,5.2843,5.2895,5.2895,5.2895,5.2895,5.2895,5.2895,5.2895,5.2895,5.2895,5.2895,5.2895,5.2895,5.2895,5.292,5.3013,5.2937,5.2962,5.3239,5.3582,5.3683,5.3959,5.4454,5.4597,5.4672,5.4773,5.5082,5.5107,5.4723,5.4748,5.4999,5.5282,5.5408,5.5591,5.5968,5.6118,5.6194,5.6219,5.6219,5.6219,5.6219,5.6219,5.6219,5.6219,5.6219,5.6219,5.6219,5.6219,5.6219,5.6219,5.6219,5.6194,5.6219,5.6194,5.6219,5.6219,5.6219,5.6219,5.6219,5.6219,5.6219,5.6219,5.6219,5.6219,5.6219,5.6251,5.6531,5.6921,5.7396,5.8213,4.1211,4.1211,4.1211,4.1211,4.1211,4.1211,4.1211,4.1211,4.1211,4.1211,4.1211,4.1211,4.1211,4.156,4.2522,4.3397,4.3928,4.5819,4.6304,4.5583,4.7151,4.8371,4.9008,4.9819,5.0461,5.104,5.2243,5.2913,5.3049,5.3675,5.4077,5.4007,5.3823,5.3623,5.3447,5.3223,5.3115,5.2886,5.2895,5.2895,5.2895,5.2895,5.2895,5.2895,5.2895,5.2895,5.2895,5.2895,5.2895,5.2895,5.2895,5.2895,5.2895,5.2895,5.2895,5.2895,5.2895,5.2895,5.2945,5.3239,5.3457,5.3532,5.3808,5.4102,5.4295,5.4328,5.4554,5.5056,5.5157,5.5282,5.5641,5.5842,5.5691,5.5232,5.5465,5.5691,5.5842,5.5917,5.6,5.6143,5.6219,5.6219,5.6219,5.6219,5.6219,5.6219,5.6219,5.6219,5.6219,5.6219,5.6219,5.6219,5.6219,5.6219,5.6219,5.6219,5.6219,5.6219,5.6219,5.6219,5.6219,5.6219,5.6219,5.6219,5.6219,5.6219,5.6219,5.634,5.6431,5.6631,5.6921,5.7268,5.7623,5.832,5.9226,4.1211,4.1211,4.1211,4.1211,4.1211,4.1211,4.1211,4.1211,4.1211,4.1346,4.1599,4.1657,4.1831,4.237,4.3835,4.4774,4.5484,4.8054,4.8835,4.8244,4.8858,4.9754,5.0275,5.0794,5.1532,5.2321,5.3116,5.3626,5.3878,5.4348,5.4597,5.4597,5.4597,5.4403,5.4052,5.4027,5.3833,5.3557,5.3339,5.3188,5.3163,5.2995,5.2895,5.2895,5.2895,5.3013,5.3163,5.3013,5.2895,5.2895,5.2895,5.2895,5.2895,5.2895,5.2988,5.3163,5.3213,5.3289,5.3532,5.3858,5.4009,5.4102,5.4396,5.4697,5.4823,5.4898,5.5132,5.5591,5.5691,5.5842,5.6118,5.6219,5.6043,5.5742,5.5968,5.6194,5.6219,5.6219,5.6194,5.6219,5.6219,5.6219,5.6219,5.6219,5.6219,5.6219,5.6219,5.6219,5.6219,5.6219,5.6219,5.6219,5.6219,5.6219,5.6219,5.6219,5.6219,5.6219,5.6219,5.6219,5.6219,5.6219,5.6219,5.6219,5.6219,5.6219,5.6237,5.683,5.7094,5.7364,5.7679,5.8266,5.8805,5.9543,6.0285,4.1211,4.1211,4.1211,4.1211,4.1211,4.1211,4.1211,4.1211,4.1211,4.1695,4.237,4.2562,4.3041,4.3915,4.5338,4.6452,4.748,4.932,5.0769,5.1099,5.1099,5.0871,5.1011,5.167,5.2515,5.3396,5.3778,5.4107,5.4473,5.4762,5.4672,5.4723,5.4798,5.468,5.4672,5.4629,5.4572,5.4378,5.3959,5.3758,5.3733,5.3331,5.3071,5.3096,5.3121,5.3314,5.3632,5.3389,5.3088,5.297,5.3071,5.3163,5.3046,5.2995,5.3314,5.3733,5.3758,5.4009,5.4403,5.4572,5.4629,5.4647,5.4755,5.4881,5.5358,5.5458,5.5591,5.6043,5.6118,5.6168,5.6194,5.6219,5.6175,5.6194,5.6194,5.6219,5.6219,5.6219,5.6219,5.6219,5.6219,5.6219,5.6219,5.6219,5.6219,5.6219,5.6219,5.6219,5.6219,5.6219,5.6219,5.6219,5.6219,5.6219,5.6219,5.6219,5.6219,5.6219,5.6219,5.6219,5.6219,5.6219,5.6219,5.6219,5.631,5.6292,5.6558,5.7202,5.7768,5.8143,5.8674,5.9385,6.0064,6.0691,6.1203,4.1211,4.1211,4.1211,4.1211,4.1211,4.1211,4.1211,4.1211,4.125,4.2234,4.3399,4.3644,4.4623,4.6208,4.7931,4.8961,4.9599,5.1229,5.2223,5.2525,5.2439,5.2317,5.2417,5.2889,5.3323,5.3766,5.4386,5.483,5.4697,5.5308,5.5491,5.5232,5.5534,5.5534,5.5257,5.5207,5.4956,5.4647,5.4496,5.4353,5.4328,5.4202,5.4152,5.4152,5.4127,5.4177,5.4371,5.4228,5.3909,5.3582,5.3934,5.4152,5.4077,5.4059,5.4135,5.4303,5.4353,5.4403,5.4629,5.4981,5.5182,5.5232,5.5465,5.5842,5.5949,5.5993,5.6068,5.6219,5.6219,5.6219,5.6219,5.6219,5.6219,5.6219,5.6219,5.6219,5.6219,5.6219,5.6219,5.6219,5.6219,5.6219,5.6219,5.6219,5.6219,5.6219,5.6219,5.6219,5.6219,5.6219,5.6219,5.6219,5.6219,5.6219,5.6219,5.6219,5.6219,5.6219,5.6219,5.6219,5.6219,5.6219,5.6219,5.6219,5.6503,5.6576,5.7148,5.7786,5.832,5.9079,5.9933,6.0735,6.1094,6.162,6.2102,4.1211,4.1211,4.1211,4.1211,4.1211,4.1211,4.1502,4.1985,4.233,4.3532,4.5111,4.5741,4.6665,4.8167,4.9967,5.0817,5.1096,5.2759,5.358,5.3615,5.3605,5.3329,5.3078,5.3264,5.3464,5.3758,5.4361,5.4604,5.4748,5.5483,5.5659,5.5559,5.5942,5.6,5.5767,5.5742,5.5591,5.5308,5.5082,5.4931,5.4949,5.4697,5.4597,5.4597,5.4597,5.4597,5.4622,5.5006,5.4906,5.4353,5.4403,5.4597,5.4597,5.4597,5.468,5.4898,5.4949,5.5006,5.5265,5.5566,5.5717,5.5767,5.6068,5.6168,5.6194,5.6219,5.6219,5.6219,5.6219,5.6219,5.6219,5.6219,5.6219,5.6219,5.6219,5.6219,5.6219,5.6219,5.6219,5.6219,5.6219,5.6219,5.6219,5.6219,5.6219,5.6219,5.6219,5.6219,5.6219,5.6219,5.6219,5.6219,5.6219,5.6219,5.6219,5.6219,5.6219,5.6219,5.6449,5.6394,5.6394,5.6412,5.6576,5.6685,5.6812,5.7202,5.8036,5.8885,5.9646,6.0485,6.1322,6.1806,6.2075,6.2108,6.2665,4.1211,4.1211,4.1211,4.125,4.1386,4.1561,4.2432,4.337,4.4325,4.5794,4.7449,4.8337,4.9215,5.0116,5.175,5.227,5.2372,5.3779,5.4322,5.4429,5.4378,5.4027,5.3356,5.3339,5.3557,5.3884,5.3858,5.421,5.4705,5.5232,5.5458,5.5559,5.5942,5.6194,5.6118,5.6168,5.6194,5.6018,5.5666,5.5491,5.5433,5.5157,5.4999,5.4956,5.4956,5.4931,5.5107,5.5541,5.5691,5.4805,5.4755,5.4856,5.483,5.4805,5.5006,5.5383,5.5491,5.5666,5.6025,5.6093,5.615,5.6168,5.6168,5.6219,5.6219,5.6219,5.6219,5.6219,5.6219,5.6219,5.6219,5.6219,5.6219,5.6219,5.6219,5.6219,5.6219,5.6219,5.6219,5.6219,5.6219,5.6219,5.6219,5.6219,5.6219,5.6219,5.6219,5.6219,5.6219,5.6219,5.6219,5.6219,5.6219,5.6219,5.6219,5.6219,5.6219,5.6255,5.6667,5.6769,5.6787,5.6859,5.713,5.7346,5.7687,5.8427,5.9446,6.0261,6.0896,6.1474,6.2086,6.2515,6.2814,6.2648,6.2881,4.1211,4.1211,4.1211,4.156,4.2315,4.354,4.4625,4.556,4.7078,4.8702,5.031,5.0809,5.1808,5.3392,5.3694,5.4042,5.3943,5.4473,5.4597,5.4597,5.4597,5.4522,5.4228,5.4228,5.4278,5.4454,5.4813,5.4838,5.4881,5.5408,5.5792,5.5534,5.5917,5.6219,5.6219,5.6219,5.6219,5.6194,5.6068,5.5993,5.5968,5.5867,5.576,5.5767,5.5767,5.5817,5.5867,5.605,5.6075,5.5917,5.5817,5.5717,5.5742,5.5767,5.5817,5.5917,5.5993,5.6068,5.6175,5.6219,5.6219,5.6219,5.6219,5.6219,5.6219,5.6219,5.6219,5.6219,5.6219,5.6219,5.6219,5.6219,5.6219,5.6219,5.6219,5.6219,5.6219,5.6219,5.6219,5.6219,5.6219,5.6219,5.6219,5.6219,5.6219,5.6219,5.6219,5.6219,5.6219,5.6219,5.6219,5.6219,5.6219,5.6237,5.6285,5.6412,5.6649,5.6848,5.722,5.7544,5.7544,5.7804,5.8249,5.848,5.8656,5.9586,6.0667,6.0947,6.144,6.2136,6.2665,6.2781,6.2881,6.2881,6.2909,4.1211,4.1327,4.2436,4.3172,4.3887,4.5774,4.7242,4.8269,4.9501,5.0937,5.2266,5.2798,5.3638,5.4612,5.4856,5.4963,5.5056,5.5257,5.5358,5.5383,5.5365,5.5383,5.5358,5.5282,5.5157,5.4773,5.4848,5.4823,5.4881,5.5358,5.5641,5.5483,5.5942,5.6194,5.6219,5.6219,5.6219,5.6219,5.6219,5.6219,5.6219,5.6219,5.6219,5.6219,5.6219,5.6219,5.6194,5.6194,5.6219,5.6219,5.6219,5.6219,5.6219,5.6219,5.6219,5.6219,5.6219,5.6219,5.6219,5.6219,5.6219,5.6219,5.6219,5.6219,5.6219,5.6219,5.6219,5.6219,5.6219,5.6219,5.6219,5.6219,5.6219,5.6219,5.6219,5.6219,5.6219,5.6219,5.6219,5.6219,5.6219,5.6219,5.6219,5.6219,5.6219,5.6219,5.6219,5.6219,5.6219,5.6219,5.6219,5.6219,5.6219,5.6255,5.634,5.6649,5.7166,5.7597,5.8143,5.848,5.8718,5.9114,5.9559,5.9725,5.9881,6.0752,6.1637,6.1856,6.1974,6.2454,6.2798,6.2864,6.2881,6.2881,6.2881,4.1523,4.1796,4.419,4.5277,4.58,4.815,4.9903,5.0973,5.1934,5.3005,5.3784,5.4556,5.482,5.4981,5.5333,5.5491,5.5616,5.5867,5.6018,5.6018,5.6018,5.6018,5.6043,5.5968,5.5691,5.4898,5.5006,5.4956,5.5082,5.5282,5.5666,5.5616,5.5942,5.6194,5.6219,5.6219,5.6219,5.6219,5.6219,5.6219,5.6219,5.6219,5.6219,5.6219,5.6219,5.6219,5.6219,5.6219,5.6219,5.6219,5.6219,5.6219,5.6219,5.6219,5.6219,5.6219,5.6219,5.6219,5.6219,5.6219,5.6219,5.6219,5.6219,5.6219,5.6219,5.6219,5.6219,5.6219,5.6219,5.6219,5.6219,5.6219,5.6219,5.6219,5.6219,5.6219,5.6219,5.6219,5.6219,5.6219,5.6219,5.6219,5.6219,5.6219,5.6219,5.6219,5.6219,5.6219,5.6219,5.6237,5.6237,5.6485,5.6594,5.7328,5.7544,5.7669,5.8089,5.848,5.9096,5.9533,5.9942,6.0537,6.0965,6.093,6.1254,6.194,6.232,6.2437,6.2632,6.2881,6.2881,6.2881,6.2881,6.2881,6.2909,4.2998,4.3476,4.5646,4.696,4.7983,5.0577,5.2308,5.3338,5.4622,5.5492,5.5649,5.5845,5.5842,5.5917,5.5968,5.6068,5.6043,5.6168,5.6219,5.6219,5.6219,5.6219,5.6219,5.6194,5.6025,5.6,5.5842,5.5792,5.5842,5.6043,5.5968,5.6068,5.6143,5.6219,5.6219,5.6219,5.6219,5.6219,5.6219,5.6219,5.6219,5.6219,5.6219,5.6219,5.6219,5.6219,5.6219,5.6219,5.6219,5.6219,5.6219,5.6219,5.6219,5.6219,5.6219,5.6219,5.6219,5.6219,5.6219,5.6219,5.6219,5.6219,5.6219,5.6219,5.6219,5.6219,5.6219,5.6219,5.6219,5.6219,5.6219,5.6219,5.6219,5.6219,5.6219,5.6219,5.6219,5.6219,5.6219,5.6219,5.6219,5.6219,5.6219,5.6219,5.6219,5.6219,5.6219,5.6219,5.6219,5.6237,5.6273,5.6649,5.7112,5.8115,5.9035,5.9123,5.9324,5.9586,6.0106,6.0725,6.1247,6.2018,6.2337,6.1923,6.1991,6.247,6.2781,6.2881,6.2881,6.2881,6.2881,6.2881,6.2881,6.2909,6.2993,4.3496,4.4919,4.7151,4.9028,5.0712,5.3217,5.4592,5.5051,5.5856,5.6219,5.6219,5.6219,5.6219,5.6219,5.6219,5.6219,5.6219,5.6219,5.6219,5.6219,5.6219,5.6219,5.6219,5.6219,5.6219,5.6194,5.6194,5.6219,5.6219,5.6194,5.6219,5.6219,5.6219,5.6219,5.6219,5.6219,5.6219,5.6219,5.6219,5.6219,5.6219,5.6219,5.6219,5.6219,5.6219,5.6219,5.6219,5.6219,5.6219,5.6219,5.6219,5.6219,5.6219,5.6219,5.6219,5.6219,5.6219,5.6219,5.6219,5.6219,5.6219,5.6219,5.6219,5.6219,5.6219,5.6219,5.6219,5.6219,5.6219,5.6219,5.6219,5.6219,5.6219,5.6219,5.6219,5.6219,5.6219,5.6219,5.6219,5.6219,5.6219,5.6219,5.6219,5.6219,5.6219,5.6219,5.6219,5.6273,5.631,5.6394,5.6522,5.7526,5.8143,5.8938,5.9977,6.0323,6.0443,6.0701,6.1043,6.1637,6.2024,6.2582,6.2648,6.2404,6.2682,6.2881,6.2881,6.2881,6.2881,6.2881,6.2881,6.2881,6.2881,6.2909,6.3021,4.4729,4.6945,4.9323,5.1314,5.3104,5.5218,5.6157,5.6219,5.6175,5.6219,5.6219,5.6219,5.6219,5.6219,5.6219,5.6219,5.6219,5.6219,5.6219,5.6219,5.6219,5.6219,5.6219,5.6219,5.6219,5.6219,5.6219,5.6219,5.6219,5.6219,5.6219,5.6219,5.6219,5.6219,5.6219,5.6219,5.6219,5.6219,5.6219,5.6219,5.6219,5.6219,5.6219,5.6219,5.6219,5.6219,5.6219,5.6219,5.6219,5.6219,5.6219,5.6219,5.6219,5.6219,5.6219,5.6219,5.6219,5.6219,5.6219,5.6219,5.6219,5.6219,5.6219,5.6219,5.6219,5.6219,5.6219,5.6219,5.6219,5.6219,5.6219,5.6219,5.6219,5.6219,5.6219,5.6219,5.6219,5.6219,5.6219,5.6219,5.6219,5.6219,5.6219,5.6219,5.6219,5.6219,5.6237,5.6703,5.6732,5.6823,5.7238,5.8515,5.9376,5.9968,6.0718,6.1349,6.1485,6.1665,6.1951,6.2387,6.2615,6.2831,6.2765,6.2665,6.2748,6.2881,6.2881,6.2881,6.2881,6.2881,6.2881,6.2881,6.2881,6.2982,6.3094,4.8364,5.0802,5.2854,5.3983,5.4356,5.5656,5.6219,5.6219,5.6219,5.6219,5.6219,5.6219,5.6219,5.6219,5.6219,5.6219,5.6219,5.6219,5.6219,5.6219,5.6219,5.6219,5.6219,5.6219,5.6219,5.6219,5.6219,5.6219,5.6219,5.6219,5.6219,5.6219,5.6219,5.6219,5.6219,5.6219,5.6219,5.6219,5.6219,5.6219,5.6219,5.6219,5.6219,5.6219,5.6219,5.6219,5.6219,5.6219,5.6219,5.6219,5.6219,5.6219,5.6219,5.6219,5.6219,5.6219,5.6219,5.6219,5.6219,5.6219,5.6219,5.6219,5.6219,5.6219,5.6219,5.6219,5.6219,5.6219,5.6219,5.6219,5.6219,5.6219,5.6219,5.6219,5.6219,5.6219,5.6219,5.6219,5.6219,5.6219,5.6219,5.6219,5.6219,5.6219,5.6219,5.6219,5.6303,5.675,5.7256,5.74,5.7858,5.9114,6.0451,6.1128,6.1383,6.2052,6.2203,6.2432,6.2632,6.2881,6.2881,6.2881,6.2881,6.2831,6.2881,6.2881,6.2881,6.2881,6.2881,6.2881,6.2881,6.2881,6.2881,6.3038,6.3235,5.0699,5.238,5.3294,5.4373,5.5423,5.5992,5.6219,5.6219,5.6219,5.6219,5.6219,5.6219,5.6219,5.6219,5.6219,5.6219,5.6219,5.6219,5.6219,5.6219,5.6219,5.6219,5.6219,5.6219,5.6219,5.6219,5.6219,5.6219,5.6219,5.6219,5.6219,5.6219,5.6219,5.6219,5.6219,5.6219,5.6219,5.6219,5.6219,5.6219,5.6219,5.6219,5.6219,5.6219,5.6219,5.6219,5.6219,5.6219,5.6219,5.6219,5.6219,5.6219,5.6219,5.6219,5.6219,5.6219,5.6219,5.6219,5.6219,5.6219,5.6219,5.6219,5.6219,5.6219,5.6219,5.6219,5.6219,5.6219,5.6219,5.6219,5.6219,5.6219,5.6219,5.6219,5.6219,5.6219,5.6219,5.6219,5.6219,5.6219,5.6219,5.6219,5.6219,5.6219,5.6219,5.6219,5.6292,5.6558,5.7346,5.8072,5.8727,5.9638,6.1026,6.227,6.2354,6.2665,6.2582,6.2698,6.2698,6.2881,6.2881,6.2881,6.2881,6.2881,6.2881,6.2881,6.2881,6.2881,6.2881,6.2881,6.2881,6.2881,6.2954,6.342,6.3785,5.3048,5.3876,5.3876,5.48,5.6182,5.6219,5.6219,5.6219,5.6219,5.6219,5.6219,5.6219,5.6219,5.6219,5.6219,5.6219,5.6219,5.6219,5.6219,5.6219,5.6219,5.6219,5.6219,5.6219,5.6219,5.6219,5.6219,5.6219,5.6219,5.6219,5.6219,5.6219,5.6219,5.6219,5.6219,5.6219,5.6219,5.6219,5.6219,5.6219,5.6219,5.6219,5.6219,5.6219,5.6219,5.6219,5.6219,5.6219,5.6219,5.6219,5.6219,5.6219,5.6219,5.6219,5.6219,5.6219,5.6219,5.6219,5.6219,5.6219,5.6219,5.6219,5.6219,5.6219,5.6219,5.6219,5.6219,5.6219,5.6219,5.6219,5.6219,5.6219,5.6219,5.6219,5.6219,5.6219,5.6219,5.6219,5.6219,5.6219,5.6219,5.6219,5.6219,5.6219,5.6219,5.6219,5.631,5.6485,5.7562,5.8833,5.9916,6.0855,6.1536,6.2698,6.2781,6.2881,6.2881,6.2881,6.2881,6.2881,6.2881,6.2881,6.2881,6.2881,6.2881,6.2881,6.2881,6.2881,6.2881,6.2881,6.2881,6.2881,6.3066,6.3588,6.4223,5.5901,5.5992,5.5956,5.5992,5.6219,5.6219,5.6219,5.6219,5.6219,5.6219,5.6219,5.6219,5.6219,5.6219,5.6219,5.6219,5.6219,5.6219,5.6219,5.6219,5.6219,5.6219,5.6219,5.6219,5.6219,5.6219,5.6219,5.6219,5.6219,5.6219,5.6219,5.6219,5.6219,5.6219,5.6219,5.6219,5.6219,5.6219,5.6219,5.6219,5.6219,5.6219,5.6219,5.6219,5.6219,5.6219,5.6219,5.6219,5.6219,5.6219,5.6219,5.6219,5.6219,5.6219,5.6219,5.6219,5.6219,5.6219,5.6219,5.6219,5.6219,5.6219,5.6219,5.6219,5.6219,5.6219,5.6219,5.6219,5.6219,5.6219,5.6219,5.6219,5.6219,5.6219,5.6219,5.6219,5.6219,5.6219,5.6219,5.6219,5.634,5.6576,5.6866,5.7011,5.6848,5.6848,5.7256,5.7472,5.8877,6.015,6.1332,6.2186,6.2387,6.2831,6.2848,6.2881,6.2881,6.2881,6.2881,6.2881,6.2881,6.2881,6.2881,6.2881,6.2881,6.2881,6.2881,6.2881,6.2881,6.2881,6.2909,6.2937,6.3319,6.3897,6.4561,5.5533,5.62,5.6219,5.6219,5.6219,5.6219,5.6219,5.6219,5.6219,5.6219,5.6219,5.6219,5.6219,5.6219,5.6219,5.6219,5.6219,5.6219,5.6219,5.6219,5.6219,5.6219,5.6219,5.6219,5.6219,5.6219,5.6219,5.6219,5.6219,5.6219,5.6219,5.6219,5.6219,5.6219,5.6219,5.6219,5.6219,5.6219,5.6219,5.6219,5.6219,5.6219,5.6219,5.6219,5.6219,5.6219,5.6219,5.6219,5.6219,5.6219,5.6219,5.6219,5.6219,5.6219,5.6219,5.6219,5.6219,5.6219,5.6219,5.6219,5.6219,5.6219,5.6219,5.6219,5.6219,5.6219,5.6219,5.6219,5.6219,5.6219,5.6219,5.6219,5.6219,5.6219,5.6219,5.6219,5.6219,5.6219,5.6412,5.6503,5.695,5.7382,5.7687,5.7991,5.7741,5.7544,5.8026,5.8665,5.9925,6.0958,6.1951,6.2582,6.2731,6.2864,6.2881,6.2881,6.2881,6.2881,6.2881,6.2881,6.2881,6.2881,6.2881,6.2881,6.2926,6.2954,6.2954,6.2926,6.2881,6.2909,6.2965,6.3077,6.3572,6.428,6.487,5.5441,5.6182,5.6219,5.6219,5.6219,5.6219,5.6219,5.6219,5.6219,5.6219,5.6219,5.6219,5.6219,5.6219,5.6219,5.6219,5.6219,5.6219,5.6219,5.6219,5.6219,5.6219,5.6219,5.6219,5.6219,5.6219,5.6219,5.6219,5.6219,5.6219,5.6219,5.6219,5.6219,5.6219,5.6219,5.6219,5.6219,5.6219,5.6219,5.6219,5.6219,5.6219,5.6219,5.6219,5.6219,5.6219,5.6219,5.6219,5.6219,5.6219,5.6219,5.6219,5.6219,5.6219,5.6219,5.6219,5.6219,5.6219,5.6219,5.6219,5.6219,5.6219,5.6219,5.6219,5.6219,5.6219,5.6219,5.6219,5.6219,5.6219,5.6219,5.6219,5.6219,5.6219,5.6219,5.6219,5.6219,5.6237,5.6576,5.6841,5.7382,5.7893,5.878,5.9096,5.9044,5.8938,5.9359,5.9777,6.0348,6.1281,6.1985,6.242,6.2632,6.2765,6.2881,6.2881,6.2881,6.2881,6.2881,6.2881,6.2881,6.2926,6.2926,6.2881,6.2926,6.301,6.315,6.3291,6.315,6.2909,6.315,6.3431,6.4319,6.501,6.5235,5.6164,5.6219,5.6219,5.6219,5.6219,5.6219,5.6219,5.6219,5.6219,5.6219,5.6219,5.6219,5.6219,5.6219,5.6219,5.6219,5.6219,5.6219,5.6219,5.6219,5.6219,5.6219,5.6219,5.6219,5.6219,5.6219,5.6219,5.6219,5.6219,5.6219,5.6219,5.6219,5.6219,5.6219,5.6219,5.6219,5.6219,5.6219,5.6219,5.6219,5.6219,5.6219,5.6219,5.6219,5.6219,5.6219,5.6219,5.6219,5.6219,5.6219,5.6219,5.6219,5.6219,5.6219,5.6219,5.6219,5.6219,5.6219,5.6219,5.6219,5.6219,5.6219,5.6219,5.6219,5.6219,5.6219,5.6219,5.6219,5.6219,5.6219,5.6219,5.6219,5.6219,5.6219,5.6219,5.6219,5.6219,5.6237,5.6522,5.6848,5.7544,5.8302,5.9464,6.0227,6.0313,6.0434,6.076,6.105,6.1254,6.1654,6.2303,6.247,6.2698,6.2765,6.2881,6.2881,6.2881,6.2881,6.2909,6.2982,6.3038,6.3122,6.3094,6.301,6.3263,6.3588,6.3701,6.3785,6.3757,6.3757,6.3701,6.4083,6.501,6.5544,6.5573,5.6219,5.6219,5.6219,5.6219,5.6219,5.6219,5.6219,5.6219,5.6219,5.6219,5.6219,5.6219,5.6219,5.6219,5.6219,5.6219,5.6219,5.6219,5.6219,5.6219,5.6219,5.6219,5.6219,5.6219,5.6219,5.6219,5.6219,5.6219,5.6219,5.6219,5.6219,5.6219,5.6219,5.6219,5.6219,5.6219,5.6219,5.6219,5.6219,5.6219,5.6219,5.6219,5.6219,5.6219,5.6219,5.6219,5.6219,5.6219,5.6219,5.6219,5.6219,5.6219,5.6219,5.6219,5.6219,5.6219,5.6219,5.6219,5.6219,5.6219,5.6219,5.6219,5.6219,5.6219,5.6219,5.6219,5.6219,5.6219,5.6219,5.6219,5.6219,5.6219,5.6219,5.6219,5.6219,5.6219,5.6219,5.6219,5.6358,5.6685,5.722,5.8973,6.0348,6.1196,6.1417,6.1552,6.1806,6.2002,6.2203,6.232,6.2731,6.2748,6.2831,6.2864,6.2909,6.301,6.3038,6.3066,6.3094,6.3122,6.3206,6.3476,6.3701,6.3886,6.4055,6.4252,6.4364,6.4533,6.4701,6.4729,6.4809,6.4759,6.5266,6.5552,6.5477,5.6219,5.6219,5.6219,5.6219,5.6219,5.6219,5.6219,5.6219,5.6219,5.6219,5.6219,5.6219,5.6219,5.6219,5.6219,5.6219,5.6219,5.6219,5.6219,5.6219,5.6219,5.6219,5.6219,5.6244,5.6219,5.6219,5.6219,5.6219,5.6219,5.6219,5.6219,5.6219,5.6219,5.6219,5.6219,5.6219,5.6219,5.6219,5.6219,5.6219,5.6219,5.6219,5.6219,5.6219,5.6219,5.6219,5.6219,5.6219,5.6219,5.6219,5.6219,5.6219,5.6219,5.6219,5.6219,5.6219,5.6219,5.6219,5.6219,5.6219,5.6219,5.6219,5.6219,5.6219,5.6219,5.6219,5.6219,5.6219,5.6244,5.6244,5.6244,5.6244,5.6219,5.6219,5.6219,5.6219,5.6237,5.6237,5.6892,5.7145,5.7989,5.9682,6.1118,6.1907,6.2532,6.2665,6.2831,6.2909,6.2909,6.2909,6.2954,6.2982,6.2982,6.2982,6.3066,6.3206,6.3235,6.3206,6.3375,6.3588,6.3841,6.4167,6.4465,6.4662,6.4634,6.4673,6.5039,6.5281,6.5626,6.5928,6.6145,6.6043,6.5799,6.5997,6.6236,5.6219,5.6219,5.6219,5.6219,5.6219,5.6219,5.6219,5.6219,5.6219,5.6219,5.6219,5.6219,5.6219,5.6219,5.6219,5.6219,5.6219,5.6219,5.6219,5.6269,5.6326,5.6276,5.6294,5.6369,5.647,5.6351,5.6401,5.6646,5.6344,5.6545,5.652,5.642,5.6527,5.657,5.6545,5.6545,5.6495,5.6426,5.6394,5.647,5.6595,5.6477,5.657,5.6545,5.647,5.6376,5.6326,5.6251,5.6219,5.6219,5.6219,5.6219,5.6219,5.6219,5.6219,5.6269,5.6294,5.6319,5.6369,5.6394,5.6369,5.6445,5.642,5.6319,5.6244,5.6319,5.6401,5.6401,5.6401,5.6326,5.6301,5.6269,5.6219,5.6219,5.6219,5.6237,5.6255,5.6692,5.7567,5.8326,5.9255,6.0579,6.1698,6.2598,6.2937,6.2881,6.2954,6.3066,6.3066,6.2909,6.2982,6.315,6.3122,6.3094,6.3263,6.3645,6.3757,6.3841,6.4167,6.442,6.4662,6.4859,6.5084,6.5168,6.4999,6.514,6.5601,6.6185,6.6766,6.7031,6.7256,6.7432,6.7237,6.7619,6.7898,5.6219,5.6219,5.6219,5.6219,5.6219,5.6219,5.6219,5.6219,5.6219,5.6219,5.6219,5.6219,5.6294,5.6219,5.6219,5.6244,5.6244,5.6219,5.6219,5.6344,5.6652,5.6477,5.6602,5.6922,5.7004,5.7029,5.7104,5.7273,5.7374,5.7374,5.7349,5.7449,5.7248,5.728,5.7305,5.7399,5.7104,5.6903,5.6828,5.6953,5.7198,5.7255,5.7273,5.7223,5.6903,5.6828,5.6753,5.6451,5.6369,5.6294,5.6226,5.62,5.6219,5.6219,5.6294,5.6753,5.6778,5.6803,5.6853,5.7173,5.7223,5.6972,5.7097,5.6821,5.6646,5.6552,5.6778,5.6778,5.6778,5.6778,5.6702,5.6627,5.657,5.652,5.6532,5.658,5.6664,5.7236,5.8144,5.9184,6.0167,6.123,6.2342,6.276,6.3049,6.2937,6.301,6.3235,6.3263,6.3178,6.3291,6.3476,6.3588,6.3616,6.4027,6.442,6.4465,6.455,6.4887,6.5168,6.532,6.5488,6.5685,6.5741,6.5685,6.591,6.6275,6.6825,6.7333,6.7953,6.8248,6.8492,6.8753,6.9006,6.9106,5.6219,5.6219,5.6219,5.6219,5.6219,5.6219,5.6219,5.6219,5.6219,5.6276,5.6502,5.6508,5.6652,5.6903,5.6928,5.6928,5.6947,5.6997,5.6997,5.7097,5.7198,5.7129,5.7298,5.7499,5.7549,5.7606,5.7656,5.775,5.7951,5.7926,5.7851,5.7826,5.7901,5.7901,5.7851,5.7775,5.7826,5.7631,5.7581,5.7631,5.7782,5.7951,5.7901,5.7876,5.7506,5.7405,5.733,5.6947,5.6878,5.6853,5.6853,5.6853,5.6897,5.6922,5.6947,5.7355,5.7355,5.7355,5.7405,5.7625,5.7625,5.7575,5.77,5.7474,5.7323,5.723,5.733,5.7355,5.7355,5.7355,5.723,5.7104,5.7022,5.6922,5.6982,5.7017,5.7404,5.7832,5.8783,5.9854,6.0883,6.1931,6.2676,6.3001,6.3403,6.3729,6.3897,6.3982,6.3897,6.3645,6.3858,6.4139,6.4223,6.428,6.4746,6.5084,6.514,6.5235,6.5601,6.5826,6.5994,6.6103,6.6239,6.6356,6.6454,6.6696,6.6982,6.7305,6.7765,6.8431,6.909,6.9391,6.9641,6.989,6.9923,5.6294,5.6294,5.6319,5.6445,5.6326,5.6344,5.6319,5.6251,5.6244,5.6502,5.6903,5.7035,5.7349,5.7575,5.765,5.7675,5.7625,5.7625,5.76,5.7901,5.7901,5.7826,5.775,5.8001,5.8127,5.8052,5.8102,5.8353,5.8152,5.8227,5.8303,5.8027,5.8152,5.8252,5.8303,5.8278,5.8403,5.8554,5.8328,5.8227,5.8152,5.8102,5.8027,5.8077,5.8027,5.7951,5.7951,5.7901,5.7901,5.7876,5.7851,5.7775,5.775,5.7725,5.7775,5.7951,5.7951,5.7951,5.7983,5.8177,5.8102,5.8052,5.8001,5.8102,5.8127,5.7907,5.7932,5.7951,5.7932,5.7932,5.7832,5.7606,5.7474,5.7449,5.7455,5.7648,5.8056,5.8954,6.0366,6.1426,6.2371,6.3302,6.3498,6.3897,6.3954,6.4493,6.4606,6.4606,6.4645,6.4336,6.4499,6.4837,6.4831,6.4971,6.5309,6.559,6.5713,6.5938,6.6261,6.653,6.6703,6.6764,6.6829,6.7119,6.7403,6.7454,6.7679,6.8073,6.8584,6.9207,6.982,7.0233,7.0465,7.0563,7.0547,5.6828,5.6835,5.728,5.7499,5.7424,5.7004,5.6803,5.6759,5.6351,5.6559,5.701,5.7455,5.7732,5.7926,5.7976,5.7976,5.8001,5.8127,5.7926,5.8127,5.8328,5.8353,5.8202,5.8629,5.8755,5.8749,5.8849,5.8981,5.893,5.9006,5.9081,5.9081,5.9025,5.8956,5.8956,5.8956,5.9056,5.9182,5.9081,5.893,5.893,5.9056,5.9106,5.8956,5.8811,5.8535,5.8428,5.8152,5.8001,5.7901,5.7901,5.7876,5.7876,5.7926,5.8152,5.8409,5.851,5.851,5.8604,5.873,5.878,5.873,5.878,5.9006,5.9006,5.8685,5.851,5.851,5.8529,5.851,5.8434,5.8177,5.8001,5.8001,5.8033,5.8387,5.8776,6.0403,6.1986,6.2977,6.3935,6.4296,6.4459,6.4578,6.4662,6.4718,6.4746,6.4859,6.5292,6.5281,6.5372,6.557,6.5495,6.5618,6.5899,6.6022,6.6135,6.6463,6.6817,6.7121,6.7403,6.7593,6.7765,6.8141,6.8414,6.8329,6.8482,6.9073,6.962,7.0018,7.0282,7.0577,7.0691,7.0759,7.0808,5.7405,5.7405,5.7455,5.7506,5.743,5.7154,5.7029,5.7035,5.7204,5.7462,5.7631,5.7656,5.7757,5.8133,5.8234,5.8428,5.8504,5.8648,5.8704,5.878,5.8755,5.8855,5.9031,5.9182,5.9201,5.9201,5.9326,5.9477,5.9527,5.9502,5.9452,5.9527,5.9527,5.9527,5.9527,5.9527,5.9527,5.9502,5.9527,5.9527,5.9527,5.9483,5.9483,5.9357,5.9257,5.9037,5.8987,5.873,5.8679,5.8629,5.8679,5.8679,5.8704,5.8704,5.8805,5.8981,5.9056,5.9062,5.9156,5.9232,5.9357,5.9257,5.9232,5.9332,5.9357,5.9062,5.9056,5.9056,5.9056,5.9056,5.9031,5.8855,5.8805,5.8805,5.8958,5.9254,6.0527,6.2214,6.327,6.3965,6.4583,6.4751,6.4971,6.5196,6.5337,6.5713,6.5629,6.5516,6.5882,6.6018,6.6196,6.6317,6.6209,6.6148,6.6275,6.6388,6.6454,6.6853,6.7299,6.7747,6.8107,6.8448,6.8753,6.8905,6.8989,6.8972,6.927,6.9753,7.0134,7.0446,7.0658,7.0854,7.0903,7.0903,7.0903,5.7876,5.7826,5.743,5.7236,5.7236,5.7236,5.7261,5.7387,5.8158,5.851,5.8334,5.7531,5.7857,5.8485,5.8792,5.9137,5.9282,5.9201,5.9351,5.9402,5.9427,5.9301,5.9326,5.9477,5.9452,5.9427,5.9502,5.9527,5.9527,5.9527,5.9527,5.9527,5.9527,5.9527,5.9527,5.9527,5.9527,5.9527,5.9527,5.9527,5.9527,5.9527,5.9527,5.9527,5.9527,5.9527,5.9483,5.9483,5.9502,5.9452,5.9307,5.9282,5.9301,5.9232,5.9307,5.9382,5.9382,5.9382,5.9452,5.9433,5.9502,5.9502,5.9527,5.9502,5.9483,5.9483,5.9458,5.9458,5.9458,5.9458,5.9433,5.9433,5.9408,5.987,6.01,6.0562,6.2269,6.3771,6.4346,6.4915,6.514,6.5292,6.5516,6.5759,6.6022,6.6426,6.6595,6.6595,6.6574,6.651,6.6558,6.6812,6.6922,6.6856,6.6823,6.6875,6.6951,6.7177,6.7661,6.8261,6.8854,6.9341,6.9541,6.9358,6.9408,6.9591,6.9774,7.015,7.0511,7.0756,7.0821,7.0903,7.0903,7.0903,7.0903,5.7901,5.7926,5.8234,5.8359,5.8359,5.8359,5.8365,5.8309,5.8108,5.8052,5.8127,5.8052,5.8328,5.9332,5.9332,5.9458,5.9433,5.9527,5.9527,5.9502,5.9527,5.9527,5.9527,5.9527,5.9527,5.9527,5.9527,5.9527,5.9527,5.9527,5.9527,5.9527,5.9527,5.9527,5.9527,5.9527,5.9527,5.9527,5.9527,5.9527,5.9527,5.9527,5.9527,5.9527,5.9527,5.9527,5.9527,5.9527,5.9502,5.9527,5.9527,5.9527,5.9527,5.9527,5.9527,5.9527,5.9527,5.9527,5.9527,5.9527,5.9527,5.9527,5.9527,5.9527,5.9483,5.9483,5.9502,5.9502,5.9502,5.9502,5.9502,5.9502,5.9574,6.0922,6.1607,6.2661,6.4028,6.4626,6.5074,6.546,6.5769,6.5966,6.6191,6.6303,6.6303,6.6595,6.6595,6.6595,6.6595,6.6735,6.6875,6.7293,6.7575,6.7558,6.7506,6.7506,6.7593,6.7765,6.8141,6.8938,6.9691,7.0367,7.0465,7.0088,7.0203,7.0449,7.0642,7.0511,7.0658,7.0854,7.087,7.0903,7.0903,7.0903,7.0903]}]]